[[{"header":{"parameterUnit":"m.s-1","parameterCategory":1,"la1":30.6,"la2":29.2853,"lo1":-89.7004,"lo2":-87.6739,"dy":0.0162,"dx":0.0183,"nx":112,"ny":82,"refTime":"2024-06-21T12:00:00:Z","depth":0,"parameterNumber":2,"parameterNumberName":"U-component_of_WINDS"},"data":[0.0,0.0,0.0,0.0,0.0,0.0,0.0,0.0,0.0,0.0,0.0,0.0,0.0,0.0,0.0,0.0,0.0,0.0,0.0,0.0,0.0,0.0,0.0,0.0,0.0,0.0,0.0,0.0,0.0,0.0,0.0,0.0,0.0,0.0,0.0,0.0,0.0,0.0,0.0,0.0,0.0,0.0,0.0,0.0,0.0,0.0,0.0,0.0,0.0,0.0,0.0,0.0,0.0,0.0,0.0,0.0,0.0,0.0,0.0,0.0,0.0,0.0,0.0,0.0,0.0,0.0,0.0,0.0,0.0,0.0,0.0,0.0,0.0,0.0,0.0,0.0,0.0,0.0,0.0,0.0,0.0,0.0,0.0,0.0,0.0,0.0,0.0,0.0,0.0,0.0,-4.1331,-4.3569,-4.3815,-4.3349,-4.2154,-4.127,-3.9941,-3.8014,0.0,0.0,0.0,0.0,0.0,0.0,0.0,0.0,0.0,0.0,0.0,0.0,0.0,0.0,0.0,0.0,0.0,0.0,0.0,0.0,0.0,0.0,0.0,0.0,0.0,0.0,0.0,0.0,0.0,0.0,0.0,0.0,0.0,0.0,0.0,0.0,0.0,0.0,0.0,0.0,0.0,0.0,0.0,0.0,0.0,0.0,0.0,0.0,0.0,0.0,0.0,0.0,0.0,0.0,0.0,0.0,0.0,0.0,0.0,0.0,0.0,0.0,0.0,0.0,0.0,0.0,0.0,0.0,0.0,0.0,0.0,0.0,0.0,0.0,0.0,0.0,0.0,0.0,0.0,0.0,0.0,0.0,0.0,0.0,0.0,0.0,0.0,0.0,0.0,0.0,0.0,0.0,0.0,0.0,0.0,0.0,0.0,0.0,0.0,0.0,0.0,0.0,0.0,0.0,-4.0538,-4.2364,-4.2568,-4.2253,-4.1435,-4.0671,-3.9568,-3.8007,0.0,0.0,0.0,0.0,0.0,0.0,0.0,0.0,0.0,0.0,0.0,0.0,0.0,0.0,0.0,0.0,0.0,0.0,0.0,0.0,0.0,0.0,0.0,0.0,0.0,0.0,0.0,0.0,0.0,0.0,0.0,0.0,0.0,0.0,0.0,0.0,0.0,0.0,0.0,0.0,0.0,0.0,0.0,0.0,0.0,0.0,0.0,0.0,0.0,0.0,0.0,0.0,0.0,0.0,0.0,0.0,0.0,0.0,0.0,0.0,0.0,0.0,0.0,0.0,0.0,0.0,0.0,0.0,0.0,0.0,0.0,0.0,0.0,0.0,0.0,0.0,0.0,0.0,0.0,0.0,0.0,0.0,0.0,0.0,0.0,0.0,0.0,0.0,0.0,0.0,0.0,0.0,0.0,0.0,0.0,0.0,0.0,0.0,0.0,0.0,0.0,0.0,0.0,-3.9433,-4.0217,-4.1018,-4.1457,-4.1407,-4.0663,-4.0299,-3.9462,-3.799,-3.6806,0.0,0.0,0.0,0.0,0.0,0.0,0.0,0.0,0.0,0.0,0.0,0.0,0.0,0.0,0.0,0.0,0.0,0.0,0.0,0.0,0.0,0.0,0.0,0.0,0.0,0.0,0.0,0.0,0.0,0.0,0.0,0.0,0.0,0.0,0.0,0.0,0.0,0.0,0.0,0.0,0.0,0.0,0.0,0.0,0.0,0.0,0.0,0.0,0.0,0.0,0.0,0.0,0.0,0.0,0.0,0.0,0.0,0.0,0.0,0.0,0.0,0.0,0.0,0.0,0.0,0.0,0.0,0.0,0.0,0.0,0.0,0.0,0.0,0.0,0.0,0.0,0.0,0.0,0.0,0.0,0.0,0.0,0.0,0.0,0.0,0.0,0.0,0.0,0.0,0.0,0.0,0.0,0.0,0.0,0.0,0.0,0.0,0.0,0.0,0.0,0.0,0.0,-3.9783,-4.0367,-4.0367,-4.0865,-4.0899,-4.0163,-3.9943,-3.9276,-3.799,-3.6445,0.0,0.0,0.0,0.0,0.0,0.0,0.0,0.0,0.0,0.0,0.0,0.0,0.0,0.0,0.0,0.0,0.0,0.0,0.0,0.0,0.0,0.0,0.0,0.0,0.0,0.0,0.0,0.0,0.0,0.0,0.0,0.0,0.0,0.0,0.0,0.0,0.0,0.0,0.0,0.0,0.0,0.0,0.0,0.0,0.0,0.0,0.0,0.0,0.0,0.0,0.0,0.0,0.0,0.0,0.0,0.0,0.0,0.0,0.0,0.0,0.0,0.0,0.0,0.0,0.0,0.0,0.0,0.0,0.0,0.0,0.0,0.0,0.0,0.0,0.0,0.0,0.0,0.0,0.0,0.0,0.0,0.0,0.0,0.0,0.0,0.0,0.0,0.0,0.0,0.0,0.0,0.0,0.0,0.0,0.0,0.0,0.0,0.0,0.0,0.0,0.0,0.0,-4.024,-4.1119,-4.1119,-4.117,-4.0899,-4.0163,-3.9462,-3.8734,-3.7956,-3.6445,0.0,0.0,0.0,0.0,0.0,0.0,0.0,0.0,0.0,0.0,0.0,0.0,0.0,0.0,0.0,0.0,0.0,0.0,0.0,0.0,0.0,0.0,0.0,0.0,0.0,0.0,0.0,0.0,0.0,0.0,0.0,0.0,0.0,0.0,0.0,0.0,0.0,0.0,0.0,0.0,0.0,0.0,0.0,0.0,0.0,0.0,0.0,0.0,0.0,0.0,0.0,0.0,0.0,0.0,0.0,0.0,0.0,0.0,0.0,0.0,0.0,0.0,0.0,0.0,0.0,0.0,0.0,0.0,0.0,0.0,0.0,0.0,0.0,0.0,0.0,0.0,0.0,0.0,0.0,0.0,0.0,0.0,0.0,0.0,0.0,0.0,0.0,0.0,0.0,0.0,0.0,0.0,0.0,0.0,0.0,0.0,0.0,0.0,0.0,0.0,0.0,0.0,-3.9191,-4.0003,-4.046,-4.0493,-4.0417,-4.013,-3.9859,-3.9174,-3.799,0.0,0.0,0.0,0.0,0.0,0.0,0.0,0.0,0.0,0.0,0.0,0.0,0.0,0.0,0.0,0.0,0.0,0.0,0.0,0.0,0.0,0.0,0.0,0.0,0.0,0.0,0.0,0.0,0.0,0.0,0.0,0.0,0.0,0.0,0.0,0.0,0.0,0.0,0.0,0.0,0.0,0.0,0.0,0.0,0.0,0.0,0.0,0.0,0.0,0.0,0.0,0.0,0.0,0.0,0.0,0.0,0.0,0.0,0.0,0.0,0.0,0.0,0.0,0.0,0.0,0.0,0.0,0.0,0.0,0.0,0.0,0.0,0.0,0.0,0.0,0.0,0.0,0.0,0.0,0.0,0.0,0.0,0.0,0.0,0.0,0.0,0.0,0.0,0.0,0.0,0.0,0.0,0.0,0.0,0.0,0.0,0.0,0.0,0.0,0.0,0.0,0.0,-3.7821,-3.8751,-3.9529,-4.0045,-4.0096,-4.0096,-4.0096,-3.9893,-3.9106,-3.7635,0.0,0.0,0.0,0.0,0.0,0.0,0.0,0.0,0.0,0.0,0.0,0.0,0.0,0.0,0.0,0.0,0.0,0.0,0.0,0.0,0.0,0.0,0.0,0.0,0.0,0.0,0.0,0.0,0.0,0.0,0.0,0.0,0.0,0.0,0.0,0.0,0.0,0.0,0.0,0.0,0.0,0.0,0.0,0.0,0.0,0.0,0.0,0.0,0.0,0.0,0.0,0.0,0.0,0.0,0.0,0.0,0.0,0.0,0.0,0.0,0.0,0.0,0.0,0.0,0.0,0.0,0.0,0.0,0.0,0.0,0.0,0.0,0.0,0.0,0.0,0.0,0.0,0.0,0.0,0.0,0.0,0.0,0.0,0.0,0.0,0.0,0.0,0.0,0.0,0.0,0.0,0.0,0.0,0.0,0.0,0.0,0.0,0.0,0.0,0.0,0.0,0.0,-3.7821,-3.9174,-4.0096,-4.0096,-4.0096,-4.0096,-4.0096,-3.9411,-3.8386,0.0,0.0,0.0,0.0,0.0,0.0,0.0,0.0,0.0,0.0,0.0,0.0,0.0,0.0,0.0,0.0,0.0,0.0,0.0,0.0,0.0,0.0,0.0,0.0,0.0,0.0,0.0,0.0,0.0,0.0,0.0,0.0,0.0,0.0,0.0,0.0,0.0,0.0,0.0,0.0,0.0,0.0,0.0,0.0,0.0,0.0,0.0,0.0,0.0,0.0,0.0,0.0,0.0,0.0,0.0,0.0,0.0,0.0,0.0,0.0,0.0,0.0,0.0,0.0,0.0,0.0,0.0,0.0,0.0,0.0,0.0,0.0,0.0,0.0,0.0,0.0,0.0,0.0,0.0,0.0,0.0,0.0,0.0,0.0,0.0,0.0,0.0,0.0,0.0,0.0,0.0,0.0,0.0,0.0,0.0,0.0,0.0,0.0,0.0,0.0,0.0,0.0,0.0,-3.7821,-3.9174,-4.0096,-4.0096,-4.0096,-4.0096,-4.0096,-3.991,-3.8928,-3.6931,0.0,0.0,0.0,0.0,0.0,0.0,0.0,0.0,0.0,0.0,0.0,0.0,0.0,0.0,0.0,0.0,0.0,0.0,0.0,0.0,0.0,0.0,0.0,0.0,0.0,0.0,0.0,0.0,0.0,0.0,0.0,0.0,0.0,0.0,0.0,0.0,0.0,0.0,0.0,0.0,0.0,0.0,0.0,0.0,0.0,0.0,0.0,0.0,0.0,0.0,0.0,0.0,0.0,0.0,0.0,0.0,0.0,0.0,0.0,0.0,0.0,0.0,0.0,0.0,0.0,0.0,0.0,0.0,0.0,0.0,0.0,0.0,0.0,0.0,0.0,0.0,0.0,0.0,0.0,0.0,0.0,0.0,0.0,0.0,0.0,0.0,0.0,0.0,0.0,0.0,0.0,0.0,0.0,0.0,0.0,0.0,0.0,0.0,0.0,0.0,0.0,0.0,-3.777,-3.9174,-4.0096,-4.0096,-4.0096,-4.0096,-4.0096,-4.0096,-3.9165,-3.6948,0.0,0.0,0.0,0.0,0.0,0.0,0.0,0.0,0.0,0.0,0.0,0.0,0.0,0.0,0.0,0.0,0.0,0.0,0.0,0.0,0.0,0.0,0.0,0.0,0.0,0.0,0.0,0.0,0.0,0.0,0.0,0.0,0.0,0.0,0.0,0.0,0.0,0.0,0.0,0.0,0.0,0.0,0.0,0.0,0.0,0.0,0.0,0.0,0.0,0.0,0.0,0.0,0.0,0.0,0.0,0.0,0.0,0.0,0.0,0.0,0.0,0.0,0.0,0.0,0.0,0.0,0.0,0.0,0.0,0.0,0.0,0.0,0.0,0.0,0.0,0.0,0.0,0.0,0.0,0.0,0.0,0.0,0.0,0.0,0.0,0.0,0.0,0.0,0.0,0.0,0.0,0.0,0.0,0.0,0.0,0.0,0.0,0.0,0.0,0.0,0.0,0.0,-3.7702,-3.9174,-4.0096,-4.0096,-4.0096,-4.0096,-4.0096,-4.0096,-3.9157,-3.6922,0.0,0.0,0.0,0.0,0.0,0.0,0.0,0.0,0.0,0.0,0.0,0.0,0.0,0.0,0.0,0.0,0.0,0.0,0.0,0.0,0.0,0.0,0.0,0.0,0.0,0.0,0.0,0.0,0.0,0.0,0.0,0.0,0.0,0.0,0.0,0.0,0.0,0.0,0.0,0.0,0.0,0.0,0.0,0.0,0.0,0.0,0.0,0.0,0.0,0.0,0.0,0.0,0.0,0.0,0.0,0.0,0.0,0.0,0.0,0.0,-3.9662,-3.9402,0.0,0.0,0.0,0.0,0.0,0.0,0.0,0.0,0.0,0.0,0.0,0.0,0.0,0.0,0.0,0.0,0.0,0.0,0.0,0.0,0.0,0.0,0.0,0.0,0.0,0.0,0.0,0.0,0.0,0.0,0.0,0.0,0.0,0.0,0.0,0.0,0.0,0.0,0.0,0.0,-3.7702,-3.9174,-4.0096,-4.0096,-4.0096,-4.0096,-4.0096,-4.0096,-3.9143,-3.6854,-3.6249,0.0,0.0,0.0,0.0,0.0,0.0,0.0,0.0,0.0,0.0,0.0,0.0,0.0,0.0,0.0,0.0,0.0,0.0,0.0,0.0,0.0,0.0,0.0,0.0,0.0,0.0,0.0,0.0,0.0,0.0,0.0,0.0,0.0,0.0,0.0,0.0,0.0,0.0,0.0,0.0,0.0,0.0,0.0,0.0,0.0,0.0,0.0,0.0,0.0,0.0,0.0,0.0,0.0,0.0,0.0,0.0,0.0,0.0,0.0,-4.0836,-4.0487,0.0,0.0,0.0,0.0,0.0,0.0,0.0,0.0,0.0,0.0,0.0,0.0,0.0,0.0,0.0,0.0,0.0,0.0,0.0,0.0,0.0,0.0,0.0,0.0,0.0,0.0,0.0,0.0,0.0,0.0,0.0,0.0,0.0,0.0,0.0,0.0,0.0,0.0,0.0,0.0,-3.7753,-3.9174,-4.0096,-4.0096,-4.0096,-3.9952,-3.9558,-3.9516,-3.8702,-3.6815,-3.5743,0.0,0.0,0.0,0.0,0.0,0.0,0.0,0.0,0.0,0.0,0.0,0.0,0.0,0.0,0.0,0.0,0.0,0.0,0.0,0.0,0.0,0.0,0.0,0.0,0.0,0.0,0.0,0.0,0.0,0.0,0.0,0.0,0.0,0.0,0.0,0.0,0.0,0.0,0.0,0.0,0.0,0.0,0.0,0.0,0.0,0.0,0.0,0.0,0.0,0.0,0.0,0.0,0.0,-4.2564,-4.2506,-4.2506,-4.2506,-4.2506,-4.247,-4.1809,-4.1425,-4.126,-4.0598,0.0,0.0,0.0,0.0,0.0,0.0,0.0,0.0,0.0,0.0,0.0,0.0,0.0,0.0,0.0,0.0,0.0,0.0,0.0,0.0,0.0,0.0,-3.8278,-3.8278,-3.8751,-3.8667,-3.6806,0.0,0.0,0.0,0.0,0.0,0.0,0.0,0.0,0.0,0.0,0.0,-3.7821,-3.9174,-4.0096,-4.0096,-3.9978,-3.961,-3.8962,-3.8772,-3.8126,-3.6759,-3.549,-3.4455,0.0,0.0,0.0,0.0,0.0,0.0,0.0,0.0,0.0,0.0,0.0,0.0,0.0,0.0,0.0,0.0,0.0,0.0,0.0,0.0,0.0,0.0,0.0,0.0,0.0,0.0,0.0,0.0,0.0,0.0,0.0,0.0,-3.6115,-3.6346,0.0,0.0,0.0,0.0,0.0,0.0,0.0,0.0,0.0,0.0,0.0,0.0,0.0,-4.2217,-4.215,-4.2229,-4.229,-4.2369,-4.3036,-4.3332,-4.3332,-4.3332,-4.3332,-4.3332,-4.3222,0.0,-4.2139,-4.2029,0.0,0.0,0.0,0.0,0.0,0.0,0.0,0.0,0.0,0.0,0.0,0.0,0.0,0.0,0.0,0.0,0.0,0.0,0.0,0.0,0.0,0.0,-3.9808,-3.9808,-3.9893,-3.9876,-3.9571,-3.8497,-3.7381,-3.6643,-3.6508,-3.6051,0.0,0.0,0.0,0.0,0.0,0.0,-3.7821,-3.9174,-4.0096,-4.0096,-3.9463,-3.9032,-3.8908,-3.8302,-3.7555,-3.6658,-3.5896,-3.515,-3.4409,-3.2359,0.0,0.0,0.0,0.0,0.0,0.0,0.0,0.0,0.0,0.0,0.0,0.0,0.0,0.0,0.0,0.0,0.0,0.0,0.0,0.0,0.0,0.0,0.0,0.0,0.0,0.0,0.0,0.0,0.0,-3.5481,-3.6885,-3.7373,-3.8546,-3.8957,0.0,0.0,0.0,0.0,0.0,0.0,0.0,0.0,0.0,-4.3739,-4.3484,-4.3398,-4.3498,-4.3554,-4.3395,-4.2983,-4.3331,-4.3515,-4.3515,-4.3515,-4.3515,-4.3515,-4.3515,-4.3313,-4.2928,-4.2488,-4.2084,-4.1735,0.0,0.0,0.0,0.0,-4.0095,-3.9321,-3.9617,-3.9123,-3.8241,-3.7628,0.0,0.0,0.0,0.0,0.0,0.0,0.0,-3.8582,-3.8903,-3.9554,-4.0096,-4.0096,-4.0096,-4.0096,-4.0096,-3.9605,-3.8903,-3.8183,-3.8048,-3.7574,-3.6051,-3.6129,0.0,0.0,0.0,-3.8142,-3.8481,-3.9051,-3.9437,-3.9437,-3.8734,-3.8104,-3.7642,-3.7306,-3.6814,-3.6038,-3.5368,-3.4848,-3.4503,-3.2931,-3.1884,0.0,0.0,0.0,0.0,0.0,0.0,0.0,0.0,0.0,0.0,0.0,0.0,0.0,0.0,0.0,0.0,0.0,0.0,0.0,0.0,0.0,0.0,0.0,0.0,0.0,0.0,0.0,0.0,-3.7212,-3.825,-3.8892,-3.9912,-4.0162,0.0,0.0,0.0,0.0,0.0,0.0,-4.3374,-4.3835,-4.4355,-4.4951,-4.4978,-4.5058,-4.5215,-4.5031,-4.4556,-4.3809,-4.3809,-4.3699,-4.3515,-4.3515,-4.3515,-4.3515,-4.3515,-4.3515,-4.346,-4.2837,-4.2598,-4.2543,-4.1956,-4.1589,-4.1425,-4.1475,-4.078,-3.9858,-4.0468,-3.9939,-3.8937,-3.8582,-3.8345,-3.7973,-3.6823,0.0,0.0,0.0,0.0,-3.9039,-3.9225,-3.9706,-4.0096,-4.0096,-4.0096,-4.0096,-4.0096,-4.0096,-3.9943,-3.9402,-3.9276,-3.8877,-3.7591,-3.7821,0.0,-3.7178,-3.8176,-3.8939,-3.8706,-3.8814,-3.8827,-3.8635,-3.7933,-3.7233,-3.663,-3.6415,-3.6086,-3.5537,-3.5026,-3.4773,-3.4773,-3.3634,-3.2781,-3.2273,0.0,0.0,0.0,0.0,0.0,0.0,0.0,0.0,0.0,0.0,0.0,0.0,0.0,0.0,0.0,0.0,0.0,0.0,0.0,0.0,0.0,0.0,0.0,0.0,0.0,0.0,0.0,0.0,0.0,-4.1596,-4.3047,0.0,0.0,0.0,0.0,-4.297,-4.372,-4.4182,-4.4239,-4.5817,-4.6731,-4.6769,-4.683,-4.6884,-4.6881,-4.6166,-4.5424,-4.4654,-4.4654,-4.425,-4.3515,-4.3515,-4.3515,-4.3515,-4.3515,-4.3515,-4.3515,-4.346,-4.3441,-4.3441,-4.3387,-4.291,-4.2272,-4.2522,-4.1731,-4.0588,-4.0819,-4.0062,-3.9106,-3.9774,-3.9537,-3.892,-3.8853,-3.8362,0.0,0.0,-3.8954,-3.9157,-3.9859,-4.0079,-4.0096,-4.0096,-4.0096,-4.0096,-4.0096,-4.0096,-4.0096,-4.0045,-4.0045,-3.9808,-3.9005,0.0,-3.8684,-3.7973,-3.8497,-3.8731,-3.7949,-3.848,-3.8635,-3.7921,-3.7144,-3.663,-3.6615,-3.5943,-3.5537,-3.5504,-3.5474,-3.5444,-3.5444,-3.4756,-3.4399,-3.4354,-3.2422,0.0,0.0,0.0,0.0,0.0,0.0,0.0,0.0,0.0,0.0,0.0,0.0,0.0,0.0,0.0,0.0,0.0,0.0,0.0,0.0,0.0,0.0,0.0,0.0,0.0,0.0,0.0,0.0,-4.2643,-4.3624,0.0,-4.2739,-4.3393,-4.3874,-4.3874,-4.5182,-4.597,-4.597,-4.7048,-4.754,-4.7289,-4.7315,-4.7089,-4.6622,-4.6343,-4.5965,-4.548,-4.548,-4.5057,-4.4268,-4.4268,-4.3993,-4.3515,-4.3515,-4.3515,-4.3515,-4.3515,-4.3515,-4.3515,-4.3515,-4.3331,-4.3042,-4.2793,-4.2143,-4.1333,-4.1023,-4.0381,-3.9757,-4.0011,-3.9926,-3.9723,-3.9723,-3.9512,-3.9385,-3.9639,-3.9723,-3.9774,-4.0028,-4.0096,-4.0096,-4.0096,-4.0096,-4.0096,-4.0096,-4.0096,-4.0096,-4.0096,-4.0096,-3.9876,-3.9123,-3.9402,-3.9278,-3.801,-3.8458,-3.8652,-3.7917,-3.7572,-3.7336,-3.707,-3.6352,-3.5894,-3.5894,-3.5636,-3.5504,-3.5504,-3.5504,-3.5504,-3.5504,-3.5265,-3.4726,-3.3858,-3.3155,-3.1839,0.0,0.0,0.0,0.0,0.0,0.0,0.0,0.0,0.0,0.0,0.0,0.0,0.0,0.0,0.0,0.0,0.0,0.0,0.0,0.0,0.0,0.0,0.0,0.0,0.0,-4.2604,-4.3508,-4.3508,-4.4239,-4.4412,-4.3585,-4.4239,-4.4855,-4.5163,-4.6259,-4.7019,-4.7298,-4.8086,-4.8345,-4.7952,-4.8092,-4.7866,-4.726,-4.7112,-4.6796,-4.6305,-4.6305,-4.5883,-4.5112,-4.5112,-4.4819,-4.4287,-4.4011,-4.3901,-4.3883,-4.3608,-4.3515,-4.3515,-4.3515,-4.3515,-4.3427,-4.2902,-4.2322,-4.1686,-4.0897,-4.0392,-4.0096,-4.0096,-4.0096,-4.0096,-4.0096,-4.0096,-4.0096,-4.0096,-4.0096,-4.0096,-4.0096,-4.0096,-4.0096,-4.0096,-4.0096,-4.0096,-4.0096,-4.0096,-4.002,-3.9756,-3.9927,-3.9868,-3.9093,-3.9607,-3.958,-3.8014,-3.8422,-3.8553,-3.7528,-3.6934,-3.6492,-3.6244,-3.5782,-3.5504,-3.5504,-3.5504,-3.5504,-3.5504,-3.5504,-3.5504,-3.5504,-3.528,-3.4741,-3.3844,-3.338,-3.2302,-3.0567,0.0,0.0,0.0,0.0,0.0,0.0,0.0,0.0,0.0,0.0,0.0,0.0,0.0,0.0,0.0,0.0,0.0,0.0,0.0,0.0,0.0,0.0,0.0,-4.3143,-4.3835,-4.4335,-4.4335,-4.5094,-4.5267,-4.4412,-4.5094,-4.5951,-4.6827,-4.6923,-4.7298,-4.8105,-4.8971,-4.9246,-4.8829,-4.9257,-4.9295,-4.888,-4.8495,-4.7901,-4.7131,-4.7131,-4.6709,-4.5938,-4.5938,-4.592,-4.5865,-4.5057,-4.4691,-4.4654,-4.3828,-4.3515,-4.3515,-4.3515,-4.3515,-4.3427,-4.2883,-4.2282,-4.1595,-4.049,-4.0096,-4.0096,-4.0096,-4.0096,-4.0096,-4.0096,-4.0096,-4.0096,-4.0096,-4.0096,-4.0096,-4.0096,-4.0096,-4.0096,-4.0096,-4.0096,-4.0096,-4.0096,-4.007,-3.9833,-3.9059,-3.9516,-3.9782,-3.8989,-3.9516,-3.9506,-3.7978,-3.8358,0.0,-3.6752,-3.6584,-3.6275,-3.5587,-3.5504,-3.5504,-3.5504,-3.5504,-3.5504,-3.5504,-3.5504,-3.5504,-3.5504,-3.4861,-3.4533,-3.4533,-3.32,-3.2497,-3.2542,0.0,0.0,0.0,0.0,0.0,0.0,0.0,0.0,0.0,0.0,0.0,0.0,0.0,0.0,0.0,0.0,0.0,0.0,0.0,0.0,0.0,-4.2806,-4.397,-4.397,-4.4701,-4.5248,-4.5248,-4.546,-4.5518,-4.5267,-4.546,-4.5951,-4.6827,-4.7451,-4.8144,-4.899,-4.9875,-5.0024,-4.9319,-4.9433,-4.9174,-4.8458,-4.8345,-4.8196,-4.7957,-4.7957,-4.7535,-4.6764,-4.6764,-4.6452,-4.5865,-4.5057,-4.4691,-4.4654,-4.3828,-4.3515,-4.3515,-4.3515,-4.3515,-4.3374,-4.2404,-4.142,-4.0514,-4.0204,-4.0096,-4.0096,-4.0096,-4.0096,-4.0096,-4.0096,-4.0096,-4.0096,-4.0096,-4.0096,-4.0096,-4.0096,-4.0096,-4.0096,-4.0096,-4.0096,-4.0096,-4.0096,-3.9636,-3.9166,-3.8935,-3.8652,-3.8374,-3.8149,-3.829,-3.8076,-3.7084,-3.7098,-3.6873,-3.5926,-3.5814,-3.5718,-3.5537,-3.5504,-3.5504,-3.5504,-3.5504,-3.5504,-3.5504,-3.5504,-3.5504,-3.5504,-3.5325,-3.522,-3.522,-3.344,-3.2751,0.0,0.0,0.0,0.0,0.0,0.0,0.0,0.0,0.0,0.0,0.0,0.0,0.0,0.0,0.0,0.0,0.0,0.0,0.0,0.0,0.0,0.0,-4.3892,-4.4905,-4.4853,-4.5287,-4.5594,-4.5594,-4.5594,-4.5594,-4.5594,-4.5932,-4.649,-4.7336,-4.8163,-4.9029,-4.9894,-5.0423,-5.041,-4.9773,-4.9594,-4.928,-4.8796,-4.8477,-4.8364,-4.855,-4.8383,-4.8067,-4.759,-4.759,-4.7352,-4.6838,-4.57,-4.5204,-4.5112,-4.3956,-4.3515,-4.3515,0.0,0.0,0.0,0.0,-4.0868,-4.0096,-4.0096,-4.0096,-4.0096,-4.0096,-4.0096,-4.0096,-4.0096,-4.0096,-4.0096,-4.0096,-4.0096,-4.0096,-4.0096,-4.0096,-4.0096,-4.0096,-4.0096,-4.0096,-4.0096,-3.9731,-3.9209,-3.8553,-3.8092,0.0,-3.6951,-3.7383,-3.7427,-3.6321,-3.6384,-3.6322,-3.5587,-3.5504,-3.5504,-3.5504,-3.5504,-3.5504,-3.5504,-3.5504,0.0,0.0,0.0,-3.537,-3.5085,-3.507,0.0,0.0,0.0,0.0,0.0,0.0,0.0,0.0,-3.3469,-3.3589,0.0,0.0,0.0,0.0,0.0,0.0,0.0,0.0,0.0,0.0,0.0,0.0,0.0,0.0,0.0,0.0,-4.4819,-4.5761,-4.5643,-4.5612,-4.5594,-4.5594,-4.5594,-4.5633,-4.5748,-4.6451,-4.7269,-4.8182,-4.8952,-4.9779,-5.0654,-5.0712,0.0,0.0,0.0,-4.9566,-4.9489,-4.8745,-4.855,-4.8897,-4.8495,-4.8306,-4.8306,-4.8306,-4.8306,-4.8214,-4.6599,-4.5902,-4.5773,-4.4158,-4.3515,-4.3515,-4.3515,-4.3124,-4.248,-4.1402,-4.0625,-4.0096,-4.0096,0.0,0.0,-4.0096,-4.0096,-4.0096,-4.0096,-4.0096,-4.0096,-4.0096,-4.0096,-4.0096,-4.0096,-4.0096,-4.0096,-4.0096,-4.0096,-4.0087,-3.9978,-3.9901,-3.9428,-3.795,-3.7602,-3.7101,-3.5733,-3.6631,-3.7071,-3.5716,-3.6054,-3.6259,-3.5587,-3.5504,-3.5504,-3.5504,-3.5504,0.0,-3.5504,-3.5504,-3.5504,-3.5504,-3.5504,-3.5235,-3.4653,-3.4623,-3.4623,-3.4623,-3.4623,-3.4923,-3.5504,-3.5504,-3.5504,-3.5459,-3.3679,-3.3484,0.0,0.0,0.0,0.0,0.0,0.0,0.0,0.0,0.0,0.0,0.0,0.0,0.0,0.0,0.0,-4.4392,-4.5235,-4.579,-4.5756,-4.5665,-4.5594,-4.5594,-4.5594,-4.5883,-4.6586,-4.6797,-4.7528,-4.9048,-4.9298,-4.9779,-5.0654,-5.0712,-5.0523,-5.0104,-5.0012,-4.9827,-4.9504,-4.9011,-4.8812,-4.8897,-4.8495,0.0,-4.8306,-4.8306,-4.8306,-4.8214,-4.6599,-4.5902,-4.5773,-4.4158,-4.3515,-4.3515,-4.3515,-4.2866,-4.1937,-4.1707,-4.0984,-4.0096,-4.0096,-4.0096,-4.0096,-4.0096,-4.0096,-4.0096,-4.0096,-4.0096,0.0,-4.0096,-4.0096,-4.0096,-4.0096,-4.0096,-4.0096,-4.0096,-4.0096,-3.9927,-3.9289,-3.8663,-3.7962,-3.7024,-3.6352,-3.5861,-3.5569,-3.5733,-3.5861,-3.5537,-3.5619,-3.5668,-3.5537,-3.5504,-3.5504,-3.5504,-3.5504,-3.5504,-3.5504,-3.5504,-3.5504,-3.5504,-3.5504,-3.5444,-3.531,-3.531,-3.531,-3.531,-3.531,-3.537,-3.5504,-3.5504,-3.5504,-3.5489,-3.5115,-3.507,0.0,0.0,0.0,0.0,0.0,0.0,0.0,0.0,0.0,0.0,0.0,-4.168,-4.3398,0.0,-4.4554,-4.5332,-4.5732,-4.5915,-4.5803,-4.574,-4.568,-4.5603,-4.5594,-4.5932,-4.6817,-4.725,-4.8029,-4.9298,-4.9798,-5.025,-5.0673,-5.0712,-5.0604,-5.041,-5.0195,-4.9999,-4.98,-4.9401,-4.9092,-4.8897,-4.8692,-4.8495,-4.8306,-4.8306,-4.8306,-4.8214,-4.6599,-4.5902,-4.5773,-4.4158,-4.3515,-4.3515,-4.3515,-4.2791,-4.175,-4.1468,-4.0821,-4.0096,-4.0096,-4.0096,-4.0096,-4.0096,-4.0096,-4.0096,-4.0096,-4.0096,-4.0096,-4.0096,-4.0096,-4.0096,-4.0096,-4.0096,-4.0096,-4.0096,-4.0096,-3.9876,-3.9086,-3.8608,-3.8003,-3.6843,-3.6306,-3.5911,-3.5554,-3.5504,-3.5504,-3.5504,-3.5504,-3.5504,-3.5504,-3.5504,-3.5504,-3.5504,-3.5504,-3.5504,-3.5504,-3.5504,-3.5504,-3.5504,-3.5504,-3.5504,-3.5504,-3.5504,-3.5504,-3.5504,-3.5504,-3.5504,-3.5504,-3.5504,-3.5504,-3.5504,-3.5504,-3.5504,0.0,0.0,0.0,0.0,0.0,0.0,0.0,-3.9023,-4.0449,-4.1465,-4.2344,-4.3398,-4.4961,-4.5254,-4.5448,-4.6032,-4.6117,-4.603,-4.5889,-4.5821,-4.5768,-4.564,-4.562,-4.599,-4.7028,-4.7721,-4.8529,-4.9567,-5.0308,-5.0712,-5.0712,-5.0712,-5.0712,-5.0712,-5.0399,-5.0225,-5.0225,-4.9813,-4.9416,-4.9029,-4.8947,-4.8692,-4.8306,-4.8306,-4.8214,-4.7994,-4.6379,-4.5571,-4.5333,-4.403,-4.3515,-4.3515,-4.3515,-4.2791,-4.1729,-4.1251,-4.0672,-4.0096,-4.0096,-4.0096,-4.0096,-4.0096,-4.0096,-4.0096,-4.0096,-4.0096,-4.0096,-4.0096,-4.0096,-4.0096,-4.0096,-4.0096,-4.0096,-4.0096,-4.0096,-3.9876,-3.9086,-3.8799,-3.8286,-3.6858,-3.6461,-3.6196,-3.5619,-3.5504,-3.5504,-3.5504,-3.5504,-3.5504,-3.5504,-3.5504,-3.5504,-3.5504,-3.5504,-3.5504,-3.5504,-3.5504,-3.5504,-3.5504,-3.5504,-3.5504,-3.5504,-3.5504,-3.5504,-3.5504,-3.5504,-3.5504,-3.5504,-3.5504,-3.5504,-3.5504,-3.5504,-3.5392,-3.3047,-3.3828,-3.4648,-3.5605,-3.6582,-3.7715,0.0,-4.0351,-4.1504,-4.3086,-4.4101,-4.5019,-4.5976,-4.6152,-4.6172,-4.6269,-4.6175,-4.6084,-4.6069,-4.5911,-4.579,-4.5769,-4.5673,-4.622,-4.7817,-4.8048,-4.8779,-5.0442,-5.0635,-5.0712,-5.0712,-5.0712,-5.0712,-5.0712,-5.0663,-5.0624,-5.0624,-5.0237,-4.9827,-4.9431,-4.9059,-4.8692,-4.8306,-4.8306,-4.7901,-4.7131,-4.5517,-4.4433,-4.3736,-4.357,-4.3515,-4.3515,-4.3515,-4.2791,-4.1789,-4.1707,-4.103,-4.0096,-4.0096,-4.0096,-4.0096,-4.0096,-4.0096,-4.0096,-4.0096,-4.0096,-4.0096,-4.0096,-4.0096,-4.0096,-4.0096,-4.0096,-4.0096,-4.0096,-4.0096,-3.9876,-3.9086,-3.8402,-3.7645,-3.6752,-3.6054,-3.5587,-3.5504,-3.5504,-3.5504,-3.5504,-3.5504,-3.5504,-3.5504,-3.5504,-3.5504,-3.5504,-3.5504,-3.5504,-3.5504,-3.5504,-3.5504,-3.5504,-3.5504,-3.5504,-3.5504,-3.5504,-3.5504,-3.5504,-3.5504,-3.5504,-3.5504,-3.5504,-3.5504,-3.5504,-3.5504,-3.5019,-3.3652,-3.5527,-3.6934,-3.6797,-3.8164,-3.9629,-3.9844,-4.0937,-4.2246,-4.3457,-4.4394,-4.5273,-4.6133,-4.6308,-4.6465,-4.6973,-4.658,-4.6373,-4.6798,-4.6349,-4.5942,-4.5871,-4.6196,-4.6857,-4.798,-4.8567,-4.9375,-5.0616,-5.0712,-5.0712,-5.0712,-5.0712,-5.0712,-5.0712,-5.0712,-5.0594,-5.0347,-5.0183,-4.9787,-4.9139,-4.8996,-4.8692,-4.8288,-4.781,-4.6911,-4.5663,-4.4984,-4.425,-4.3515,-4.3515,-4.3515,-4.3462,-4.316,-4.2541,-4.181,-4.181,-4.1076,-4.0096,-4.0096,-4.0096,-4.0096,-4.0096,-4.0096,-4.0096,-4.0096,-4.0096,-4.0096,-4.0096,-4.0096,-4.0096,-4.0096,-4.0096,-4.0096,-4.0096,-4.0096,-3.9876,-3.9086,-3.8663,-3.806,-3.6843,-3.6353,-3.6006,-3.5554,-3.5504,-3.5504,-3.5504,-3.5504,-3.5504,-3.5504,-3.5504,-3.5504,-3.5504,-3.5504,-3.5504,-3.5504,-3.5504,-3.5504,-3.5504,-3.5504,-3.5504,-3.5504,-3.5504,-3.5504,-3.5504,-3.5504,-3.5504,-3.5504,-3.5504,-3.5504,-3.5504,-3.4905,-3.4109,-3.4451,-3.6425,-3.7851,-3.7695,-3.9082,-4.0449,-4.0293,-4.1367,-4.2656,-4.3516,-4.4394,-4.5273,-4.6133,-4.6308,-4.6582,-4.7461,-4.707,-4.6854,-4.7385,-4.688,-4.6423,-4.6325,-4.6964,-4.7706,-4.8441,-4.9047,-4.976,-5.0635,-5.0712,-5.0712,-5.0712,-5.0712,-5.0712,-5.0712,-5.0712,-5.0554,-5.0272,-5.026,-4.9853,-4.9059,-4.9059,-4.8684,-4.792,-4.6911,-4.5792,-4.469,-4.447,-4.403,-4.3515,-4.3515,-4.3515,-4.3462,-4.3069,-4.2462,-4.181,-4.181,-4.1076,-4.0096,-4.0096,-4.0096,-4.0096,-4.0096,-4.0096,-4.0096,-4.0096,-4.0096,-4.0096,-4.0096,-4.0096,-4.0096,-4.0096,-4.0096,-4.0096,-4.0096,-4.0096,-3.9927,-3.9342,-3.9059,-3.8509,-3.7203,-3.6752,-3.6368,-3.5651,-3.5504,-3.5504,-3.5504,-3.5504,-3.5504,-3.5504,-3.5504,-3.5504,-3.5504,-3.5504,-3.5504,-3.5504,-3.5504,-3.5504,-3.5504,-3.5504,-3.5504,-3.5504,-3.5504,-3.5504,-3.5504,-3.5504,-3.5504,-3.5504,-3.5504,-3.5504,-3.5472,-3.4461,-3.3484,-3.5612,-3.5968,-3.6484,-3.8144,-3.8613,-3.9101,-4.0781,-4.1797,-4.2656,-4.3516,-4.4394,-4.5273,-4.6133,-4.6308,-4.6582,-4.7461,-4.7578,-4.7578,-4.7598,-4.7465,-4.7359,-4.7357,-4.8008,-4.8743,-4.9489,-4.9461,-4.976,-5.0635,-5.0712,-5.0712,-5.0712,-5.0712,-5.0712,-5.0712,-5.0712,-5.0683,-5.0673,-5.0673,-5.0272,-4.9475,-4.9475,-4.8667,-4.7076,-4.5498,-4.4746,-4.4672,-4.3883,-4.3533,-4.3515,-4.3515,-4.3515,-4.3515,-4.3479,-4.2791,-4.181,-4.181,-4.1076,-4.0096,-4.0096,-4.0096,-4.0096,-4.0096,-4.0096,-4.0096,-4.0096,-4.0096,-4.0096,-4.0096,-4.0096,-4.0096,-4.0096,-4.0096,-4.0096,-4.0096,-4.0096,-4.0096,-4.007,-3.9463,-3.8663,-3.7921,-3.7114,-3.6368,-3.5651,-3.5504,-3.5504,-3.5504,-3.5504,-3.5504,-3.5504,-3.5504,-3.5504,-3.5504,-3.5504,-3.5504,-3.5504,-3.5504,-3.5504,-3.5504,-3.5504,-3.5504,-3.5504,-3.5504,-3.5504,-3.5504,-3.5504,-3.5504,-3.5504,-3.5504,-3.5504,-3.5472,-3.4461,-3.3484,-3.4797,-3.593,-3.6992,-3.7598,-3.8613,-3.9629,-4.0195,-4.0996,-4.1836,-4.2676,-4.3066,-4.3711,-4.5176,-4.5449,-4.6094,-4.8125,-4.7988,-4.8008,-4.916,-4.8788,-4.8393,-4.8393,-4.9042,-4.9591,-4.9831,-5.0183,-5.0471,-5.0683,-5.0712,-5.0712,-5.0712,-5.0712,-5.0712,-5.0712,-5.0712,-5.0712,-5.0712,-5.0451,-5.0031,-4.9489,-4.8422,-4.733,-4.6269,-4.5204,-4.4415,-4.3883,-4.3608,-4.3515,-4.3515,-4.3515,-4.3515,-4.3462,-4.3124,-4.2501,-4.175,-4.1358,-4.0726,-4.0096,-4.0096,-4.0096,-4.0096,-4.0096,-4.0096,-4.0096,-4.0096,-4.0096,-4.0096,-4.0096,-4.0096,-4.0096,-4.0096,-4.0096,-4.0096,-4.0096,-4.0096,-4.0096,-4.0096,-3.9901,-3.9332,-3.8035,-3.7573,-3.6995,-3.5701,-3.5504,-3.5504,-3.5504,-3.5504,-3.5504,-3.5504,-3.5504,-3.5504,-3.5504,-3.5504,-3.5504,-3.5504,-3.5504,-3.5504,-3.5504,-3.5504,-3.5504,-3.5504,-3.5504,-3.5504,-3.5504,-3.5504,-3.5504,-3.5504,-3.5504,-3.5504,-3.5472,-3.3822,-3.289,-3.4812,-3.593,-3.6914,-3.7226,-3.8144,-3.9121,-3.9766,-4.0332,-4.1055,-4.2168,-4.2402,-4.293,-4.4687,-4.5,-4.5859,-4.8476,-4.8437,-4.8555,-5.0,-4.9726,-4.9355,-4.9355,-5.0032,-5.06,-5.0872,-5.1233,-5.1276,-5.081,-5.0991,-5.0991,-5.0731,-5.0712,-5.0712,-5.0712,-5.0712,-5.0712,-5.0712,-5.0432,-4.9903,-4.9051,-4.7582,-4.6377,-4.5443,-4.4635,-4.3993,-4.3515,-4.3515,-4.3515,-4.3515,-4.3515,-4.3515,-4.348,-4.3124,-4.2637,-4.2059,-4.1446,-4.0868,-4.0343,-4.0171,-4.0096,-4.0096,-4.0096,-4.0096,-4.0096,-4.0096,-4.0096,-4.0096,-4.0096,-4.0096,-4.0096,-4.0096,-4.0096,-4.0096,-4.0096,-4.0096,-4.002,-3.9731,-3.9662,-3.9209,-3.7674,-3.7368,-3.6965,-3.5701,-3.5504,-3.5504,-3.5504,-3.5504,-3.5504,-3.5504,-3.5504,-3.5504,-3.5504,-3.5504,-3.5504,-3.5504,-3.5504,-3.5504,-3.5504,-3.5504,-3.5504,-3.5504,-3.5504,-3.5504,-3.5504,-3.5504,-3.5504,-3.5504,-3.5504,-3.5326,-3.492,-3.3359,-3.2429,-3.5598,-3.5908,-3.6191,-3.7031,-3.7305,-3.7793,-3.9453,-3.9902,-4.043,-4.2012,-4.2363,-4.293,-4.4629,-4.5019,-4.5918,-4.8476,-4.8945,-4.9277,-5.0137,-5.0254,-5.0254,-5.0254,-5.0937,-5.1696,-5.2444,-5.2494,-5.2076,-5.1048,-5.1515,-5.1501,-5.075,-5.0712,-5.0712,-5.0712,-5.0712,-5.0712,-5.0712,-5.0673,-4.9881,-4.8343,-4.7098,-4.589,-4.4728,-4.3883,-4.3515,-4.3515,-4.3515,-4.3515,-4.3515,-4.3515,-4.3515,-4.3515,-4.3515,-4.3178,-4.2616,-4.2021,-4.1424,-4.081,-4.0286,-4.0096,-4.0096,-4.0096,-4.0096,-4.0096,-4.0096,-4.0096,-4.0096,-4.0096,-4.0096,-4.0096,-4.0096,-4.0096,-4.0096,-4.0096,-4.0096,-3.9901,-3.9139,-3.8935,-3.8453,-3.6948,-3.6615,-3.6337,-3.5619,-3.5504,-3.5504,-3.5504,-3.5504,-3.5504,-3.5504,-3.5504,-3.5504,-3.5504,-3.5504,-3.5504,-3.5504,-3.5504,-3.5504,-3.5504,-3.5504,-3.5504,-3.5504,-3.5504,-3.5504,-3.5504,-3.5504,-3.5504,-3.5504,-3.5504,-3.4986,-3.3993,-3.3031,-3.2105,-3.4872,-3.5442,-3.6055,-3.6289,-3.7305,-3.8379,-3.8828,-3.9941,-4.0996,-4.1426,-4.1973,-4.2734,-4.3828,-4.5098,-4.6601,-4.8574,-4.9433,-5.0156,-5.0976,-5.1094,-5.1094,-5.1094,-5.1289,-5.1738,-5.2575,-5.2552,-5.2347,-5.1972,-5.1448,-5.1029,-5.0721,-5.0712,-5.0712,-5.0712,-5.0712,-5.0712,-5.0712,-5.041,-4.9904,-4.9164,-4.7364,-4.6186,-4.5553,-4.414,-4.3515,-4.3515,-4.3515,-4.3515,-4.3515,-4.3515,-4.3515,-4.3515,-4.3515,-4.3178,-4.2616,-4.2021,-4.1424,-4.081,-4.0286,-4.0096,-4.0096,-4.0096,-4.0096,-4.0096,-4.0096,-4.0096,-4.0096,-4.0096,-4.0096,-4.0096,-4.0096,-4.0096,-4.0096,-4.0096,-4.0096,-4.0045,-3.9833,-3.9315,-3.8635,-3.7674,-3.6569,-3.5733,-3.5537,-3.5504,-3.5504,-3.5504,-3.5504,-3.5504,-3.5504,-3.5504,-3.5504,-3.5504,-3.5504,-3.5504,-3.5504,-3.5504,-3.5504,-3.5504,-3.5504,-3.5504,-3.5504,-3.5504,-3.5504,-3.5504,-3.5504,-3.5504,-3.5504,-3.5504,-3.4986,-3.3993,-3.3031,-3.2105,-3.5205,-3.5603,-3.6094,-3.6465,-3.7305,-3.8223,-3.9004,-3.9922,-4.0742,-4.1113,-4.1836,-4.2676,-4.3535,-4.4805,-4.6426,-4.8555,-4.9316,-5.0039,-5.123,-5.1406,-5.1406,-5.1406,-5.1738,-5.2168,-5.2656,-5.263,-5.252,-5.2391,-5.1792,-5.1203,-5.0721,-5.0712,-5.0712,-5.0712,-5.0712,-5.0712,-5.0712,-5.0089,-4.9415,-4.8655,-4.6996,-4.5808,-4.5023,-4.3986,-4.3515,-4.3515,-4.3515,-4.3515,-4.3515,-4.3515,-4.3515,-4.3515,-4.3515,-4.3322,-4.2976,-4.2402,-4.1793,-4.1223,-4.0648,-4.0286,-4.0096,-4.0096,-4.0096,-4.0096,-4.0096,-4.0096,-4.0096,-4.0096,-4.0096,-4.0096,-4.0096,-4.0096,-4.0096,-4.0096,-4.0096,-3.9901,-3.9226,-3.8734,-3.8104,-3.7011,-3.6085,-3.5504,-3.5504,-3.5504,-3.5504,-3.5504,-3.5504,-3.5504,-3.5504,-3.5504,-3.5504,-3.5504,-3.5504,-3.5504,-3.5504,-3.5504,-3.5504,-3.5504,-3.5504,-3.5504,-3.5504,-3.5504,-3.5504,-3.5504,-3.5504,-3.5504,-3.5504,-3.5504,-3.4773,-3.338,-3.2855,-3.1865,-3.5976,-3.5996,-3.6211,-3.707,-3.7383,-3.7891,-3.9531,-3.998,-4.0293,-4.1035,-4.1933,-4.2793,-4.3555,-4.4609,-4.6133,-4.8516,-4.9004,-4.9629,-5.1172,-5.1406,-5.1406,-5.1406,-5.207,-5.2578,-5.2695,-5.2598,-5.2516,-5.2498,-5.2172,-5.1591,-5.0769,-5.0712,-5.0654,-5.0539,-5.0539,-5.0481,-5.0366,-4.9606,-4.8681,-4.7579,-4.638,-4.5233,-4.4135,-4.3701,-4.3515,-4.3515,-4.3515,-4.3515,-4.3515,-4.3515,-4.3515,-4.3515,-4.3515,-4.3515,-4.3427,-4.2902,-4.2322,-4.1707,-4.111,-4.0552,-4.0096,-4.0096,-4.0096,-4.0096,-4.0096,-4.0096,-4.0096,-4.0096,-4.0096,-4.0096,-4.0096,-4.0096,-4.0096,-4.0096,-4.0096,-3.9731,-3.8402,-3.7921,-3.7354,-3.5797,-3.5504,-3.5504,-3.5504,-3.5504,-3.5504,-3.5504,-3.5504,-3.5504,-3.5504,-3.5504,-3.5504,-3.5504,-3.5504,-3.5504,-3.5504,-3.5504,-3.5504,-3.5504,-3.5504,-3.5504,-3.5504,-3.5504,-3.5504,-3.5504,-3.5504,-3.5504,-3.5504,-3.5359,-3.4375,-3.2593,-3.2464,-3.1476,-3.5996,-3.5996,-3.6211,-3.707,-3.7832,-3.8633,-3.9668,-4.0469,-4.1016,-4.1172,-4.2402,-4.3516,-4.3672,-4.5586,-4.7539,-4.8711,-4.9492,-5.0312,-5.1269,-5.1406,-5.1406,-5.1406,-5.1523,-5.1914,-5.2637,-5.2051,-5.1871,-5.2459,-5.1747,-5.1145,-5.089,-5.0766,-5.0366,-4.9644,-4.9625,-4.9279,-4.8567,-4.8394,-4.8047,-4.7495,-4.6354,-4.5533,-4.4954,-4.3976,-4.3515,-4.3515,-4.3515,-4.3515,-4.3515,-4.3515,-4.3515,-4.3515,-4.3515,-4.3515,-4.3427,-4.2902,-4.2322,-4.1707,-4.111,-4.0552,-4.0096,-4.0096,-4.0096,-4.0096,-4.0096,-4.0096,-4.0096,-4.0096,-4.0096,-4.0096,-4.0096,-4.0096,-4.0096,-4.0096,-4.0096,-4.002,-3.9756,-3.8695,-3.7354,-3.5797,-3.5504,-3.5504,-3.5504,-3.5504,-3.5504,-3.5504,-3.5504,-3.5504,-3.5504,-3.5504,-3.5504,-3.5504,-3.5504,-3.5504,-3.5504,-3.5504,-3.5504,-3.5504,-3.5504,-3.5504,-3.5504,-3.5504,-3.5504,-3.5504,-3.5504,-3.5504,-3.5504,-3.4658,-3.3671,-3.2558,-3.1815,-3.0833,-3.5996,-3.5996,-3.6328,-3.7656,-3.8281,-3.8945,-4.0273,-4.0898,-4.1191,-4.1191,-4.2539,-4.3691,-4.3691,-4.5469,-4.7207,-4.8086,-4.8574,-4.9297,-5.0586,-5.0781,-5.0937,-5.1348,-5.1406,-5.1562,-5.1973,-5.1641,-5.1542,-5.1904,-5.1444,-5.1089,-5.0903,-5.034,-4.9817,-4.9413,-4.8952,-4.8529,-4.8105,-4.7682,-4.7386,-4.716,-4.6001,-4.5237,-4.4871,-4.4095,-4.3679,-4.3515,-4.3515,-4.3515,-4.3515,-4.3515,-4.3515,-4.3515,-4.3515,-4.3515,-4.3462,-4.3214,-4.256,-4.175,-4.1468,-4.0797,-4.0096,-4.0096,-4.0096,-4.0096,-4.0096,-4.0096,-4.0096,-4.0096,-4.0096,-4.0096,-4.0096,-4.0096,-4.0096,-4.0096,-3.9782,-3.9489,-3.9489,-3.8258,-3.695,-3.6228,-3.575,-3.5504,-3.5504,-3.5504,-3.5504,-3.5504,-3.5504,-3.5504,-3.5504,-3.5504,-3.5504,-3.5504,-3.5504,-3.5504,-3.5504,-3.5504,-3.5504,-3.5504,-3.5504,-3.5504,-3.5504,-3.5504,-3.5504,-3.5504,-3.5504,-3.5504,-3.5504,-3.4495,-3.3518,-3.2558,-3.1646,-3.0696,-3.5996,-3.5996,-3.6426,-3.8164,-3.8594,-3.9062,-4.0801,-4.1191,-4.1191,-4.1191,-4.2539,-4.3691,-4.3691,-4.5117,-4.6582,-4.7461,-4.7598,-4.8203,-4.9941,-5.0195,-5.0508,-5.1308,-5.1406,-5.1406,-5.1406,-5.1406,-5.1406,-5.1406,-5.1088,-5.0813,-5.0639,-4.9839,-4.924,-4.8875,-4.8202,-4.7759,-4.7567,-4.6951,-4.6624,-4.6615,-4.5597,-4.4954,-4.4682,-4.4219,-4.3849,-4.3614,-4.3531,-4.3515,-4.3515,-4.3515,-4.3515,-4.3515,-4.3515,-4.3515,-4.3515,-4.3515,-4.2772,-4.181,-4.181,-4.1053,-4.0096,-4.0096,-4.0096,-4.0096,-4.0096,-4.0096,-4.0096,-4.0096,-4.0096,-4.0096,-4.0096,-4.0096,-4.0096,-4.0096,-3.961,-3.9059,-3.8745,-3.7716,-3.6768,-3.6415,-3.5894,-3.5504,-3.5504,-3.5504,-3.5504,-3.5504,-3.5504,-3.5504,-3.5504,-3.5504,-3.5504,-3.5504,-3.5504,-3.5504,-3.5504,-3.5504,-3.5504,-3.5504,-3.5504,-3.5504,-3.5504,-3.5504,-3.5504,-3.5504,-3.5504,-3.5504,-3.5504,-3.4495,-3.3636,-3.289,-3.1742,-3.0796,-3.5996,-3.5996,-3.6426,-3.8164,-3.8594,-3.9062,-4.0801,-4.1191,-4.1191,-4.1191,-4.2539,-4.3691,-4.3691,-4.5117,-4.6582,-4.7461,-4.7598,-4.8203,-4.9941,-5.0195,-5.0508,-5.1308,-5.1406,-5.1406,-5.1406,-5.1406,-5.1406,-5.1406,-5.0486,-4.9872,-4.9722,-4.953,-4.8702,-4.7182,-4.7038,-4.6624,-4.5845,-4.5768,-4.5729,-4.5701,-4.5291,-4.5085,-4.5041,-4.4313,-4.3967,-4.394,-4.3629,-4.3515,-4.3515,-4.3515,-4.3515,-4.3515,-4.3515,-4.3515,-4.3515,-4.3515,-4.2772,-4.181,-4.181,-4.1053,-4.0096,-4.0096,-4.0096,-4.0096,-4.0096,-4.0096,-4.0096,-4.0096,-4.0096,-4.0096,-4.0096,-4.0096,-4.0096,-4.0096,-4.0045,-3.961,-3.8206,-3.7777,-3.7294,-3.5878,-3.5569,-3.5504,-3.5504,-3.5504,-3.5504,-3.5504,-3.5504,-3.5504,-3.5504,-3.5504,-3.5504,-3.5504,-3.5504,-3.5504,-3.5504,-3.5504,-3.5504,-3.5504,-3.5504,-3.5504,-3.5504,-3.5504,-3.5504,-3.5504,-3.5504,-3.5504,-3.5504,-3.4495,-3.3959,-3.3842,-3.2033,-3.1143,-3.5996,-3.5996,-3.6426,-3.8164,-3.8594,-3.9062,-4.0801,-4.1191,-4.1191,-4.1191,-4.2539,-4.3691,-4.3691,-4.5117,-4.6406,-4.6758,-4.6816,-4.7246,-4.8457,-4.9082,-4.9726,-5.0586,-5.1113,-5.1406,-5.1406,-5.0957,-5.0469,-4.9922,-4.9346,-4.8764,-4.8183,-4.8002,-4.7586,-4.6923,-4.6394,-4.5951,-4.5594,-4.5594,-4.5594,-4.5594,-4.5457,-4.5201,-4.48,-4.4501,-4.4121,-4.3693,-4.3565,-4.3515,-4.3515,-4.3515,-4.3515,-4.3515,-4.3515,-4.3515,-4.3515,-4.3515,-4.2772,-4.181,-4.181,-4.1053,-4.0096,-4.0096,-4.0096,-4.0096,-4.0096,-4.0096,-4.0096,-4.0096,-4.0096,-4.0096,-4.0096,-4.0096,-4.0096,-4.0096,-4.0096,-3.9927,-3.9322,-3.8474,-3.7618,-3.7011,-3.6148,-3.5504,-3.5504,-3.5504,-3.5504,-3.5504,-3.5504,-3.5504,-3.5504,-3.5504,-3.5504,-3.5504,-3.5504,-3.5504,-3.5504,-3.5504,-3.5504,-3.5504,-3.5504,-3.5504,-3.5504,-3.5504,-3.5504,-3.5504,-3.5504,-3.5213,-3.4576,-3.3636,-3.289,-3.2285,-3.0983,-3.0343,-3.5996,-3.6191,-3.6738,-3.8223,-3.8789,-3.9375,-4.0859,-4.1191,-4.1269,-4.1504,-4.2695,-4.3789,-4.4043,-4.5293,-4.6308,-4.6308,-4.6308,-4.6601,-4.748,-4.8359,-4.9219,-5.0098,-5.0918,-5.1308,-5.1074,-5.0293,-4.9453,-4.8574,-4.8309,-4.779,-4.6861,-4.6667,-4.656,-4.6528,-4.5913,-4.5594,-4.5594,-4.5594,-4.5594,-4.5594,-4.5594,-4.5293,-4.4732,-4.465,-4.4252,-4.3646,-4.3548,-4.3515,-4.3515,-4.3515,-4.3515,-4.3515,-4.3515,-4.3515,-4.3515,-4.3515,-4.2884,-4.208,-4.208,-4.1308,-4.0336,-4.0336,-4.0229,-4.0096,-4.0096,-4.0096,-4.0096,-4.0096,-4.0096,-4.0096,-4.0096,-4.0096,-4.0096,-4.0096,-4.0096,-3.9995,-3.9506,-3.8585,-3.7677,-3.7205,-3.6227,-3.5504,-3.5504,-3.5504,-3.5504,-3.5504,-3.5504,-3.5504,-3.5504,-3.5504,-3.5504,-3.5504,-3.5504,-3.5504,-3.5504,-3.5504,-3.5504,-3.5504,-3.5504,-3.5504,-3.5504,-3.5504,-3.5504,-3.5504,-3.5504,-3.5133,-3.4428,-3.3788,-3.2961,-3.1997,-3.1057,-3.0317,-3.5996,-3.6621,-3.75,-3.8379,-3.9258,-4.0117,-4.0996,-4.1191,-4.1426,-4.2226,-4.3086,-4.3965,-4.4824,-4.5703,-4.6308,-4.6308,-4.6308,-4.6601,-4.748,-4.8359,-4.9219,-5.0098,-5.0918,-5.1094,-5.0293,-4.9414,-4.8555,-4.7676,-4.7484,-4.6978,-4.5966,-4.585,-4.5752,-4.5622,-4.5594,-4.5594,-4.5594,-4.5594,-4.5594,-4.5594,-4.5594,-4.5419,-4.5085,-4.4745,-4.4392,-4.3986,-4.3646,-4.3515,-4.3515,-4.3515,-4.3515,-4.3515,-4.3515,-4.3515,-4.3515,-4.3515,-4.316,-4.2692,-4.2692,-4.1895,-4.088,-4.088,-4.0528,-4.0096,-4.0096,-4.0096,-4.0096,-4.0096,-4.0096,-4.0096,-4.0096,-4.0096,-4.0096,-4.0096,-4.0096,-3.9679,-3.8149,-3.7806,-3.7354,-3.5829,-3.5504,-3.5504,-3.5504,-3.5504,-3.5504,-3.5504,-3.5504,-3.5504,-3.5504,-3.5504,-3.5504,-3.5504,-3.5504,-3.5504,-3.5504,-3.5504,-3.5504,-3.5504,-3.5504,-3.5504,-3.5504,-3.5504,-3.5504,-3.5504,-3.5504,-3.5504,-3.5472,-3.5472,-3.4953,-3.3959,-3.3031,-3.1586,-3.6738,-3.709,-3.7656,-3.9121,-3.9707,-4.0137,-4.0996,-4.1191,-4.1426,-4.2226,-4.3086,-4.3965,-4.4844,-4.5703,-4.6308,-4.6308,-4.6797,-4.7285,-4.7558,-4.8867,-4.9883,-5.0176,-5.043,-5.0019,-4.8555,-4.8164,-4.7656,-4.6777,-4.6585,-4.6334,-4.5927,-4.583,-4.5733,-4.5603,-4.5594,-4.5594,-4.5594,-4.5594,-4.5594,-4.5594,-4.5594,-4.5419,-4.5085,-4.4745,-4.4373,-4.3986,-4.3646,-4.3515,-4.3515,-4.3515,-4.3515,-4.3515,-4.3515,-4.3515,-4.3515,-4.3515,-4.316,-4.2635,-4.2223,-4.1556,-4.085,-4.0473,-4.0254,-4.0096,-4.0096,-4.0096,-4.0096,-4.0096,-4.0096,-4.0096,-4.0096,-4.0096,-4.0096,-4.0096,-3.9662,-3.9156,-3.8663,-3.7716,-3.6828,-3.6337,-3.5831,-3.5504,-3.5504,-3.5504,-3.5504,-3.5504,-3.5504,-3.5504,-3.5504,-3.5504,-3.5504,-3.5504,-3.5504,-3.5504,-3.5504,-3.5504,-3.5504,-3.5504,-3.5504,-3.5504,-3.5504,-3.5504,-3.5504,-3.5504,-3.5504,-3.4854,-3.3498,-3.3498,-3.2692,-3.1108,-3.0809,-3.0355,-3.7246,-3.7773,-3.8535,-3.9629,-4.0156,-4.0527,-4.1074,-4.1426,-4.1894,-4.2715,-4.3574,-4.4453,-4.5332,-4.5937,-4.6308,-4.6308,-4.6758,-4.7226,-4.7558,-4.8828,-4.9824,-5.0156,-4.9629,-4.8789,-4.7715,-4.7305,-4.6875,-4.6348,-4.6224,-4.6087,-4.5907,-4.5866,-4.577,-4.5603,-4.5594,-4.5594,-4.5594,-4.5594,-4.5594,-4.5594,-4.5594,-4.5419,-4.5085,-4.4884,-4.4495,-4.4001,-4.3772,-4.3631,0.0,-4.3515,-4.3515,-4.3515,-4.3515,-4.3515,-4.3515,-4.3515,-4.3286,-4.292,-4.2324,-4.1729,-4.1155,-4.0577,-4.0262,-4.0096,-4.0096,-4.0096,-4.0096,-4.0096,-4.0096,-4.0096,-4.0096,-4.0096,-4.0096,-4.0096,-3.9489,-3.8827,-3.8553,-3.7483,-3.6523,-3.6259,-3.5799,-3.5504,-3.5504,-3.5504,-3.5504,-3.5504,-3.5504,-3.5504,-3.5504,-3.5504,-3.5504,-3.5504,-3.5504,-3.5504,-3.5504,-3.5504,-3.5504,-3.5504,-3.5504,-3.5504,-3.5504,-3.5504,-3.5504,-3.5504,-3.5504,-3.4887,-3.3685,-3.2961,-3.201,-3.0846,-3.0152,-2.9792,0.0,-3.8672,-3.9902,-3.998,-4.0605,-4.1191,-4.1191,-4.1777,0.0,-4.3516,-4.4336,-4.5195,-4.6133,-4.6308,-4.6308,-4.6308,-4.6348,-4.668,-4.748,-4.8359,-4.918,-4.9922,-4.8594,-4.7578,-4.7519,-4.6777,-4.6308,-4.6308,-4.6289,-4.6174,-4.5912,-4.5894,-4.5805,-4.5603,-4.5594,-4.5594,-4.5594,-4.5594,-4.5594,-4.5594,-4.5594,-4.5438,-4.5129,-4.5107,-4.4713,-4.4028,-4.3998,-4.382,-4.3515,-4.3515,-4.3515,-4.3515,-4.3515,-4.3515,-4.3515,-4.3515,-4.3515,-4.3427,-4.2883,-4.2302,-4.1686,-4.1041,-4.0521,-4.0096,-4.0096,-4.0096,-4.0096,-4.0096,-4.0096,-4.0096,-4.0096,-4.0096,-4.0096,-4.0096,-3.9489,-3.869,-3.795,-3.7174,-3.6384,-3.5636,-3.5504,-3.5504,-3.5504,-3.5504,-3.5504,-3.5504,-3.5504,-3.5504,-3.5504,-3.5504,-3.5504,-3.5504,-3.5504,-3.5504,-3.5504,-3.5504,-3.5504,-3.5504,-3.5504,-3.5504,-3.5504,-3.5504,-3.5504,-3.5504,-3.5359,-3.5279,-3.5279,-3.3374,-3.2393,-3.2357,-3.0608,-2.9792,-3.9336,0.0,-4.0059,-4.0723,-4.1055,-4.1191,0.0,-4.1348,-4.1894,-4.3398,-4.3867,-4.4473,-4.6016,-4.6308,-4.6308,-4.6308,-4.6855,-4.7363,-4.7578,-4.8359,-4.873,-4.8262,-4.7851,-4.7344,-4.668,-4.6426,-4.6308,-4.6308,-4.6201,-4.6077,-4.5907,-4.5845,-4.5743,-4.5603,-4.5594,-4.5594,-4.5594,-4.5594,-4.5594,-4.5594,-4.5594,-4.5559,-4.5457,-4.5222,-4.4872,-4.4447,-4.4132,-4.382,-4.3515,-4.3515,-4.3515,-4.3515,-4.3515,-4.3515,-4.3515,-4.3515,-4.3515,-4.3427,-4.2883,-4.2302,-4.1621,-4.0618,-4.0204,-4.0096,-4.0096,-4.0096,-4.0096,-4.0096,-4.0096,-4.0096,-4.0096,-4.0096,-4.0096,-4.0096,-3.9489,-3.869,-3.795,-3.7174,-3.6384,-3.5636,-3.5504,-3.5504,-3.5504,-3.5504,-3.5504,-3.5504,-3.5504,-3.5504,-3.5504,-3.5504,-3.5504,-3.5504,-3.5504,-3.5504,-3.5504,-3.5504,-3.5504,-3.5504,-3.5504,-3.5504,-3.5504,-3.5504,-3.5504,-3.5504,-3.4056,-3.329,-3.329,-3.1378,-3.047,-3.047,-3.0011,-2.9792,-4.0488,-4.0762,-4.1152,-4.1621,-4.1758,-4.1758,-4.1758,-4.1758,-4.2129,-4.3437,-4.4023,-4.4707,-4.6055,-4.6308,-4.6308,-4.6308,-4.6699,-4.7148,-4.7539,-4.8008,-4.8125,-4.7656,-4.7246,-4.6816,-4.6348,-4.6308,-4.6308,-4.6308,-4.6226,-4.6113,-4.5907,-4.5876,-4.5764,-4.5603,-4.5594,-4.5594,-4.5594,-4.5594,-4.5594,-4.5594,-4.5594,-4.5594,-4.5586,-4.541,-4.514,-4.4812,-4.4428,-4.4061,-4.3726,-4.3546,-4.3515,-4.3515,-4.3515,-4.3515,-4.3515,-4.3515,-4.3515,-4.3427,-4.2883,-4.2121,-4.1246,-4.0385,-4.0096,-4.0096,-4.0096,-4.0096,-4.0096,-4.0096,-4.0096,-4.0096,-4.0096,-4.0096,-4.0096,-4.0096,-3.9489,-3.8799,-3.8386,-3.7395,-3.6461,-3.6086,-3.5718,-3.5504,-3.5504,-3.5504,-3.5504,-3.5504,-3.5504,-3.5504,-3.5504,-3.5504,-3.5504,-3.5504,-3.5504,-3.5504,-3.5504,-3.5504,-3.5504,-3.5504,-3.5504,-3.5504,-3.5504,-3.5504,-3.5504,-3.5504,-3.4457,-3.3939,-3.3939,-3.2024,-3.1095,-3.1057,-3.0216,-2.9792,-4.1305,-4.1972,-4.2578,-4.2422,-4.2402,-4.2402,-4.2402,-4.2305,-4.25,-4.3496,-4.4297,-4.5117,-4.6113,-4.6308,-4.6308,-4.6308,-4.6308,-4.6562,-4.7305,-4.7402,-4.7402,-4.7402,-4.6758,-4.6308,-4.6308,-4.6308,-4.6308,-4.6308,-4.6289,-4.6173,-4.5936,-4.5894,-4.5799,-4.5635,-4.5612,-4.5594,-4.5594,-4.5594,-4.5594,-4.5594,-4.5594,-4.5594,-4.5594,-4.5594,-4.5419,-4.5085,-4.4751,-4.4359,-4.3971,-4.3629,-4.3515,-4.3515,-4.3515,-4.3515,-4.3515,-4.3515,-4.3515,-4.341,-4.2789,-4.1895,-4.0926,-4.0311,-4.0096,-4.0096,-4.0096,-4.0096,-4.0096,-4.0096,-4.0096,-4.0096,-4.0096,-4.0096,-4.0096,-4.0096,-3.9584,-3.9032,-3.8772,-3.7716,-3.6707,-3.6477,-3.5926,-3.5504,-3.5504,-3.5504,-3.5504,-3.5504,-3.5504,-3.5504,-3.5504,-3.5504,-3.5504,-3.5504,-3.5504,-3.5504,-3.5504,-3.5504,-3.5504,-3.5504,-3.5504,-3.5504,-3.5504,-3.5504,-3.5504,-3.5504,-3.5213,-3.5067,-3.5067,-3.3115,-3.2177,-3.2141,-3.0533,-2.9792,-4.1924,-4.2805,-4.332,-4.2578,-4.2402,-4.2402,-4.2402,-4.1875,-4.1816,-4.3379,-4.3808,-4.4394,-4.5996,-4.6308,-4.6308,-4.6308,-4.6308,-4.6348,-4.6484,-4.6504,-4.6504,-4.6504,-4.6387,-4.6308,-4.6308,-4.6308,-4.6308,-4.6308,-4.6199,-4.6115,-4.6077,-4.5915,-4.5796,-4.5763,-4.5657,-4.5594,-4.5594,-4.5594,-4.5594,-4.5594,-4.5594,-4.5594,-4.5594,-4.5594,-4.5419,-4.5085,-4.4751,-4.4359,-4.3971,-4.3629,-4.3515,-4.3515,-4.3515,-4.3515,-4.3515,-4.3515,-4.3515,-4.3339,-4.2286,-4.1832,-4.149,-4.0441,-4.0096,-4.0096,-4.0096,-4.0096,-4.0096,-4.0096,-4.0096,-4.0096,-4.0096,-4.0096,-4.0096,-4.0096,-4.002,-3.9558,-3.8262,-3.7777,-3.7235,-3.5926,-3.5587,-3.5504,-3.5504,-3.5504,-3.5504,-3.5504,-3.5504,-3.5504,-3.5504,-3.5504,-3.5504,-3.5504,-3.5504,-3.5504,-3.5504,-3.5504,-3.5504,-3.5504,-3.5504,-3.5504,-3.5504,-3.5504,-3.5504,-3.5504,-3.3871,-3.3031,-3.3031,-3.1132,-3.0216,-3.0216,-2.9934,-2.9792,-4.0886,-4.1893,-4.2961,-4.3086,-4.3457,-4.3808,-4.3808,-4.3144,-4.2891,-4.4141,-4.4394,-4.4785,-4.6074,-4.6308,-4.6308,-4.6308,-4.6308,-4.6308,-4.6308,-4.6308,-4.6308,-4.6308,-4.6308,-4.6308,-4.6308,-4.6308,-4.6308,-4.6308,-4.6247,-4.6174,-4.6091,-4.5931,-4.583,-4.5803,-4.5673,-4.5594,-4.5594,-4.5594,-4.5594,-4.5594,-4.5594,-4.5594,-4.5594,-4.5594,-4.5513,-4.5342,-4.4818,-4.4501,-4.4276,-4.3728,-4.3515,-4.3515,-4.3515,-4.3515,-4.3515,-4.3515,-4.3515,-4.3284,-4.1725,-4.1477,-4.1476,-3.9542,-3.9174,-3.9411,-3.9022,-3.9174,-3.9436,-3.9005,-3.9503,-4.0096,-4.0096,-4.0096,-4.0096,-4.0096,-4.0096,-3.9901,-3.9199,-3.8374,-3.7589,-3.689,-3.6085,-3.5504,-3.5504,-3.5504,-3.5504,-3.5504,-3.5504,-3.5504,-3.5504,-3.5504,-3.5504,-3.5504,-3.5504,-3.5504,-3.5504,-3.5504,-3.5504,-3.5504,-3.5504,-3.5504,-3.5504,-3.5504,-3.5504,-3.5504,-3.4624,-3.4158,-3.4158,-3.2227,-3.1304,-3.1304,-3.0292,-2.9792,-4.0015,-4.0972,-4.2279,-4.3417,-4.4043,-4.4492,-4.4902,-4.418,-4.3691,-4.4785,-4.5,-4.5273,-4.6133,-4.6308,-4.6308,-4.6308,-4.6308,-4.6308,-4.6308,-4.6308,-4.6308,-4.6308,-4.6308,-4.6308,-4.6308,-4.6308,-4.6308,-4.6308,-4.6308,-4.6267,-4.6149,-4.5816,-4.5604,-4.5535,-4.5194,-4.5017,-4.5017,-4.5017,-4.521,-4.5594,-4.5594,-4.5498,-4.5306,-4.5518,-4.5498,-4.528,-4.4801,-4.4479,-4.4239,-4.3529,-4.3112,-4.2928,-4.2928,-4.2928,-4.2947,-4.3149,-4.3222,-4.299,-4.1417,-4.1156,-4.1166,-3.8814,-3.8381,-3.8633,-3.8075,-3.8294,-3.8616,-3.8075,-3.87,-3.9588,-3.9588,-3.9588,-3.9588,-3.9588,-3.9588,-3.9522,-3.9352,-3.8379,-3.7498,-3.7293,-3.6321,-3.5504,-3.5504,-3.5504,-3.5444,-3.5295,-3.5265,-3.5265,-3.5265,-3.5265,-3.5325,-3.5489,-3.5504,-3.5504,-3.5504,-3.5355,-3.5265,-3.5265,-3.5415,-3.5504,-3.5504,-3.5504,-3.5504,-3.5504,-3.5067,-3.482,-3.482,-3.2869,-3.1938,-3.1901,-3.047,-2.9792,-4.0377,-4.0944,-4.1501,-4.3261,-4.3144,-4.3008,-4.4629,-4.3691,-4.2969,-4.4648,-4.5,-4.5273,-4.6133,-4.6308,-4.6308,-4.6308,-4.6308,-4.6308,-4.6308,-4.6308,-4.6308,-4.6308,-4.6308,-4.6308,-4.6308,-4.6308,-4.6308,-4.6308,-4.6308,-4.6308,-4.6289,-4.5323,-4.4775,-4.4785,-4.38,-4.3278,-4.3278,-4.3278,-4.4066,-4.5594,-4.5594,-4.519,-4.4412,-4.5229,-4.5171,-4.4406,-4.4535,-4.414,-4.3347,-4.2659,-4.1956,-4.126,-4.126,-4.126,-4.1352,-4.2121,-4.2396,-4.2292,-4.1596,-4.1101,-4.0524,-3.9042,-3.8282,-3.7973,-3.7922,-3.7939,-3.7973,-3.7922,-3.799,-3.8075,-3.8075,-3.8075,-3.8075,-3.8075,-3.8075,-3.7852,-3.7101,-3.6858,-3.6579,-3.582,-3.5602,-3.5504,-3.5504,-3.5504,-3.5295,-3.4683,-3.4578,-3.4578,-3.4578,-3.4578,-3.4801,-3.5429,-3.5504,-3.5504,-3.5504,-3.4921,-3.4578,-3.4578,-3.516,-3.5504,-3.5504,-3.5504,-3.5504,-3.5504,-3.3719,-3.282,-3.282,-3.0921,-2.9998,-2.9998,-2.9856,-2.9792,-3.9005,-4.0004,-4.114,-4.249,-4.2992,-4.3464,-4.4726,-4.4492,-4.4355,-4.5566,-4.5801,-4.5918,-4.623,-4.6308,-4.6308,-4.6308,-4.6308,-4.6308,-4.6308,-4.6308,-4.6308,-4.6308,-4.6308,-4.6308,-4.6308,-4.5801,-4.5488,-4.5488,-4.498,-4.4687,-4.4687,-4.4172,-4.3899,-4.3899,-4.3374,-4.3104,-4.3104,-4.3104,-4.3412,-4.4047,-4.4047,-4.3874,-4.3566,-4.3893,-4.3874,-4.3549,-4.3361,-4.3007,-4.2517,-4.2064,-4.1557,-4.1095,-4.1095,-4.1095,-4.1132,-4.1425,-4.1535,-4.1394,-4.0346,-3.9959,-3.964,-3.7833,-3.7215,-3.711,-3.6614,-3.6823,-3.711,-3.662,-3.684,-3.7313,-3.7787,-3.7905,-3.7905,-3.7905,-3.7905,-3.7947,-3.8101,-3.7373,-3.6746,-3.69,-3.6148,-3.5504,-3.5504,-3.5145,-3.4771,-3.4548,-3.4159,-3.3858,-3.3858,-3.4249,-3.4608,-3.4846,-3.4861,-3.4696,-3.4292,-3.4008,-3.3858,-3.3858,-3.4113,-3.4262,-3.4262,-3.4262,-3.4262,-3.4262,-3.3936,-3.3783,-3.3783,-3.225,-3.1549,-3.1513,-3.0355,-2.9792,-3.8468,-3.9625,-4.1027,-4.237,-4.2945,-4.3505,-4.4726,-4.5,-4.5254,-4.6113,-4.6308,-4.6308,-4.6308,-4.6308,-4.6308,-4.6308,-4.6308,-4.6308,-4.6308,-4.6055,-4.5898,-4.5898,-4.5644,-4.5488,-4.5488,-4.4941,-4.459,-4.459,-4.4043,-4.3691,-4.3691,-4.3256,-4.2984,-4.2984,-4.2524,-4.2277,-4.2277,-4.2277,-4.2277,-4.2277,-4.2277,-4.2412,-4.2701,-4.297,-4.2951,-4.2684,-4.2565,-4.2199,-4.17,-4.1343,-4.0844,-4.0343,-4.0343,-4.0343,-4.0361,-4.0634,-4.0726,-4.0586,-3.9665,-3.9356,-3.9066,-3.7264,-3.6654,-3.6547,-3.5819,-3.5994,-3.6299,-3.5752,-3.6011,-3.6535,-3.7043,-3.7155,-3.7155,-3.7155,-3.7155,-3.731,-3.7825,-3.7101,-3.6424,-3.6721,-3.592,-3.5116,-3.4908,-3.4487,-3.4098,-3.3888,-3.3469,-3.3185,-3.3185,-3.3574,-3.3933,-3.4174,-3.4158,-3.3978,-3.3529,-3.3305,-3.3185,-3.3185,-3.2991,-3.3066,-3.3484,-3.3499,-3.3499,-3.3499,-3.3561,-3.3565,-3.3565,-3.2317,-3.1733,-3.1696,-3.0394,-2.9691,-3.9139,-4.0026,-4.1158,-4.3106,-4.2945,-4.2786,-4.4589,-4.5,-4.5254,-4.6113,-4.6308,-4.6308,-4.6308,-4.6308,-4.6308,-4.6308,-4.6289,-4.6289,-4.6289,-4.5547,-4.498,-4.498,-4.4238,-4.3691,-4.3691,-4.3691,-4.3691,-4.3691,-4.3672,-4.3672,-4.3672,-4.2673,-4.2093,-4.2093,-4.1068,-4.0496,-4.0496,-4.0496,-4.0496,-4.0496,-4.0496,-4.095,-4.1808,-4.2681,-4.2604,-4.1819,-4.2278,-4.1879,-4.0856,-4.0459,-3.9659,-3.8707,-3.8707,-3.8707,-3.8799,-3.9588,-3.9882,-3.9882,-3.9882,-3.9533,-3.8869,-3.7609,-3.6843,-3.6291,-3.5761,-3.56,-3.56,-3.56,-3.56,-3.56,-3.56,-3.56,-3.56,-3.56,-3.56,-3.5603,-3.5597,-3.5596,-3.537,-3.4644,-3.4512,-3.4294,-3.3637,-3.3484,-3.326,-3.2617,-3.2482,-3.2497,-3.2512,-3.2512,-3.2766,-3.3425,-3.3484,-3.3484,-3.3484,-3.2886,-3.2497,-3.2497,-3.1869,-3.2093,-3.3425,-3.3469,-3.3469,-3.3469,-3.2269,-3.1612,-3.1578,-3.0386,-2.9818,-2.9818,-2.9779,-2.9478,-3.9261,-3.993,-4.0873,-4.2139,-4.3244,-4.4143,-4.4735,-4.4936,-4.5254,-4.6113,-4.6308,-4.6308,-4.6308,-4.6308,-4.6308,-4.6308,-4.5781,-4.5391,-4.5391,-4.4648,-4.4082,-4.4082,-4.3867,-4.3691,-4.3691,-4.3144,-4.2793,-4.2793,-4.2266,-4.1933,-4.1933,-4.1459,-4.119,-4.119,-4.0733,-4.0496,-4.0496,-4.0496,-4.0496,-4.0496,-4.0496,-4.065,-4.0893,-4.115,-4.1131,-4.0893,-4.1031,-4.0815,-4.0292,-3.9702,-3.9155,-3.8707,-3.8707,-3.8707,-3.8726,-3.8964,-3.9056,-3.9056,-3.9056,-3.8496,-3.7699,-3.7319,-3.6583,-3.5827,-3.5667,-3.56,-3.56,-3.56,-3.56,-3.56,-3.56,-3.56,-3.56,-3.56,-3.56,-3.5757,-3.6313,-3.5999,-3.554,-3.5386,-3.4898,-3.4294,-3.3637,-3.311,-3.2736,-3.2542,-3.2093,-3.1959,-3.2452,-3.2512,-3.2587,-3.2781,-3.2811,-3.2617,-3.2123,-3.1914,-3.1795,-3.1795,-3.1615,-3.1675,-3.2064,-3.2079,-3.2079,-3.2079,-3.2207,-3.191,-3.1326,-3.115,-3.0555,-2.9574,-2.9289,-2.8888,-4.0719,-4.1401,-4.2256,-4.3253,-4.4073,-4.4729,-4.5209,-4.542,-4.5664,-4.6191,-4.6016,-4.5781,-4.5781,-4.5508,-4.5273,-4.5273,-4.4824,-4.4473,-4.4473,-4.373,-4.3183,-4.3183,-4.2891,-4.2715,-4.2715,-4.2226,-4.1914,-4.1914,-4.1465,-4.1191,-4.1191,-4.0994,-4.0857,-4.0801,-4.0653,-4.0552,-4.0496,-4.0496,-4.0496,-4.0496,-4.0496,-4.0496,-4.0496,-4.0496,-4.0496,-4.0489,-4.0381,-4.0167,-3.987,-3.9314,-3.8933,-3.8707,-3.8707,-3.8707,-3.8707,-3.8707,-3.8707,-3.8707,-3.8707,-3.8168,-3.7451,-3.7248,-3.6623,-3.5876,-3.565,-3.56,-3.56,-3.56,-3.56,-3.56,-3.56,-3.56,-3.56,-3.56,-3.56,-3.5718,-3.6214,-3.5941,-3.5448,-3.4967,-3.4469,-3.3849,-3.287,-3.2363,-3.2093,-3.2093,-3.1765,-3.1645,-3.2049,-3.2093,-3.2093,-3.2093,-3.2093,-3.1929,-3.154,-3.1511,-3.1511,-3.1511,-3.1511,-3.1511,-3.1511,-3.1511,-3.1511,-3.1511,-3.1467,-3.1159,-3.0658,-3.0358,-2.9759,-2.8925,-2.8681,-2.8298,-4.2797,-4.3566,-4.4424,-4.5425,-4.5131,-4.488,-4.5864,-4.6199,-4.6289,-4.6308,-4.5605,-4.5,-4.5,-4.4297,-4.3691,-4.3691,-4.3633,-4.3574,-4.3574,-4.2832,-4.2285,-4.2285,-4.1641,-4.1191,-4.1191,-4.1191,-4.1191,-4.1191,-4.1191,-4.1191,-4.1191,-4.1077,-4.0947,-4.0801,-4.0736,-4.0643,-4.0496,-4.0496,-4.0496,-4.0496,-4.0496,-4.0496,-4.0496,-4.0496,-4.0496,-4.0489,-4.0232,-3.9932,-3.9576,-3.9264,-3.8975,-3.8707,-3.8707,-3.8707,-3.8707,-3.8707,-3.8707,-3.8707,-3.8707,-3.835,-3.7825,-3.7341,-3.6843,-3.6308,-3.5761,-3.56,-3.56,-3.56,-3.56,-3.56,-3.56,-3.56,-3.56,-3.56,-3.56,-3.56,-3.56,-3.56,-3.5184,-3.3862,-3.3582,-3.3156,-3.1739,-3.1511,-3.1511,-3.1511,-3.1511,-3.1511,-3.1511,-3.1511,-3.1511,-3.1511,-3.1511,-3.1511,-3.1511,-3.1511,-3.1511,-3.1511,-3.1511,-3.1511,-3.1511,-3.1511,-3.1511,-3.1511,-3.0475,-2.9915,-2.985,-2.876,-2.8178,-2.8055,-2.8045,-2.7733,-4.222,-4.272,-4.3564,-4.4421,-4.5073,-4.5617,-4.6,-4.6119,-4.6174,-4.6289,-4.5605,-4.5,-4.5,-4.4297,-4.3691,-4.3691,-4.3125,-4.2676,-4.2676,-4.1973,-4.1465,-4.1465,-4.1308,-4.1191,-4.1191,-4.1191,-4.1191,-4.1191,-4.1191,-4.1191,-4.1191,-4.1077,-4.0947,-4.0801,-4.0736,-4.0643,-4.0496,-4.0496,-4.0496,-4.0496,-4.0496,-4.0496,-4.0496,-4.0496,-4.0496,-4.0496,-4.0449,-4.011,-3.9599,-3.951,-3.9176,-3.8707,-3.8707,-3.8707,-3.8707,-3.8707,-3.8707,-3.8707,-3.8707,-3.835,-3.7825,-3.7341,-3.6843,-3.6308,-3.5761,-3.56,-3.56,-3.56,-3.56,-3.56,-3.56,-3.56,-3.56,-3.56,-3.56,-3.56,-3.56,-3.56,-3.5184,-3.3862,-3.3582,-3.3156,-3.1739,-3.1511,-3.1511,-3.1511,-3.1511,-3.1511,-3.1511,-3.1511,-3.1511,-3.1511,-3.1511,-3.1511,-3.1511,-3.1511,-3.1511,-3.1511,-3.1511,-3.1511,-3.1511,-3.1511,-3.1511,-3.1511,-3.1264,-3.0818,-3.018,-2.9673,-2.8879,-2.7795,-2.7561,-2.7168,-4.2893,-4.3335,-4.3874,-4.4701,-4.5352,-4.5828,-4.5939,-4.5678,-4.546,-4.5569,-4.4939,-4.4258,-4.3828,-4.3066,-4.25,-4.25,-4.1777,-4.1191,-4.1191,-4.0488,-3.9961,-3.9961,-4.0312,-4.0586,-4.0586,-4.0957,-4.1191,-4.1191,-4.1191,-4.1191,-4.1191,-4.1129,-4.0833,-4.0282,-4.0209,-3.991,-3.9367,-3.9321,-3.9296,-3.9323,-3.9727,-4.0131,-4.0496,-4.0496,-4.0496,-4.0496,-4.0496,-4.0239,-3.9819,-3.9668,-3.9327,-3.8884,-3.8747,-3.8707,-3.8707,-3.8707,-3.8707,-3.8707,-3.8707,-3.835,-3.7825,-3.7341,-3.6843,-3.6308,-3.5761,-3.56,-3.56,-3.56,-3.56,-3.56,-3.56,-3.56,-3.56,-3.56,-3.56,-3.56,-3.56,-3.5362,-3.4823,-3.3786,-3.3339,-3.2772,-3.1697,-3.1511,-3.1511,-3.1511,-3.1511,-3.1511,-3.1511,-3.1511,-3.1511,-3.1511,-3.1511,-3.1511,-3.1511,-3.1511,-3.1511,-3.1511,-3.1511,-3.1511,-3.1511,-3.1511,-3.1511,-3.1511,-3.0703,-3.0103,-2.9673,-2.8706,-2.7839,-2.7142,-2.6983,-2.6763,-4.3489,-4.4085,-4.4509,-4.5383,-4.5669,-4.5724,-4.5602,-4.509,-4.4604,-4.4382,-4.3869,-4.3241,-4.2539,-4.1738,-4.1191,-4.1191,-4.0469,-3.9902,-3.9902,-3.9141,-3.8594,-3.8594,-3.9238,-3.9687,-3.9687,-4.0332,-4.0742,-4.0742,-4.0742,-4.0742,-4.0742,-4.0742,-4.0367,-3.9492,-3.9412,-3.8967,-3.8117,-3.8041,-3.8007,-3.8007,-3.8719,-3.9419,-4.0073,-4.0073,-4.015,-4.0285,-4.0131,-4.0002,-3.9843,-3.9515,-3.9276,-3.9072,-3.8803,-3.8707,-3.8707,-3.8707,-3.8707,-3.8707,-3.8707,-3.8399,-3.7946,-3.7378,-3.6902,-3.6416,-3.5805,-3.56,-3.56,-3.56,-3.56,-3.56,-3.56,-3.56,-3.56,-3.56,-3.56,-3.56,-3.56,-3.5144,-3.4576,-3.3912,-3.3145,-3.2355,-3.164,-3.1511,-3.1511,-3.1511,-3.1511,-3.1511,-3.1511,-3.1511,-3.1511,-3.1511,-3.1511,-3.1511,-3.1511,-3.1511,-3.1511,-3.1511,-3.1511,-3.1511,-3.1511,-3.1511,-3.1511,-3.1511,-3.0133,-2.9442,-2.9442,-2.7769,-2.6939,-2.6905,-2.6624,-2.6499,-4.2058,-4.3201,-4.4509,-4.5383,-4.5612,-4.5456,-4.4821,-4.4601,-4.4137,-4.2751,-4.2471,-4.2462,-4.2402,-4.1738,-4.1191,-4.1191,-4.0469,-3.9902,-3.9902,-3.9141,-3.8594,-3.8594,-3.8691,-3.8769,-3.8769,-3.8887,-3.8945,-3.8945,-3.8945,-3.8945,-3.8945,-3.8945,-3.8824,-3.8573,-3.851,-3.8352,-3.8098,-3.8041,-3.8007,-3.8007,-3.8123,-3.8238,-3.8334,-3.8334,-3.8738,-3.9419,-3.8661,-3.8575,-3.8956,-3.8623,-3.872,-3.9072,-3.8803,-3.8707,-3.8707,-3.8707,-3.8707,-3.8707,-3.8707,-3.8643,-3.8433,-3.7506,-3.7135,-3.6921,-3.5898,-3.56,-3.56,-3.56,-3.56,-3.56,-3.56,-3.56,-3.56,-3.56,-3.56,-3.56,-3.56,-3.5515,-3.527,-3.4592,-3.3469,-3.2355,-3.164,-3.1511,-3.1511,-3.1511,-3.1511,-3.1511,-3.1511,-3.1511,-3.1511,-3.1511,-3.1511,-3.1511,-3.1511,-3.1511,-3.1511,-3.1511,-3.1511,-3.1511,-3.1511,-3.1511,-3.1511,-3.1511,-3.1278,-3.1161,-3.1161,-2.9473,-2.8684,-2.862,-2.7196,-2.6499,-4.2225,-4.3393,-4.4509,-4.5383,-4.5594,-4.5389,-4.4573,-4.4037,-4.3399,-4.2283,-4.1698,-4.142,-4.1484,-4.0851,-4.0307,-4.0307,-3.9158,-3.828,-3.828,-3.7519,-3.6971,-3.6971,-3.74,-3.7723,-3.7801,-3.8213,-3.853,-3.8594,-3.8594,-3.8594,-3.8594,-3.8594,-3.8358,-3.7804,-3.773,-3.7387,-3.6757,-3.6687,-3.6852,-3.7276,-3.7276,-3.7526,-3.7988,-3.7488,-3.7757,-3.8546,-3.8161,-3.8128,-3.8314,-3.7826,-3.8037,-3.8609,-3.819,-3.8303,-3.8707,-3.8707,-3.8707,-3.8707,-3.8707,-3.8707,-3.853,-3.7524,-3.7209,-3.7001,-3.5941,-3.5295,-3.5081,-3.5481,-3.5295,-3.5081,-3.5481,-3.56,-3.56,-3.56,-3.56,-3.56,-3.56,-3.5299,-3.4847,-3.4161,-3.3261,-3.2492,-3.216,-3.1768,-3.1511,-3.1511,-3.1511,-3.1511,-3.1511,-3.1511,-3.1511,-3.1511,-3.1511,-3.1511,-3.1511,-3.1511,-3.1511,-3.1511,-3.1511,-3.1511,-3.1511,-3.1511,-3.1511,-3.1511,-3.0584,-3.0103,-3.0103,-2.8427,-2.7604,-2.7571,-2.685,-2.6499,-4.1796,-4.2778,-4.3506,-4.4673,-4.496,-4.4748,-4.3855,-4.3201,-4.2548,-4.1789,-4.11,-4.0602,-4.0441,-3.9971,-3.9524,-3.931,-3.7991,-3.6998,-3.6998,-3.6255,-3.5707,-3.5707,-3.6274,-3.6709,-3.6818,-3.7368,-3.7762,-3.7907,-3.7908,-3.7928,-3.7949,-3.7949,-3.7637,-3.6992,-3.6899,-3.651,-3.5758,-3.5653,-3.5863,-3.6404,-3.6404,-3.6731,-3.7334,-3.6692,-3.675,-3.7353,-3.7353,-3.7488,-3.7632,-3.7033,-3.7268,-3.7935,-3.7392,-3.7551,-3.8083,-3.8083,-3.8083,-3.8083,-3.8083,-3.8083,-3.7927,-3.6916,-3.6589,-3.6402,-3.5361,-3.4675,-3.437,-3.5115,-3.4928,-3.4675,-3.5397,-3.56,-3.56,-3.56,-3.56,-3.56,-3.56,-3.5207,-3.4664,-3.3987,-3.3313,-3.2788,-3.2614,-3.1979,-3.1511,-3.1511,-3.1511,-3.1511,-3.1511,-3.1511,-3.1511,-3.1511,-3.1511,-3.1511,-3.1511,-3.1511,-3.1511,-3.1511,-3.1511,-3.1511,-3.1511,-3.1511,-3.1511,-3.1511,-3.0072,-2.9442,-2.9628,-2.7953,-2.7129,-2.7129,-2.6679,-2.6499,-3.9738,-4.0291,-4.0787,-4.2736,-4.3239,-4.3008,-4.2143,-4.1904,-4.1623,-4.0754,-4.055,-4.0281,-3.9526,-3.9503,-3.933,-3.8504,-3.7605,-3.6998,-3.6998,-3.6255,-3.5707,-3.5707,-3.5746,-3.5765,-3.5772,-3.5811,-3.5903,-3.6038,-3.6041,-3.6078,-3.6133,-3.6133,-3.6113,-3.6074,-3.6,-3.5941,-3.5898,-3.571,-3.5593,-3.5558,-3.5558,-3.5596,-3.5635,-3.5577,-3.5596,-3.5635,-3.5635,-3.6058,-3.6721,-3.6188,-3.6438,-3.7111,-3.6559,-3.6376,-3.6413,-3.6413,-3.6413,-3.6413,-3.6413,-3.6413,-3.6245,-3.5256,-3.4925,-3.4745,-3.3806,-3.3491,-3.3609,-3.4336,-3.4523,-3.4675,-3.5397,-3.56,-3.56,-3.56,-3.56,-3.56,-3.56,-3.5577,-3.5362,-3.4688,-3.4012,-3.3339,-3.2722,-3.1979,-3.1511,-3.1511,-3.1511,-3.1511,-3.1511,-3.1511,-3.1511,-3.1511,-3.1511,-3.1511,-3.1511,-3.1511,-3.1511,-3.1511,-3.1511,-3.1511,-3.1511,-3.1511,-3.1511,-3.1511,-3.0673,-3.0614,-3.138,-2.969,-2.8876,-2.8844,-2.7229,-2.6499,-3.8666,-3.9073,-3.9492,-4.1258,-4.1838,-4.1914,-4.1561,-4.1658,-4.1546,-4.0689,-4.0092,-3.9477,-3.8623,-3.8524,-3.8284,-3.7419,-3.6582,-3.6041,-3.6041,-3.5764,-3.5566,-3.5566,-3.5566,-3.5585,-3.5635,-3.5639,-3.5667,-3.5761,-3.5845,-3.5908,-3.5922,-3.5974,-3.5996,-3.5996,-3.5975,-3.5897,-3.5769,-3.5657,-3.5574,-3.55,-3.55,-3.55,-3.55,-3.55,-3.55,-3.55,-3.55,-3.5654,-3.5895,-3.5353,-3.5589,-3.6271,-3.5695,-3.5807,-3.6303,-3.6303,-3.6303,-3.6303,-3.6303,-3.6303,-3.6179,-3.5481,-3.5062,-3.4676,-3.4032,-3.3318,-3.2852,-3.3592,-3.3795,-3.3964,-3.4709,-3.525,-3.56,-3.56,-3.56,-3.56,-3.56,-3.56,-3.5515,-3.5293,-3.435,-3.3505,-3.3287,-3.2284,-3.1511,-3.1511,-3.1511,-3.1511,-3.1511,-3.1511,-3.1511,-3.1511,-3.1511,-3.1511,-3.1511,-3.1511,-3.1511,-3.1511,-3.1511,-3.1511,-3.1511,-3.1511,-3.1511,-3.1511,-3.1219,-3.097,-3.0748,-2.9002,-2.8182,-2.8149,-2.704,-2.6499,-3.7167,-3.7484,-3.7902,-3.9626,-4.003,-4.007,-4.0396,-4.0423,-4.0255,-3.9769,-3.9246,-3.8604,-3.7719,-3.7565,-3.7296,-3.6442,-3.5846,-3.55,-3.55,-3.55,-3.55,-3.55,-3.55,-3.5528,-3.5562,-3.5574,-3.5595,-3.5667,-3.5777,-3.5845,-3.5901,-3.5952,-3.5996,-3.5996,-3.5996,-3.5928,-3.5766,-3.5675,-3.5611,-3.5528,-3.5508,-3.55,-3.55,-3.55,-3.55,-3.55,-3.55,-3.55,-3.5479,-3.5008,-3.5104,-3.5442,-3.4921,-3.5022,-3.5459,-3.5459,-3.5459,-3.5459,-3.5459,-3.5459,-3.5384,-3.4896,-3.4412,-3.3935,-3.3462,-3.2674,-3.209,-3.2814,-3.322,-3.3575,-3.4303,-3.5064,-3.56,-3.56,-3.56,-3.56,-3.56,-3.56,-3.5515,-3.5278,-3.4341,-3.3417,-3.296,-3.2098,-3.1392,-3.118,-3.1361,-3.1511,-3.1511,-3.1511,-3.1511,-3.1511,-3.1511,-3.1511,-3.1511,-3.1511,-3.1511,-3.1511,-3.1511,-3.1511,-3.1511,-3.1511,-3.1511,-3.1511,-3.1511,-3.1248,-3.0703,-2.8971,-2.7986,-2.767,-2.6871,-2.6499,0.0,0.0,0.0,-3.7815,-3.7716,-3.7434,-3.8508,-3.8146,-3.7672,-3.7924,-3.7962,-3.77,-3.6839,-3.6673,-3.6404,-3.5628,-3.5493,-3.5519,-3.5538,-3.5538,-3.5538,-3.5577,-3.5558,-3.5538,-3.5538,-3.5519,-3.5534,-3.559,-3.5663,-3.5755,-3.5875,-3.5951,-3.5996,-3.5996,-3.5996,-3.5973,-3.5901,-3.5766,-3.5675,-3.5605,-3.5528,-3.55,-3.55,-3.55,-3.55,-3.55,-3.55,-3.55,-3.5486,-3.5207,-3.4935,-3.4663,-3.4323,-3.4031,-3.3807,-3.3807,-3.3807,-3.3807,-3.3807,-3.3807,-3.3734,-3.3346,-3.2887,-3.2417,-3.1951,-3.1545,-3.1343,-3.2073,-3.2797,-3.3541,-3.4303,-3.5064,-3.56,-3.56,-3.5583,-3.5566,-3.5566,-3.5549,-3.5329,-3.4624,-3.3928,-3.3025,-3.1702,-3.1407,-3.114,-3.0546,-3.1017,-3.1451,-3.1466,-3.1466,-3.1481,-3.1511,-3.1511,-3.1511,-3.1511,-3.1481,-3.1481,-3.1511,-3.1481,-3.1481,-3.1511,-3.1511,-3.1511,-3.1511,-3.1467,-3.1438,-3.1409,-2.9827,-2.8588,-2.7736,-2.6871,-2.6499,-3.4179,0.0,0.0,0.0,0.0,0.0,-3.7075,-3.7446,-3.7628,-3.7708,-3.7352,-3.6925,-3.649,-3.6086,-3.5708,-3.5277,-3.5376,-3.5692,-3.6288,-3.6365,-3.6596,-3.7238,-3.675,-3.6365,-3.6365,-3.5846,-3.5501,-3.5534,-3.5585,-3.5639,-3.567,-3.5834,-3.5948,-3.5996,-3.5996,-3.5973,-3.5901,-3.5766,-3.5675,-3.5605,-3.5528,-3.55,-3.55,-3.55,-3.55,-3.55,-3.55,-3.55,-3.5453,-3.4999,-3.4783,-3.4643,-3.4123,-3.3868,-3.3807,-3.3807,-3.3807,-3.3807,-3.3807,-3.3807,-3.3775,-3.368,-3.3121,-3.2484,-3.235,-3.1787,-3.1241,-3.1464,-3.2056,-3.2903,-3.4167,-3.5064,-3.56,-3.56,-3.5199,-3.4793,-3.4793,-3.4404,-3.4117,-3.4438,-3.3185,-3.195,-3.155,-3.0732,-3.0036,-2.9861,-2.9998,-3.0283,-3.0731,-3.0791,-3.0957,-3.1451,-3.1511,-3.1511,-3.1511,-3.1047,-3.0972,-3.1466,-3.1032,-3.0972,-3.1481,-3.1511,-3.1511,-3.1511,-3.0925,-3.0329,-2.969,-2.9858,-2.9473,-2.862,-2.7162,-2.6499,-3.3899,-3.3807,-3.399,-3.4802,0.0,0.0,-3.592,-3.5919,-3.5817,-3.6293,-3.6108,-3.5808,-3.5656,-3.5375,-3.5113,-3.4963,-3.5051,-3.5525,-3.6555,-3.6692,-3.7019,-3.7892,-3.7546,-3.7238,-3.7238,-3.6815,-3.6385,-3.6038,-3.6084,-3.5999,-3.5668,-3.5811,-3.5914,-3.595,-3.5995,-3.5975,-3.5945,-3.578,-3.5678,-3.5648,-3.554,-3.55,-3.55,-3.55,-3.5308,-3.4968,-3.4968,-3.4968,-3.4922,-3.4385,-3.4363,-3.4653,-3.4153,-3.3902,-3.3807,-3.3807,-3.3807,-3.3807,-3.3807,-3.3807,-3.3807,-3.3807,-3.3211,-3.2501,-3.2501,-3.1896,-3.119,-3.119,-3.1735,-3.2564,-3.3728,-3.437,-3.467,-3.467,-3.4353,-3.4032,-3.4032,-3.3457,-3.3068,-3.3512,-3.2426,-3.1269,-3.0724,-3.0021,-2.9489,-2.9214,-2.94,-2.9741,-3.0073,-3.0118,-3.0268,-3.0672,-3.0717,-3.0717,-3.0717,-3.0357,-3.0298,-3.0687,-3.0342,-3.0298,-3.0702,-3.0943,-3.1077,-3.1077,-3.091,-3.0389,-2.9535,-2.9317,-2.878,-2.792,-2.6973,-2.6499,-3.4137,-3.3862,-3.3954,-3.4582,-3.3738,0.0,-3.4686,-3.399,-3.3254,-3.4187,-3.4391,-3.4449,-3.4502,-3.4542,-3.4571,-3.4634,-3.4674,-3.5145,-3.6427,-3.6692,-3.7076,-3.794,-3.8036,-3.8043,-3.8086,-3.7989,-3.7593,-3.675,-3.6722,-3.6435,-3.5725,-3.5805,-3.5877,-3.5901,-3.5972,-3.5996,-3.5996,-3.5799,-3.5707,-3.5703,-3.5568,-3.5442,-3.5365,-3.5365,-3.4891,-3.4071,-3.4071,-3.4071,-3.4025,-3.3606,-3.3949,-3.4663,-3.43,-3.4006,-3.3807,-3.3807,-3.3807,-3.3807,-3.3807,-3.3807,-3.3775,-3.3748,-3.3163,-3.2484,-3.2451,-3.186,-3.119,-3.119,-3.1735,-3.2462,-3.3102,-3.3339,-3.3406,-3.3406,-3.3339,-3.3288,-3.3288,-3.2696,-3.2175,-3.2175,-3.1692,-3.0882,-2.963,-2.9399,-2.9177,-2.8576,-2.8981,-2.9412,-2.9487,-2.9502,-2.9532,-2.9592,-2.9606,-2.9606,-2.9606,-2.9547,-2.9532,-2.9606,-2.9532,-2.9532,-2.9606,-3.0118,-3.0402,-3.0402,-3.0947,-3.0896,-3.0133,-2.8588,-2.7417,-2.6624,-2.6521,-2.6499,-3.4821,-3.4289,-3.3678,-3.3188,-3.3316,0.0,-3.2422,-3.261,-3.2881,-3.2454,-3.2549,-3.2816,-3.3264,-3.3506,-3.3795,-3.4233,-3.4529,-3.5018,-3.5931,-3.6604,-3.7353,-3.8216,-3.826,-3.8352,-3.8631,-3.8,-3.7351,-3.6762,-3.6111,-3.5725,-3.5621,-3.5698,-3.5797,-3.5901,-3.5972,-3.5996,-3.5996,-3.5799,-3.5707,-3.5703,-3.5568,-3.5135,-3.4449,-3.4449,-3.3968,-3.3141,-3.3141,-3.3141,-3.3186,-3.3562,-3.4121,-3.4643,-3.4099,-3.3855,-3.3807,-3.3807,-3.3807,-3.3807,-3.3807,-3.3807,-3.3748,-3.3419,-3.2952,-3.2434,-3.2039,-3.1584,-3.119,-3.119,-3.1735,-3.2327,-3.2479,-3.2949,-3.3406,-3.3406,-3.2949,-3.2513,-3.2513,-3.1955,-3.141,-3.141,-3.0937,-3.0287,-2.9534,-2.9006,-2.8495,-2.7896,-2.7899,-2.8199,-2.8727,-2.8801,-2.8996,-2.9547,-2.9606,-2.9606,-2.9606,-2.9101,-2.9026,-2.9577,-2.9086,-2.9026,-2.9592,-2.9726,-2.9786,-2.9786,-2.9737,-2.9571,-2.9254,-2.8907,-2.8298,-2.7451,-2.6816,-2.6499,-3.4619,-3.4119,-3.3697,-3.3311,-3.3201,0.0,0.0,-3.2385,-3.2322,-3.2729,-3.2277,-3.2009,-3.2679,-3.2581,-3.2482,-3.2753,-3.2946,-3.3198,-3.3593,-3.5638,-3.7422,-3.8301,-3.8712,-3.9003,-3.9182,-3.8965,-3.8398,-3.7416,-3.6577,-3.5945,-3.5571,-3.5616,-3.5694,-3.5799,-3.5893,-3.5757,-3.5351,-3.5585,-3.5279,-3.4458,-3.4718,-3.4391,-3.3545,-3.3545,-3.3083,-3.2295,-3.2295,-3.2295,-3.2295,-3.2346,-3.2787,-3.3485,-3.3861,-3.3657,-3.3256,-3.3642,-3.3807,-3.3807,-3.3807,-3.3807,-3.378,-3.3564,-3.3196,-3.2761,-3.2281,-3.1695,-3.119,-3.119,-3.1461,-3.1752,-3.1752,-3.2019,-3.2307,-3.2307,-3.2019,-3.1752,-3.1752,-3.1464,-3.119,-3.119,-3.072,-3.0102,-2.9496,-2.8896,-2.831,-2.7685,-2.76,-2.772,-2.8064,-2.8109,-2.8244,-2.8573,-2.8603,-2.8603,-2.8603,-2.8304,-2.8233,-2.8588,-2.8304,-2.8259,-2.8588,-2.8906,-2.925,-2.9592,-2.9505,-2.9145,-2.8484,-2.8226,-2.794,-2.7703,-2.7284,-2.6871,-3.4394,-3.3917,-3.3733,-3.3421,-3.2981,-3.2638,0.0,0.0,0.0,-3.2632,-3.1843,-3.1182,-3.1977,-3.1604,-3.1231,-3.1378,-3.1525,-3.1623,-3.1623,-3.4554,-3.6896,-3.7453,-3.8512,-3.9219,-3.926,-3.9471,-3.9202,-3.8239,-3.7113,-3.625,-3.575,-3.5645,-3.563,-3.5703,-3.5836,-3.5589,-3.4961,-3.5292,-3.4792,-3.3446,-3.3796,-3.3506,-3.2679,-3.2679,-3.2218,-3.1448,-3.1448,-3.1448,-3.1424,-3.1105,-3.1269,-3.1855,-3.3146,-3.3223,-3.2674,-3.333,-3.3678,-3.3807,-3.3807,-3.3807,-3.3793,-3.3707,-3.3346,-3.2856,-3.2484,-3.1823,-3.119,-3.119,-3.119,-3.119,-3.119,-3.119,-3.119,-3.119,-3.119,-3.119,-3.119,-3.119,-3.119,-3.119,-3.0818,-3.0251,-2.9518,-2.8896,-2.831,-2.7685,-2.76,-2.76,-2.76,-2.76,-2.76,-2.76,-2.76,-2.76,-2.76,-2.76,-2.76,-2.76,-2.76,-2.76,-2.76,-2.8113,-2.8712,-2.9385,-2.9427,-2.9049,-2.8318,-2.7726,-2.738,-2.7301,-2.7196,-2.6871,-3.4931,-3.4344,-3.3458,-3.2027,-3.2137,-3.2069,-3.0014,0.0,-3.0191,-2.9647,0.0,-2.9519,-3.032,0.0,0.0,-3.1286,-3.2008,-3.2454,-3.2454,-3.4076,-3.5013,-3.44,-3.6334,-3.784,-3.8057,-3.7904,-3.8051,-3.8651,-3.6792,-3.5904,-3.6519,-3.5954,-3.563,-3.5703,-3.5836,-3.5882,-3.5859,-3.5043,-3.4546,-3.4348,-3.3473,-3.2622,-3.1833,-3.1833,-3.1365,-3.0558,-3.0558,-3.0558,-3.0584,-3.1064,-3.075,-3.0094,-3.1254,-3.2083,-3.2601,-3.2693,-3.3201,-3.3807,-3.3807,-3.3807,-3.3734,-3.3375,-3.2679,-3.1951,-3.1897,-3.1564,-3.119,-3.119,-3.119,-3.119,-3.119,-3.119,-3.119,-3.119,-3.119,-3.119,-3.119,-3.119,-3.119,-3.119,-3.1151,-3.074,-2.9585,-2.8896,-2.831,-2.7685,-2.76,-2.76,-2.76,-2.76,-2.76,-2.76,-2.76,-2.76,-2.76,-2.76,-2.76,-2.76,-2.76,-2.76,-2.76,-2.7675,-2.8034,-2.8697,-2.8712,-2.8946,-2.9423,-2.8637,-2.7437,-2.584,-2.534,-2.5345,-3.4417,-3.4064,-3.3532,-3.2375,-3.2344,-3.2197,-3.0723,-3.0283,-3.0246,-3.0375,0.0,0.0,0.0,0.0,0.0,0.0,-3.0999,-3.1207,-3.1207,-3.1794,-3.2784,-3.4307,-3.5862,-3.6901,-3.7186,-3.7101,-3.7335,-3.8051,-3.7241,-3.6715,-3.6712,-3.6421,-3.6049,-3.5648,-3.5733,-3.5573,-3.5129,-3.4712,-3.3974,-3.292,-3.2444,-3.1756,-3.0942,-3.0942,-3.075,-3.0404,-3.0404,-3.0404,-3.0411,-3.0505,-3.0216,-2.9745,-3.0108,-3.0639,-3.1262,-3.1733,-3.2412,-3.3096,-3.3096,-3.3421,-3.3734,-3.3332,-3.2745,-3.2161,-3.188,-3.1526,-3.119,-3.119,-3.119,-3.119,-3.119,-3.119,-3.119,-3.119,-3.119,-3.119,-3.119,-3.119,-3.119,-3.119,-3.0918,-3.0518,-3.0016,-2.9429,-2.8709,-2.7735,-2.76,-2.76,-2.76,-2.76,-2.76,-2.76,-2.76,-2.76,-2.76,-2.76,-2.76,-2.76,-2.76,-2.76,-2.76,-2.76,-2.7735,-2.8019,-2.8034,-2.8099,-2.8249,-2.7625,-2.682,-2.5941,-2.567,-2.5409,-3.3972,-3.3807,-3.355,-3.254,-3.2284,-3.2008,-3.098,-3.0467,-3.0375,-3.0944,-3.032,0.0,0.0,0.0,-3.0467,-3.0246,0.0,-3.0522,-3.0522,-3.0723,-3.1629,-3.3757,-3.5151,-3.6104,-3.6541,-3.6453,-3.6747,-3.7609,-3.7414,-3.7156,-3.693,-3.6779,-3.635,-3.5625,-3.5428,-3.5056,-3.4513,-3.4013,-3.3095,-3.18,-3.1485,-3.1,-3.0404,-3.0404,-3.0404,-3.0404,-3.0404,-3.0404,-3.0373,-3.0103,-2.9885,-2.9678,-2.9493,-2.9587,-2.9971,-3.076,-3.1586,-3.2284,-3.2284,-3.2797,-3.3391,-3.2991,-3.2711,-3.2417,-3.1933,-3.1526,-3.119,-3.119,-3.119,-3.119,-3.119,-3.119,-3.119,-3.119,-3.119,-3.119,-3.119,-3.119,-3.119,-3.119,-3.0858,-3.0497,-3.033,-2.9805,-2.9042,-2.7993,-2.786,-2.7785,-2.7625,-2.76,-2.76,-2.76,-2.76,-2.76,-2.76,-2.76,-2.76,-2.76,-2.76,-2.76,-2.76,-2.76,-2.76,-2.76,-2.76,-2.7528,-2.7387,-2.6806,-2.6322,-2.5975,-2.5724,-2.5362,-3.3807,-3.3807,-3.3421,-3.1837,-3.1452,-3.1017,-2.9445,-2.9647,-3.021,-3.0228,-3.0815,-3.1342,-3.136,-3.136,-3.1121,-3.0338,-3.0852,0.0,0.0,-3.2027,-3.2271,-3.1599,-3.3605,-3.5371,-3.6225,-3.5853,-3.6187,-3.7772,-3.6942,-3.6677,-3.7422,-3.6983,-3.635,-3.5625,-3.4783,-3.4383,-3.4507,-3.2749,-3.1861,-3.1799,-3.0874,-3.0423,-3.0404,-3.0404,-3.0404,-3.0404,-3.0404,-3.0404,-3.0373,-3.0103,-2.9885,-2.9678,-2.9493,-2.9254,-2.9133,-2.9953,-3.0742,-3.1452,-3.1452,-3.1971,-3.2567,-3.218,-3.225,-3.2417,-3.1933,-3.1526,-3.119,-3.119,-3.119,-3.119,-3.119,-3.119,-3.119,-3.119,-3.119,-3.119,-3.119,-3.119,-3.119,-3.119,-3.119,-3.0995,-3.0414,-2.9805,-2.918,-2.8559,-2.8463,-2.8262,-2.7675,-2.76,-2.76,-2.76,-2.76,-2.76,-2.76,-2.76,-2.76,-2.76,-2.76,-2.76,-2.76,-2.76,-2.76,-2.76,-2.76,-2.76,-2.7604,-2.6867,-2.6136,-2.5398,-2.4706,-2.4619,-3.3005,-3.2614,-3.2082,-3.1544,-3.0999,-3.0467,-2.9922,-2.9592,-2.9555,-3.0099,-3.0411,-3.076,-3.1305,-3.1843,-3.2118,-3.183,-3.2027,-3.2192,0.0,-3.2417,-3.2491,-3.2228,-3.3371,-3.4321,-3.4614,-3.4465,-3.5129,-3.6975,-3.6971,-3.7318,-3.8299,-3.7846,-3.7189,-3.6357,-3.5577,-3.4874,-3.4315,-3.3205,-3.2353,-3.1728,-3.0837,-3.0404,-3.0404,-3.0404,-3.0404,-3.0404,-3.0404,-3.0404,-3.0373,-3.0103,-2.9885,-2.9678,-2.9493,-2.9235,-2.9023,-2.9317,-2.9922,-3.0687,-3.1231,-3.1935,-3.253,-3.2125,-3.223,-3.2417,-3.1933,-3.1526,-3.119,-3.119,-3.119,-3.119,-3.119,-3.119,-3.119,-3.119,-3.119,-3.119,-3.119,-3.119,-3.119,-3.119,-3.119,-3.1151,-3.0918,-3.0393,-2.9783,-2.918,-2.8756,-2.8431,-2.8238,-2.786,-2.76,-2.76,-2.76,-2.76,-2.76,-2.76,-2.76,-2.76,-2.76,-2.76,-2.76,-2.76,-2.76,-2.76,-2.76,-2.76,-2.76,-2.7357,-2.6852,-2.6122,-2.537,-2.4587,-3.2173,-3.1788,-3.1342,-3.1035,-3.0577,-3.021,-3.021,-3.0026,-3.0008,-3.0522,-3.1072,-3.1458,-3.1415,-3.2284,-3.2852,-3.2284,-3.2399,-3.2601,0.0,-3.2839,-3.3036,-3.3036,-3.3476,-3.3807,-3.3807,-3.3807,-3.4576,-3.6422,-3.6967,-3.7623,-3.8581,-3.8227,-3.7603,-3.6731,-3.5649,-3.4658,-3.3744,-3.2985,-3.2136,-3.1231,-3.0673,-3.0404,-3.0404,-3.0404,-3.0404,-3.0404,-3.0404,-3.0404,-3.0398,-3.0209,-2.9973,-2.9687,-2.9551,-2.9301,-2.9005,-2.9005,-2.9335,-2.9886,-3.0687,-3.1494,-3.2146,-3.2053,-3.223,-3.2417,-3.1933,-3.1526,-3.119,-3.119,-3.119,-3.119,-3.119,-3.119,-3.119,-3.119,-3.119,-3.119,-3.119,-3.119,-3.119,-3.119,-3.119,-3.119,-3.119,-3.0878,-3.0335,-2.9518,-2.8896,-2.8415,-2.8213,-2.7835,-2.76,-2.76,-2.76,-2.76,-2.76,-2.76,-2.76,-2.76,-2.76,-2.76,-2.76,-2.76,-2.76,-2.76,-2.76,-2.76,-2.76,-2.76,-2.7229,-2.6484,-2.6014,-2.4979]},{"header":{"parameterUnit":"m.s-1","parameterCategory":1,"la1":30.6,"la2":29.2853,"lo1":-89.7004,"lo2":-87.6739,"dy":0.0162,"dx":0.0183,"nx":112,"ny":82,"refTime":"2024-06-21T12:00:00:Z","depth":0,"parameterNumber":3,"parameterNumberName":"V-component_of_WINDS"},"data":[0.0,0.0,0.0,0.0,0.0,0.0,0.0,0.0,0.0,0.0,0.0,0.0,0.0,0.0,0.0,0.0,0.0,0.0,0.0,0.0,0.0,0.0,0.0,0.0,0.0,0.0,0.0,0.0,0.0,0.0,0.0,0.0,0.0,0.0,0.0,0.0,0.0,0.0,0.0,0.0,0.0,0.0,0.0,0.0,0.0,0.0,0.0,0.0,0.0,0.0,0.0,0.0,0.0,0.0,0.0,0.0,0.0,0.0,0.0,0.0,0.0,0.0,0.0,0.0,0.0,0.0,0.0,0.0,0.0,0.0,0.0,0.0,0.0,0.0,0.0,0.0,0.0,0.0,0.0,0.0,0.0,0.0,0.0,0.0,0.0,0.0,0.0,0.0,0.0,0.0,-1.9825,-2.1074,-2.1193,-2.1436,-2.2061,-2.1771,-2.1686,-2.1892,0.0,0.0,0.0,0.0,0.0,0.0,0.0,0.0,0.0,0.0,0.0,0.0,0.0,0.0,0.0,0.0,0.0,0.0,0.0,0.0,0.0,0.0,0.0,0.0,0.0,0.0,0.0,0.0,0.0,0.0,0.0,0.0,0.0,0.0,0.0,0.0,0.0,0.0,0.0,0.0,0.0,0.0,0.0,0.0,0.0,0.0,0.0,0.0,0.0,0.0,0.0,0.0,0.0,0.0,0.0,0.0,0.0,0.0,0.0,0.0,0.0,0.0,0.0,0.0,0.0,0.0,0.0,0.0,0.0,0.0,0.0,0.0,0.0,0.0,0.0,0.0,0.0,0.0,0.0,0.0,0.0,0.0,0.0,0.0,0.0,0.0,0.0,0.0,0.0,0.0,0.0,0.0,0.0,0.0,0.0,0.0,0.0,0.0,0.0,0.0,0.0,0.0,0.0,0.0,-2.1441,-2.3604,-2.3839,-2.3723,-2.3503,-2.3069,-2.2558,-2.1943,0.0,0.0,0.0,0.0,0.0,0.0,0.0,0.0,0.0,0.0,0.0,0.0,0.0,0.0,0.0,0.0,0.0,0.0,0.0,0.0,0.0,0.0,0.0,0.0,0.0,0.0,0.0,0.0,0.0,0.0,0.0,0.0,0.0,0.0,0.0,0.0,0.0,0.0,0.0,0.0,0.0,0.0,0.0,0.0,0.0,0.0,0.0,0.0,0.0,0.0,0.0,0.0,0.0,0.0,0.0,0.0,0.0,0.0,0.0,0.0,0.0,0.0,0.0,0.0,0.0,0.0,0.0,0.0,0.0,0.0,0.0,0.0,0.0,0.0,0.0,0.0,0.0,0.0,0.0,0.0,0.0,0.0,0.0,0.0,0.0,0.0,0.0,0.0,0.0,0.0,0.0,0.0,0.0,0.0,0.0,0.0,0.0,0.0,0.0,0.0,0.0,0.0,0.0,-2.1355,-2.2522,-2.3563,-2.3935,-2.3906,-2.3477,-2.3208,-2.2783,-2.1934,-2.125,0.0,0.0,0.0,0.0,0.0,0.0,0.0,0.0,0.0,0.0,0.0,0.0,0.0,0.0,0.0,0.0,0.0,0.0,0.0,0.0,0.0,0.0,0.0,0.0,0.0,0.0,0.0,0.0,0.0,0.0,0.0,0.0,0.0,0.0,0.0,0.0,0.0,0.0,0.0,0.0,0.0,0.0,0.0,0.0,0.0,0.0,0.0,0.0,0.0,0.0,0.0,0.0,0.0,0.0,0.0,0.0,0.0,0.0,0.0,0.0,0.0,0.0,0.0,0.0,0.0,0.0,0.0,0.0,0.0,0.0,0.0,0.0,0.0,0.0,0.0,0.0,0.0,0.0,0.0,0.0,0.0,0.0,0.0,0.0,0.0,0.0,0.0,0.0,0.0,0.0,0.0,0.0,0.0,0.0,0.0,0.0,0.0,0.0,0.0,0.0,0.0,0.0,-2.2969,-2.3247,-2.3247,-2.3594,-2.3613,-2.313,-2.3003,-2.2676,-2.1934,-2.1094,0.0,0.0,0.0,0.0,0.0,0.0,0.0,0.0,0.0,0.0,0.0,0.0,0.0,0.0,0.0,0.0,0.0,0.0,0.0,0.0,0.0,0.0,0.0,0.0,0.0,0.0,0.0,0.0,0.0,0.0,0.0,0.0,0.0,0.0,0.0,0.0,0.0,0.0,0.0,0.0,0.0,0.0,0.0,0.0,0.0,0.0,0.0,0.0,0.0,0.0,0.0,0.0,0.0,0.0,0.0,0.0,0.0,0.0,0.0,0.0,0.0,0.0,0.0,0.0,0.0,0.0,0.0,0.0,0.0,0.0,0.0,0.0,0.0,0.0,0.0,0.0,0.0,0.0,0.0,0.0,0.0,0.0,0.0,0.0,0.0,0.0,0.0,0.0,0.0,0.0,0.0,0.0,0.0,0.0,0.0,0.0,0.0,0.0,0.0,0.0,0.0,0.0,-2.3232,-2.374,-2.374,-2.3769,-2.3613,-2.313,-2.2783,-2.2363,-2.1914,-2.1094,0.0,0.0,0.0,0.0,0.0,0.0,0.0,0.0,0.0,0.0,0.0,0.0,0.0,0.0,0.0,0.0,0.0,0.0,0.0,0.0,0.0,0.0,0.0,0.0,0.0,0.0,0.0,0.0,0.0,0.0,0.0,0.0,0.0,0.0,0.0,0.0,0.0,0.0,0.0,0.0,0.0,0.0,0.0,0.0,0.0,0.0,0.0,0.0,0.0,0.0,0.0,0.0,0.0,0.0,0.0,0.0,0.0,0.0,0.0,0.0,0.0,0.0,0.0,0.0,0.0,0.0,0.0,0.0,0.0,0.0,0.0,0.0,0.0,0.0,0.0,0.0,0.0,0.0,0.0,0.0,0.0,0.0,0.0,0.0,0.0,0.0,0.0,0.0,0.0,0.0,0.0,0.0,0.0,0.0,0.0,0.0,0.0,0.0,0.0,0.0,0.0,0.0,-2.2627,-2.3096,-2.3359,-2.3379,-2.3276,-2.311,-2.2955,-2.2617,-2.1934,0.0,0.0,0.0,0.0,0.0,0.0,0.0,0.0,0.0,0.0,0.0,0.0,0.0,0.0,0.0,0.0,0.0,0.0,0.0,0.0,0.0,0.0,0.0,0.0,0.0,0.0,0.0,0.0,0.0,0.0,0.0,0.0,0.0,0.0,0.0,0.0,0.0,0.0,0.0,0.0,0.0,0.0,0.0,0.0,0.0,0.0,0.0,0.0,0.0,0.0,0.0,0.0,0.0,0.0,0.0,0.0,0.0,0.0,0.0,0.0,0.0,0.0,0.0,0.0,0.0,0.0,0.0,0.0,0.0,0.0,0.0,0.0,0.0,0.0,0.0,0.0,0.0,0.0,0.0,0.0,0.0,0.0,0.0,0.0,0.0,0.0,0.0,0.0,0.0,0.0,0.0,0.0,0.0,0.0,0.0,0.0,0.0,0.0,0.0,0.0,0.0,0.0,-2.1836,-2.2373,-2.2822,-2.3062,-2.3091,-2.3091,-2.3091,-2.2974,-2.2578,-2.1728,0.0,0.0,0.0,0.0,0.0,0.0,0.0,0.0,0.0,0.0,0.0,0.0,0.0,0.0,0.0,0.0,0.0,0.0,0.0,0.0,0.0,0.0,0.0,0.0,0.0,0.0,0.0,0.0,0.0,0.0,0.0,0.0,0.0,0.0,0.0,0.0,0.0,0.0,0.0,0.0,0.0,0.0,0.0,0.0,0.0,0.0,0.0,0.0,0.0,0.0,0.0,0.0,0.0,0.0,0.0,0.0,0.0,0.0,0.0,0.0,0.0,0.0,0.0,0.0,0.0,0.0,0.0,0.0,0.0,0.0,0.0,0.0,0.0,0.0,0.0,0.0,0.0,0.0,0.0,0.0,0.0,0.0,0.0,0.0,0.0,0.0,0.0,0.0,0.0,0.0,0.0,0.0,0.0,0.0,0.0,0.0,0.0,0.0,0.0,0.0,0.0,0.0,-2.1836,-2.2617,-2.3091,-2.3091,-2.3091,-2.3091,-2.3091,-2.2754,-2.2107,0.0,0.0,0.0,0.0,0.0,0.0,0.0,0.0,0.0,0.0,0.0,0.0,0.0,0.0,0.0,0.0,0.0,0.0,0.0,0.0,0.0,0.0,0.0,0.0,0.0,0.0,0.0,0.0,0.0,0.0,0.0,0.0,0.0,0.0,0.0,0.0,0.0,0.0,0.0,0.0,0.0,0.0,0.0,0.0,0.0,0.0,0.0,0.0,0.0,0.0,0.0,0.0,0.0,0.0,0.0,0.0,0.0,0.0,0.0,0.0,0.0,0.0,0.0,0.0,0.0,0.0,0.0,0.0,0.0,0.0,0.0,0.0,0.0,0.0,0.0,0.0,0.0,0.0,0.0,0.0,0.0,0.0,0.0,0.0,0.0,0.0,0.0,0.0,0.0,0.0,0.0,0.0,0.0,0.0,0.0,0.0,0.0,0.0,0.0,0.0,0.0,0.0,0.0,-2.1836,-2.2617,-2.3091,-2.3091,-2.3091,-2.3091,-2.3091,-2.2984,-2.2418,-2.1268,0.0,0.0,0.0,0.0,0.0,0.0,0.0,0.0,0.0,0.0,0.0,0.0,0.0,0.0,0.0,0.0,0.0,0.0,0.0,0.0,0.0,0.0,0.0,0.0,0.0,0.0,0.0,0.0,0.0,0.0,0.0,0.0,0.0,0.0,0.0,0.0,0.0,0.0,0.0,0.0,0.0,0.0,0.0,0.0,0.0,0.0,0.0,0.0,0.0,0.0,0.0,0.0,0.0,0.0,0.0,0.0,0.0,0.0,0.0,0.0,0.0,0.0,0.0,0.0,0.0,0.0,0.0,0.0,0.0,0.0,0.0,0.0,0.0,0.0,0.0,0.0,0.0,0.0,0.0,0.0,0.0,0.0,0.0,0.0,0.0,0.0,0.0,0.0,0.0,0.0,0.0,0.0,0.0,0.0,0.0,0.0,0.0,0.0,0.0,0.0,0.0,0.0,-2.1807,-2.2617,-2.3091,-2.3091,-2.3091,-2.3091,-2.3091,-2.3091,-2.2555,-2.1278,0.0,0.0,0.0,0.0,0.0,0.0,0.0,0.0,0.0,0.0,0.0,0.0,0.0,0.0,0.0,0.0,0.0,0.0,0.0,0.0,0.0,0.0,0.0,0.0,0.0,0.0,0.0,0.0,0.0,0.0,0.0,0.0,0.0,0.0,0.0,0.0,0.0,0.0,0.0,0.0,0.0,0.0,0.0,0.0,0.0,0.0,0.0,0.0,0.0,0.0,0.0,0.0,0.0,0.0,0.0,0.0,0.0,0.0,0.0,0.0,0.0,0.0,0.0,0.0,0.0,0.0,0.0,0.0,0.0,0.0,0.0,0.0,0.0,0.0,0.0,0.0,0.0,0.0,0.0,0.0,0.0,0.0,0.0,0.0,0.0,0.0,0.0,0.0,0.0,0.0,0.0,0.0,0.0,0.0,0.0,0.0,0.0,0.0,0.0,0.0,0.0,0.0,-2.1768,-2.2617,-2.3091,-2.3091,-2.3091,-2.3091,-2.3091,-2.3091,-2.2607,-2.1478,0.0,0.0,0.0,0.0,0.0,0.0,0.0,0.0,0.0,0.0,0.0,0.0,0.0,0.0,0.0,0.0,0.0,0.0,0.0,0.0,0.0,0.0,0.0,0.0,0.0,0.0,0.0,0.0,0.0,0.0,0.0,0.0,0.0,0.0,0.0,0.0,0.0,0.0,0.0,0.0,0.0,0.0,0.0,0.0,0.0,0.0,0.0,0.0,0.0,0.0,0.0,0.0,0.0,0.0,0.0,0.0,0.0,0.0,0.0,0.0,-1.4436,-1.4292,0.0,0.0,0.0,0.0,0.0,0.0,0.0,0.0,0.0,0.0,0.0,0.0,0.0,0.0,0.0,0.0,0.0,0.0,0.0,0.0,0.0,0.0,0.0,0.0,0.0,0.0,0.0,0.0,0.0,0.0,0.0,0.0,0.0,0.0,0.0,0.0,0.0,0.0,0.0,0.0,-2.1768,-2.2617,-2.3091,-2.3091,-2.3091,-2.3091,-2.3091,-2.3091,-2.3057,-2.3029,-2.2596,0.0,0.0,0.0,0.0,0.0,0.0,0.0,0.0,0.0,0.0,0.0,0.0,0.0,0.0,0.0,0.0,0.0,0.0,0.0,0.0,0.0,0.0,0.0,0.0,0.0,0.0,0.0,0.0,0.0,0.0,0.0,0.0,0.0,0.0,0.0,0.0,0.0,0.0,0.0,0.0,0.0,0.0,0.0,0.0,0.0,0.0,0.0,0.0,0.0,0.0,0.0,0.0,0.0,0.0,0.0,0.0,0.0,0.0,0.0,-1.4863,-1.4736,0.0,0.0,0.0,0.0,0.0,0.0,0.0,0.0,0.0,0.0,0.0,0.0,0.0,0.0,0.0,0.0,0.0,0.0,0.0,0.0,0.0,0.0,0.0,0.0,0.0,0.0,0.0,0.0,0.0,0.0,0.0,0.0,0.0,0.0,0.0,0.0,0.0,0.0,0.0,0.0,-2.1797,-2.2617,-2.3091,-2.3091,-2.3091,-2.3299,-2.3887,-2.392,-2.4125,-2.4599,-2.3883,0.0,0.0,0.0,0.0,0.0,0.0,0.0,0.0,0.0,0.0,0.0,0.0,0.0,0.0,0.0,0.0,0.0,0.0,0.0,0.0,0.0,0.0,0.0,0.0,0.0,0.0,0.0,0.0,0.0,0.0,0.0,0.0,0.0,0.0,0.0,0.0,0.0,0.0,0.0,0.0,0.0,0.0,0.0,0.0,0.0,0.0,0.0,0.0,0.0,0.0,0.0,0.0,0.0,-1.502,-1.5471,-1.5471,-1.5471,-1.5471,-1.5458,-1.5217,-1.5129,-1.5068,-1.4776,0.0,0.0,0.0,0.0,0.0,0.0,0.0,0.0,0.0,0.0,0.0,0.0,0.0,0.0,0.0,0.0,0.0,0.0,0.0,0.0,0.0,0.0,-2.21,-2.21,-2.2373,-2.2324,-2.125,0.0,0.0,0.0,0.0,0.0,0.0,0.0,0.0,0.0,0.0,0.0,-2.1836,-2.2617,-2.3091,-2.3091,-2.3256,-2.38,-2.4702,-2.4999,-2.5415,-2.616,-2.5315,-2.4747,0.0,0.0,0.0,0.0,0.0,0.0,0.0,0.0,0.0,0.0,0.0,0.0,0.0,0.0,0.0,0.0,0.0,0.0,0.0,0.0,0.0,0.0,0.0,0.0,0.0,0.0,0.0,0.0,0.0,0.0,0.0,0.0,-0.6409,-0.645,0.0,0.0,0.0,0.0,0.0,0.0,0.0,0.0,0.0,0.0,0.0,0.0,0.0,-1.0869,-1.1048,-1.3568,-1.4976,-1.516,-1.5558,-1.5772,-1.5772,-1.5772,-1.5772,-1.5772,-1.5732,0.0,-1.5337,-1.5297,0.0,0.0,0.0,0.0,0.0,0.0,0.0,0.0,0.0,0.0,0.0,0.0,0.0,0.0,0.0,0.0,0.0,0.0,0.0,0.0,0.0,0.0,-2.2925,-2.2925,-2.2974,-2.2964,-2.2789,-2.2227,-2.1582,-2.1103,-2.1025,-2.0761,0.0,0.0,0.0,0.0,0.0,0.0,-2.1836,-2.2617,-2.3091,-2.3091,-2.4006,-2.4628,-2.4787,-2.5714,-2.6726,-2.7749,-2.7234,-2.7277,-2.8176,-2.6793,0.0,0.0,0.0,0.0,0.0,0.0,0.0,0.0,0.0,0.0,0.0,0.0,0.0,0.0,0.0,0.0,0.0,0.0,0.0,0.0,0.0,0.0,0.0,0.0,0.0,0.0,0.0,0.0,0.0,-0.6296,-0.6545,-0.659,-0.6797,-0.6825,0.0,0.0,0.0,0.0,0.0,0.0,0.0,0.0,0.0,-0.7712,-0.8748,-1.0069,-1.1604,-1.285,-1.4152,-1.5645,-1.5718,-1.5784,-1.5784,-1.5784,-1.5784,-1.5784,-1.5784,-1.5711,-1.5625,-1.5464,-1.5317,-1.519,0.0,0.0,0.0,0.0,-1.6505,-1.7661,-1.9109,-2.0312,-2.1252,-2.1506,0.0,0.0,0.0,0.0,0.0,0.0,0.0,-2.2275,-2.2461,-2.2779,-2.3091,-2.3091,-2.3091,-2.3091,-2.3091,-2.2808,-2.2461,-2.199,-2.1912,-2.1639,-2.0761,-2.0859,0.0,0.0,0.0,-2.2021,-2.2217,-2.329,-2.4049,-2.4049,-2.5094,-2.6005,-2.6603,-2.7105,-2.7867,-2.8988,-2.8513,-2.8409,-2.8888,-2.7632,-2.6813,0.0,0.0,0.0,0.0,0.0,0.0,0.0,0.0,0.0,0.0,0.0,0.0,0.0,0.0,0.0,0.0,0.0,0.0,0.0,0.0,0.0,0.0,0.0,0.0,0.0,0.0,0.0,0.0,-0.6603,-0.6788,-0.6858,-0.7037,-0.7082,0.0,0.0,0.0,0.0,0.0,0.0,-0.7648,-0.7729,-0.7821,-0.7926,-0.8641,-0.9989,-1.2063,-1.2806,-1.4049,-1.5945,-1.5945,-1.5905,-1.5784,-1.5784,-1.5784,-1.5784,-1.5784,-1.5784,-1.5764,-1.5591,-1.5504,-1.5484,-1.5271,-1.5137,-1.5129,-1.5558,-1.6944,-1.8692,-1.9411,-2.0902,-2.248,-2.2275,-2.2139,-2.1924,-2.126,0.0,0.0,0.0,0.0,-2.2539,-2.2646,-2.2867,-2.3091,-2.3091,-2.3091,-2.3091,-2.3091,-2.3091,-2.3003,-2.2691,-2.2676,-2.2389,-2.1648,-2.1836,0.0,-2.1465,-2.2041,-2.2595,-2.2914,-2.4019,-2.4914,-2.521,-2.6254,-2.7238,-2.8044,-2.8386,-2.8897,-2.9753,-2.939,-2.9113,-2.9113,-2.8222,-2.7507,-2.714,0.0,0.0,0.0,0.0,0.0,0.0,0.0,0.0,0.0,0.0,0.0,0.0,0.0,0.0,0.0,0.0,0.0,0.0,0.0,0.0,0.0,0.0,0.0,0.0,0.0,0.0,0.0,0.0,0.0,-0.7381,-0.759,0.0,0.0,0.0,0.0,-0.7577,-0.7709,-0.779,-0.7801,-0.8079,-0.8292,-0.8299,-1.0919,-1.2398,-1.2562,-1.5167,-1.6421,-1.6253,-1.6253,-1.6106,-1.5784,-1.5784,-1.5784,-1.5784,-1.5784,-1.5784,-1.5784,-1.5764,-1.5758,-1.5758,-1.5792,-1.5618,-1.5543,-1.7018,-1.8199,-1.9251,-2.0686,-2.1752,-2.2578,-2.2906,-2.2769,-2.2471,-2.2432,-2.2148,0.0,0.0,-2.249,-2.2607,-2.2955,-2.3081,-2.3091,-2.3091,-2.3091,-2.3091,-2.3091,-2.3091,-2.3091,-2.3062,-2.3062,-2.2925,-2.2519,0.0,-2.2334,-2.1924,-2.2227,-2.2872,-2.4002,-2.4514,-2.521,-2.6307,-2.736,-2.8044,-2.8096,-2.9106,-2.9753,-2.9792,-2.9767,-2.9741,-2.9741,-2.9164,-2.88,-2.8762,-2.7205,0.0,0.0,0.0,0.0,0.0,0.0,0.0,0.0,0.0,0.0,0.0,0.0,0.0,0.0,0.0,0.0,0.0,0.0,0.0,0.0,0.0,0.0,0.0,0.0,0.0,0.0,0.0,0.0,-0.7519,-0.7692,0.0,-0.7536,-0.7651,-0.7736,-0.7736,-0.7967,-0.8106,-0.8106,-0.8296,-0.8865,-0.9836,-1.0815,-1.2233,-1.3976,-1.5002,-1.5827,-1.6553,-1.6553,-1.64,-1.6112,-1.6112,-1.6012,-1.5784,-1.5784,-1.5784,-1.5784,-1.5784,-1.5784,-1.5784,-1.5784,-1.5718,-1.5826,-1.7181,-1.8379,-1.9549,-2.0846,-2.1982,-2.2896,-2.3042,-2.2994,-2.2877,-2.2877,-2.2812,-2.2682,-2.2828,-2.2877,-2.2906,-2.3052,-2.3091,-2.3091,-2.3091,-2.3091,-2.3091,-2.3091,-2.3091,-2.3091,-2.3091,-2.3091,-2.2964,-2.2588,-2.2691,-2.3021,-2.335,-2.374,-2.4388,-2.5515,-2.6431,-2.7064,-2.7493,-2.853,-2.9197,-2.9197,-2.9573,-2.9792,-2.9792,-2.9792,-2.9792,-2.9792,-2.9591,-2.9139,-2.8411,-2.7821,-2.6716,0.0,0.0,0.0,0.0,0.0,0.0,0.0,0.0,0.0,0.0,0.0,0.0,0.0,0.0,0.0,0.0,0.0,0.0,0.0,0.0,0.0,0.0,0.0,0.0,0.0,-0.7512,-0.7672,-0.7672,-0.7801,-0.7831,-0.7685,-0.7801,-0.7909,-0.7963,-0.8157,-0.8344,-0.834,-0.8479,-0.9233,-1.0741,-1.1269,-1.2658,-1.4958,-1.5478,-1.6113,-1.6854,-1.6854,-1.67,-1.642,-1.642,-1.6313,-1.6119,-1.6019,-1.5979,-1.5972,-1.5872,-1.5784,-1.5784,-1.5784,-1.5784,-1.5967,-1.7225,-1.8457,-1.9716,-2.1346,-2.2448,-2.3091,-2.3091,-2.3091,-2.3091,-2.3091,-2.3091,-2.3091,-2.3091,-2.3091,-2.3091,-2.3091,-2.3091,-2.3091,-2.3091,-2.3091,-2.3091,-2.3091,-2.3091,-2.3222,-2.3594,-2.3343,-2.3134,-2.3258,-2.3156,-2.3547,-2.4804,-2.4892,-2.5336,-2.683,-2.7643,-2.8255,-2.8636,-2.9365,-2.9792,-2.9792,-2.9792,-2.9792,-2.9792,-2.9792,-2.9792,-2.9792,-2.9603,-2.9151,-2.8398,-2.8009,-2.7105,-2.5649,0.0,0.0,0.0,0.0,0.0,0.0,0.0,0.0,0.0,0.0,0.0,0.0,0.0,0.0,0.0,0.0,0.0,0.0,0.0,0.0,0.0,0.0,0.0,-0.7607,-0.7729,-0.7818,-0.7818,-0.7901,-0.7931,-0.7831,-0.7901,-0.8102,-0.831,-0.8327,-0.834,-0.8482,-0.8635,-0.9405,-1.0937,-1.251,-1.4019,-1.547,-1.6876,-1.7494,-1.7213,-1.7213,-1.7058,-1.672,-1.672,-1.6714,-1.6693,-1.64,-1.6321,-1.6253,-1.5952,-1.5784,-1.5784,-1.5784,-1.5784,-1.5967,-1.7271,-1.8549,-1.9951,-2.2271,-2.3091,-2.3091,-2.3091,-2.3091,-2.3091,-2.3091,-2.3091,-2.3091,-2.3091,-2.3091,-2.3091,-2.3091,-2.3091,-2.3091,-2.3091,-2.3091,-2.3091,-2.3091,-2.3135,-2.3464,-2.4585,-2.392,-2.3551,-2.466,-2.392,-2.3973,-2.6224,-2.563,0.0,-2.7884,-2.8136,-2.8597,-2.9663,-2.9792,-2.9792,-2.9792,-2.9792,-2.9792,-2.9792,-2.9792,-2.9792,-2.9792,-2.9252,-2.8913,-2.8913,-2.7858,-2.7329,-2.7306,0.0,0.0,0.0,0.0,0.0,0.0,0.0,0.0,0.0,0.0,0.0,0.0,0.0,0.0,0.0,0.0,0.0,0.0,0.0,0.0,0.0,-0.678,-0.7753,-0.7753,-0.7882,-0.7928,-0.7928,-0.7965,-0.7975,-0.7931,-0.7965,-0.8102,-0.831,-0.8367,-0.8489,-0.8638,-0.8794,-1.0007,-1.2583,-1.3072,-1.4508,-1.6982,-1.7417,-1.7542,-1.7514,-1.7514,-1.736,-1.7079,-1.7079,-1.6907,-1.6693,-1.64,-1.6321,-1.6253,-1.5952,-1.5784,-1.5784,-1.5784,-1.5784,-1.6055,-1.8218,-2.0314,-2.2227,-2.2862,-2.3091,-2.3091,-2.3091,-2.3091,-2.3091,-2.3091,-2.3091,-2.3091,-2.3091,-2.3091,-2.3091,-2.3091,-2.3091,-2.3091,-2.3091,-2.3091,-2.3091,-2.3091,-2.3757,-2.4414,-2.4745,-2.5221,-2.5641,-2.5975,-2.5766,-2.6047,-2.7441,-2.7389,-2.7723,-2.9157,-2.9326,-2.9443,-2.9753,-2.9792,-2.9792,-2.9792,-2.9792,-2.9792,-2.9792,-2.9792,-2.9792,-2.9792,-2.9641,-2.9553,-2.9553,-2.8059,-2.7482,0.0,0.0,0.0,0.0,0.0,0.0,0.0,0.0,0.0,0.0,0.0,0.0,0.0,0.0,0.0,0.0,0.0,0.0,0.0,0.0,0.0,0.0,-0.612,-0.7263,-0.7808,-0.7934,-0.7988,-0.7988,-0.7988,-0.7988,-0.7988,-0.8099,-0.8197,-0.8347,-0.8492,-0.8645,-0.8798,-0.8834,-0.997,-1.2295,-1.2999,-1.4073,-1.5796,-1.6988,-1.7305,-1.6717,-1.7312,-1.7495,-1.738,-1.738,-1.7235,-1.7048,-1.6633,-1.6453,-1.642,-1.5999,-1.5784,-1.5784,0.0,0.0,0.0,0.0,-2.1445,-2.3091,-2.3091,-2.3091,-2.3091,-2.3091,-2.3091,-2.3091,-2.3091,-2.3091,-2.3091,-2.3091,-2.3091,-2.3091,-2.3091,-2.3091,-2.3091,-2.3091,-2.3091,-2.3091,-2.3091,-2.3637,-2.4382,-2.5336,-2.6058,0.0,-2.7718,-2.7098,-2.7005,-2.8569,-2.8426,-2.8505,-2.9663,-2.9792,-2.9792,-2.9792,-2.9792,-2.9792,-2.9792,-2.9792,0.0,0.0,0.0,-2.9679,-2.944,-2.9428,0.0,0.0,0.0,0.0,0.0,0.0,0.0,0.0,-2.8084,-2.8185,0.0,0.0,0.0,0.0,0.0,0.0,0.0,0.0,0.0,0.0,0.0,0.0,0.0,0.0,0.0,0.0,-0.5007,-0.6431,-0.7587,-0.7889,-0.7988,-0.7988,-0.7988,-0.7995,-0.8015,-0.8191,-0.8388,-0.8496,-0.8632,-0.8777,-0.8875,-0.8885,0.0,0.0,0.0,-1.3107,-1.3318,-1.6015,-1.6717,-1.5417,-1.6876,-1.7582,-1.7582,-1.7582,-1.7582,-1.7549,-1.6961,-1.6707,-1.666,-1.6072,-1.5784,-1.5784,-1.5784,-1.6662,-1.8141,-2.0305,-2.1943,-2.3091,-2.3091,0.0,0.0,-2.3091,-2.3091,-2.3091,-2.3091,-2.3091,-2.3091,-2.3091,-2.3091,-2.3091,-2.3091,-2.3091,-2.3091,-2.3091,-2.3091,-2.3144,-2.3256,-2.3387,-2.4102,-2.6265,-2.676,-2.7516,-2.9456,-2.8171,-2.7557,-2.9507,-2.8937,-2.8648,-2.9663,-2.9792,-2.9792,-2.9792,-2.9792,0.0,-2.9792,-2.9792,-2.9792,-2.9792,-2.9792,-2.9566,-2.9013,-2.8988,-2.8988,-2.8988,-2.8988,-2.9239,-2.9792,-2.9792,-2.9792,-2.9754,-2.826,-2.8097,0.0,0.0,0.0,0.0,0.0,0.0,0.0,0.0,0.0,0.0,0.0,0.0,0.0,0.0,0.0,-0.2326,-0.4405,-0.6079,-0.6329,-0.7335,-0.7988,-0.7988,-0.7988,-0.8039,-0.8214,-0.8252,-0.8381,-0.8648,-0.8693,-0.8777,-0.8875,-0.8885,-0.9592,-1.1051,-1.1374,-1.2077,-1.3264,-1.4984,-1.5683,-1.5417,-1.6876,0.0,-1.7582,-1.7582,-1.7582,-1.7549,-1.6961,-1.6707,-1.666,-1.6072,-1.5784,-1.5784,-1.5784,-1.7156,-1.9222,-1.967,-2.1221,-2.3091,-2.3091,-2.3091,-2.3091,-2.3091,-2.3091,-2.3091,-2.3091,-2.3091,0.0,-2.3091,-2.3091,-2.3091,-2.3091,-2.3091,-2.3091,-2.3091,-2.3091,-2.3343,-2.4253,-2.5168,-2.6213,-2.7522,-2.853,-2.93,-2.9714,-2.9456,-2.93,-2.9753,-2.9624,-2.9534,-2.9753,-2.9792,-2.9792,-2.9792,-2.9792,-2.9792,-2.9792,-2.9792,-2.9792,-2.9792,-2.9792,-2.9741,-2.9628,-2.9628,-2.9628,-2.9628,-2.9628,-2.9679,-2.9792,-2.9792,-2.9792,-2.9779,-2.9465,-2.9428,0.0,0.0,0.0,0.0,0.0,0.0,0.0,0.0,0.0,0.0,0.0,0.0,0.0,0.0,-0.1215,-0.188,-0.3148,-0.4472,-0.5827,-0.6581,-0.7235,-0.7939,-0.7988,-0.8099,-0.8255,-0.8385,-0.8469,-0.8693,-0.8781,-0.8804,-0.8878,-0.8885,-0.9265,-0.997,-1.0726,-1.1428,-1.2186,-1.3642,-1.4716,-1.5417,-1.6174,-1.6876,-1.7582,-1.7582,-1.7582,-1.7549,-1.6961,-1.6707,-1.666,-1.6072,-1.5784,-1.5784,-1.5784,-1.7343,-1.9579,-2.0169,-2.1534,-2.3091,-2.3091,-2.3091,-2.3091,-2.3091,-2.3091,-2.3091,-2.3091,-2.3091,-2.3091,-2.3091,-2.3091,-2.3091,-2.3091,-2.3091,-2.3091,-2.3091,-2.3091,-2.343,-2.4542,-2.5252,-2.6119,-2.7763,-2.8557,-2.9145,-2.9702,-2.9792,-2.9792,-2.9792,-2.9792,-2.9792,-2.9792,-2.9792,-2.9792,-2.9792,-2.9792,-2.9792,-2.9792,-2.9792,-2.9792,-2.9792,-2.9792,-2.9792,-2.9792,-2.9792,-2.9792,-2.9792,-2.9792,-2.9792,-2.9792,-2.9792,-2.9792,-2.9792,-2.9792,-2.9792,0.0,0.0,0.0,0.0,0.0,0.0,0.0,0.0,0.0,0.0,0.0,0.0,0.0,0.0,-0.0347,-0.1457,-0.1812,-0.2765,-0.4924,-0.5677,-0.6381,-0.7484,-0.7839,-0.8109,-0.8292,-0.8414,-0.8557,-0.874,-0.8814,-0.8885,-0.8885,-0.8885,-0.8885,-0.8885,-1.0025,-1.0676,-1.0676,-1.2132,-1.3588,-1.499,-1.5257,-1.6174,-1.7582,-1.7582,-1.7549,-1.7468,-1.6881,-1.6587,-1.65,-1.6025,-1.5784,-1.5784,-1.5784,-1.7343,-1.9625,-2.0567,-2.1854,-2.3091,-2.3091,-2.3091,-2.3091,-2.3091,-2.3091,-2.3091,-2.3091,-2.3091,-2.3091,-2.3091,-2.3091,-2.3091,-2.3091,-2.3091,-2.3091,-2.3091,-2.3091,-2.343,-2.4542,-2.4957,-2.5703,-2.7711,-2.8295,-2.8727,-2.9624,-2.9792,-2.9792,-2.9792,-2.9792,-2.9792,-2.9792,-2.9792,-2.9792,-2.9792,-2.9792,-2.9792,-2.9792,-2.9792,-2.9792,-2.9792,-2.9792,-2.9792,-2.9792,-2.9792,-2.9792,-2.9792,-2.9792,-2.9792,-2.9792,-2.9792,-2.9792,-2.9792,-2.9792,-2.9895,0.0,0.0,0.0,0.0,0.0,0.0,0.0,0.0,0.0,0.0,0.0,0.0,0.0,0.0,-0.005,-0.0202,-0.1209,-0.2113,-0.2414,-0.4522,-0.6079,-0.6229,-0.7285,-0.815,-0.8431,-0.8472,-0.8601,-0.8838,-0.8871,-0.8885,-0.8885,-0.8885,-0.8885,-0.8885,-0.9047,-0.9154,-0.9154,-1.0621,-1.2077,-1.3534,-1.4824,-1.6174,-1.7582,-1.7582,-1.7494,-1.7213,-1.6623,-1.6172,-1.5919,-1.5804,-1.5784,-1.5784,-1.5784,-1.7343,-1.9542,-1.967,-2.1132,-2.3091,-2.3091,-2.3091,-2.3091,-2.3091,-2.3091,-2.3091,-2.3091,-2.3091,-2.3091,-2.3091,-2.3091,-2.3091,-2.3091,-2.3091,-2.3091,-2.3091,-2.3091,-2.343,-2.4542,-2.5599,-2.6666,-2.7884,-2.8937,-2.9663,-2.9792,-2.9792,-2.9792,-2.9792,-2.9792,-2.9792,-2.9792,-2.9792,-2.9792,-2.9792,-2.9792,-2.9792,-2.9792,-2.9792,-2.9792,-2.9792,-2.9792,-2.9792,-2.9792,-2.9792,-2.9792,-2.9792,-2.9792,-2.9792,-2.9792,-2.9792,-2.9792,-2.9792,-2.9792,-3.0241,0.0,0.0,0.0,0.0,0.0,0.0,0.0,0.0,0.0,0.0,0.0,0.0,0.0,0.0,0.0,0.0,-0.0457,-0.1113,-0.189,-0.2987,-0.3969,-0.472,-0.6133,-0.7421,-0.8406,-0.8564,-0.8706,-0.8868,-0.8885,-0.8885,-0.8885,-0.8885,-0.8885,-0.8885,-0.8885,-0.932,-1.0186,-1.0781,-1.224,-1.4556,-1.5097,-1.6174,-1.7575,-1.746,-1.7132,-1.6677,-1.6429,-1.6106,-1.5784,-1.5784,-1.5784,-1.5872,-1.6622,-1.7948,-1.9497,-1.9497,-2.1042,-2.3091,-2.3091,-2.3091,-2.3091,-2.3091,-2.3091,-2.3091,-2.3091,-2.3091,-2.3091,-2.3091,-2.3091,-2.3091,-2.3091,-2.3091,-2.3091,-2.3091,-2.3091,-2.343,-2.4542,-2.5168,-2.6036,-2.7763,-2.8466,-2.9028,-2.9702,-2.9792,-2.9792,-2.9792,-2.9792,-2.9792,-2.9792,-2.9792,-2.9792,-2.9792,-2.9792,-2.9792,-2.9792,-2.9792,-2.9792,-2.9792,-2.9792,-2.9792,-2.9792,-2.9792,-2.9792,-2.9792,-2.9792,-2.9792,-2.9792,-2.9792,-2.9792,-2.9792,-3.0343,-3.1119,0.0413,0.0238,0.0,0.0,0.0,0.0,0.0,0.0,0.0,0.0,0.0,0.0,0.0,0.0,0.0,0.0,0.0,-0.0358,-0.1293,-0.1791,-0.2382,-0.3341,-0.4781,-0.6334,-0.7781,-0.8428,-0.8774,-0.8871,-0.8885,-0.8885,-0.8885,-0.8885,-0.8885,-0.8885,-0.8885,-0.9427,-1.0457,-1.0511,-1.1969,-1.4824,-1.4824,-1.576,-1.7501,-1.7132,-1.6723,-1.6266,-1.6186,-1.6025,-1.5784,-1.5784,-1.5784,-1.5872,-1.6803,-1.8133,-1.9497,-1.9497,-2.1042,-2.3091,-2.3091,-2.3091,-2.3091,-2.3091,-2.3091,-2.3091,-2.3091,-2.3091,-2.3091,-2.3091,-2.3091,-2.3091,-2.3091,-2.3091,-2.3091,-2.3091,-2.3091,-2.3343,-2.4168,-2.4585,-2.5368,-2.7279,-2.7884,-2.8478,-2.9585,-2.9792,-2.9792,-2.9792,-2.9792,-2.9792,-2.9792,-2.9792,-2.9792,-2.9792,-2.9792,-2.9792,-2.9792,-2.9792,-2.9792,-2.9792,-2.9792,-2.9792,-2.9792,-2.9792,-2.9792,-2.9792,-2.9792,-2.9792,-2.9792,-2.9792,-2.9792,-2.983,-3.0758,-3.1706,0.1516,0.0785,0.0,0.0,0.0,0.0,0.0,0.0,0.0,0.0,0.0,0.0,0.0,0.0,0.0,0.0,0.0,0.0,-0.0052,-0.1191,-0.2016,-0.2068,-0.3357,-0.4854,-0.6406,-0.7834,-0.8774,-0.8871,-0.8885,-0.8885,-0.8885,-0.8885,-0.8885,-0.8885,-0.8885,-0.8937,-0.8992,-0.8992,-1.0457,-1.3372,-1.3372,-1.4705,-1.7192,-1.6616,-1.6342,-1.6259,-1.5972,-1.5791,-1.5784,-1.5784,-1.5784,-1.5784,-1.5825,-1.7343,-1.9497,-1.9497,-2.1042,-2.3091,-2.3091,-2.3091,-2.3091,-2.3091,-2.3091,-2.3091,-2.3091,-2.3091,-2.3091,-2.3091,-2.3091,-2.3091,-2.3091,-2.3091,-2.3091,-2.3091,-2.3091,-2.3091,-2.3135,-2.4006,-2.5168,-2.6307,-2.74,-2.8478,-2.9585,-2.9792,-2.9792,-2.9792,-2.9792,-2.9792,-2.9792,-2.9792,-2.9792,-2.9792,-2.9792,-2.9792,-2.9792,-2.9792,-2.9792,-2.9792,-2.9792,-2.9792,-2.9792,-2.9792,-2.9792,-2.9792,-2.9792,-2.9792,-2.9792,-2.9792,-2.9792,-2.983,-3.0758,-3.1706,0.1367,0.0706,0.0,0.0,0.0,0.0,0.0,0.0,0.0,0.0,0.0,0.0,0.0,0.0,0.0,0.0,0.0,0.0,0.0,-0.0373,-0.0686,-0.0686,-0.198,-0.3087,-0.3594,-0.5884,-0.7825,-0.8823,-0.8885,-0.8885,-0.8885,-0.8885,-0.8885,-0.8885,-0.8885,-0.8885,-0.8885,-0.9864,-1.1378,-1.3318,-1.5036,-1.6239,-1.684,-1.6453,-1.6166,-1.5972,-1.5872,-1.5784,-1.5784,-1.5784,-1.5784,-1.5872,-1.6716,-1.8041,-1.9579,-2.0395,-2.1712,-2.3091,-2.3091,-2.3091,-2.3091,-2.3091,-2.3091,-2.3091,-2.3091,-2.3091,-2.3091,-2.3091,-2.3091,-2.3091,-2.3091,-2.3091,-2.3091,-2.3091,-2.3091,-2.3091,-2.3091,-2.3387,-2.4221,-2.6141,-2.6801,-2.7626,-2.9495,-2.9792,-2.9792,-2.9792,-2.9792,-2.9792,-2.9792,-2.9792,-2.9792,-2.9792,-2.9792,-2.9792,-2.9792,-2.9792,-2.9792,-2.9792,-2.9792,-2.9792,-2.9792,-2.9792,-2.9792,-2.9792,-2.9792,-2.9792,-2.9792,-2.9792,-2.9792,-2.983,-3.1402,-3.2321,0.1482,0.0706,0.0,0.0,0.0,0.0,0.0,0.0,0.0,0.0,0.0,0.0,0.0,0.0,0.0,0.0,0.0,0.0,0.0,0.0,0.0,0.0,-0.0819,-0.1601,-0.2166,-0.3976,-0.5956,-0.7934,-0.8647,-0.8991,-0.8888,-0.8885,-0.8885,-0.8885,-0.8885,-0.8885,-0.8885,-0.986,-1.1235,-1.3143,-1.5231,-1.6366,-1.654,-1.6246,-1.6012,-1.5784,-1.5784,-1.5784,-1.5784,-1.5784,-1.5784,-1.5879,-1.6716,-1.777,-1.9001,-2.0215,-2.1445,-2.2536,-2.296,-2.3091,-2.3091,-2.3091,-2.3091,-2.3091,-2.3091,-2.3091,-2.3091,-2.3091,-2.3091,-2.3091,-2.3091,-2.3091,-2.3091,-2.3091,-2.3091,-2.3222,-2.3637,-2.3714,-2.4382,-2.6625,-2.7087,-2.7666,-2.9495,-2.9792,-2.9792,-2.9792,-2.9792,-2.9792,-2.9792,-2.9792,-2.9792,-2.9792,-2.9792,-2.9792,-2.9792,-2.9792,-2.9792,-2.9792,-2.9792,-2.9792,-2.9792,-2.9792,-2.9792,-2.9792,-2.9792,-2.9792,-2.9792,-2.9792,-2.9972,-3.0355,-3.1865,-3.2784,0.1827,0.0823,0.0,0.0,0.0,0.0,0.0,0.0,0.0,0.0,0.0,0.0,0.0,0.0,0.0,0.0,0.0,0.0,0.0,0.0,0.0,0.0,0.0,-0.0564,-0.1946,-0.2177,-0.3413,-0.6381,-0.8102,-0.9023,-0.8892,-0.8885,-0.8885,-0.8885,-0.8885,-0.8885,-0.8885,-0.8992,-1.0319,-1.2841,-1.3951,-1.5132,-1.6335,-1.5972,-1.5784,-1.5784,-1.5784,-1.5784,-1.5784,-1.5784,-1.5784,-1.5784,-1.5784,-1.6574,-1.787,-1.9039,-2.026,-2.1471,-2.2677,-2.3091,-2.3091,-2.3091,-2.3091,-2.3091,-2.3091,-2.3091,-2.3091,-2.3091,-2.3091,-2.3091,-2.3091,-2.3091,-2.3091,-2.3091,-2.3091,-2.3387,-2.4457,-2.4745,-2.5452,-2.7591,-2.8096,-2.8518,-2.9624,-2.9792,-2.9792,-2.9792,-2.9792,-2.9792,-2.9792,-2.9792,-2.9792,-2.9792,-2.9792,-2.9792,-2.9792,-2.9792,-2.9792,-2.9792,-2.9792,-2.9792,-2.9792,-2.9792,-2.9792,-2.9792,-2.9792,-2.9792,-2.9792,-2.9792,-3.0279,-3.1217,-3.2177,-3.3101,0.1446,0.0696,0.0,0.0,0.0,0.0,0.0,0.0,0.0,0.0,0.0,0.0,0.0,0.0,0.0,0.0,0.0,0.0,0.0,0.0,0.0,0.0,0.0,-0.0169,-0.0516,-0.1663,-0.3144,-0.4947,-0.6488,-0.7797,-0.883,-0.8885,-0.8885,-0.8885,-0.8885,-0.8885,-0.8885,-0.997,-1.1407,-1.3173,-1.4086,-1.523,-1.658,-1.6066,-1.5784,-1.5784,-1.5784,-1.5784,-1.5784,-1.5784,-1.5784,-1.5784,-1.5784,-1.6574,-1.787,-1.9039,-2.026,-2.1471,-2.2677,-2.3091,-2.3091,-2.3091,-2.3091,-2.3091,-2.3091,-2.3091,-2.3091,-2.3091,-2.3091,-2.3091,-2.3091,-2.3091,-2.3091,-2.3091,-2.3091,-2.3178,-2.3464,-2.4211,-2.521,-2.6625,-2.8251,-2.9456,-2.9753,-2.9792,-2.9792,-2.9792,-2.9792,-2.9792,-2.9792,-2.9792,-2.9792,-2.9792,-2.9792,-2.9792,-2.9792,-2.9792,-2.9792,-2.9792,-2.9792,-2.9792,-2.9792,-2.9792,-2.9792,-2.9792,-2.9792,-2.9792,-2.9792,-2.9792,-3.0279,-3.1217,-3.2177,-3.3101,0.0845,0.0388,0.0,0.0,0.0,0.0,0.0,0.0,0.0,0.0,0.0,0.0,0.0,0.0,0.0,0.0,0.0,0.0,0.0,0.0,0.0,0.0,0.0,0.0,0.0,-0.0861,-0.2006,-0.3377,-0.5558,-0.7424,-0.883,-0.8885,-0.8885,-0.8885,-0.8885,-0.8885,-0.8885,-0.968,-1.0729,-1.2018,-1.3033,-1.4169,-1.5503,-1.5684,-1.5784,-1.5784,-1.5784,-1.5784,-1.5784,-1.5784,-1.5784,-1.5784,-1.5784,-1.6251,-1.7037,-1.8272,-1.9488,-2.0666,-2.1898,-2.2677,-2.3091,-2.3091,-2.3091,-2.3091,-2.3091,-2.3091,-2.3091,-2.3091,-2.3091,-2.3091,-2.3091,-2.3091,-2.3091,-2.3091,-2.3091,-2.3387,-2.4392,-2.5094,-2.6005,-2.7637,-2.8961,-2.9792,-2.9792,-2.9792,-2.9792,-2.9792,-2.9792,-2.9792,-2.9792,-2.9792,-2.9792,-2.9792,-2.9792,-2.9792,-2.9792,-2.9792,-2.9792,-2.9792,-2.9792,-2.9792,-2.9792,-2.9792,-2.9792,-2.9792,-2.9792,-2.9792,-2.9792,-2.9792,-3.0495,-3.1815,-3.2357,-3.3359,0.0235,0.0,0.0,0.0,0.0,0.0,0.0,0.0,0.0,0.0,0.0,0.0,0.0,0.0,0.0,0.0,0.0,0.0,0.0,0.0,0.0,0.0,0.0,0.0,0.0,0.0,-0.063,-0.2063,-0.4909,-0.7193,-0.8553,-0.8771,-0.8875,-0.8854,-0.8854,-0.8844,-0.8824,-0.8747,-0.9242,-1.0439,-1.1617,-1.281,-1.4022,-1.5261,-1.5784,-1.5784,-1.5784,-1.5784,-1.5784,-1.5784,-1.5784,-1.5784,-1.5784,-1.5784,-1.5967,-1.7225,-1.8457,-1.967,-2.089,-2.2076,-2.3091,-2.3091,-2.3091,-2.3091,-2.3091,-2.3091,-2.3091,-2.3091,-2.3091,-2.3091,-2.3091,-2.3091,-2.3091,-2.3091,-2.3091,-2.3637,-2.5599,-2.6307,-2.7139,-2.9378,-2.9792,-2.9792,-2.9792,-2.9792,-2.9792,-2.9792,-2.9792,-2.9792,-2.9792,-2.9792,-2.9792,-2.9792,-2.9792,-2.9792,-2.9792,-2.9792,-2.9792,-2.9792,-2.9792,-2.9792,-2.9792,-2.9792,-2.9792,-2.9792,-2.9792,-2.9792,-2.9792,-2.9934,-3.0884,-3.2593,-3.2749,-3.3754,0.0039,0.0,0.0,0.0,0.0,0.0,0.0,0.0,0.0,0.0,0.0,0.0,0.0,0.0,0.0,0.0,0.0,0.0,0.0,0.0,0.0,0.0,0.0,0.0,0.0,0.0,-0.0622,-0.2061,-0.3902,-0.5545,-0.6982,-0.8211,-0.8824,-0.8754,-0.875,-0.8689,-0.8564,-0.8533,-0.9231,-1.0638,-1.1719,-1.2895,-1.4282,-1.5303,-1.5784,-1.5784,-1.5784,-1.5784,-1.5784,-1.5784,-1.5784,-1.5784,-1.5784,-1.5784,-1.5967,-1.7225,-1.8457,-1.967,-2.089,-2.2076,-2.3091,-2.3091,-2.3091,-2.3091,-2.3091,-2.3091,-2.3091,-2.3091,-2.3091,-2.3091,-2.3091,-2.3091,-2.3091,-2.3091,-2.3091,-2.3222,-2.3594,-2.5189,-2.7139,-2.9378,-2.9792,-2.9792,-2.9792,-2.9792,-2.9792,-2.9792,-2.9792,-2.9792,-2.9792,-2.9792,-2.9792,-2.9792,-2.9792,-2.9792,-2.9792,-2.9792,-2.9792,-2.9792,-2.9792,-2.9792,-2.9792,-2.9792,-2.9792,-2.9792,-2.9792,-2.9792,-2.9792,-3.0595,-3.1536,-3.2629,-3.338,-3.4394,0.0,0.0,0.0,0.0,0.0,0.0,0.0,0.0,0.0,0.0,0.0,0.0,0.0,0.0,0.0,0.0,0.0,0.0,0.0,0.0,0.0,0.0,0.0,0.0,0.0,0.0,-0.0281,-0.1019,-0.2471,-0.4301,-0.6589,-0.8029,-0.8784,-0.8713,-0.8632,-0.8557,-0.8482,-0.8408,-0.8729,-0.9488,-1.0515,-1.1752,-1.3079,-1.4274,-1.5146,-1.5784,-1.5784,-1.5784,-1.5784,-1.5784,-1.5784,-1.5784,-1.5784,-1.5784,-1.5872,-1.648,-1.7902,-1.9579,-2.0169,-2.1578,-2.3091,-2.3091,-2.3091,-2.3091,-2.3091,-2.3091,-2.3091,-2.3091,-2.3091,-2.3091,-2.3091,-2.3091,-2.3091,-2.3091,-2.3551,-2.3963,-2.3963,-2.5744,-2.7654,-2.8688,-2.9404,-2.9792,-2.9792,-2.9792,-2.9792,-2.9792,-2.9792,-2.9792,-2.9792,-2.9792,-2.9792,-2.9792,-2.9792,-2.9792,-2.9792,-2.9792,-2.9792,-2.9792,-2.9792,-2.9792,-2.9792,-2.9792,-2.9792,-2.9792,-2.9792,-2.9792,-2.9792,-3.072,-3.1669,-3.2629,-3.3567,-3.4543,0.0,0.0,0.0,0.0,0.0,0.0,0.0,0.0,0.0,0.0,0.0,0.0,0.0,0.0,0.0,0.0,0.0,0.0,0.0,0.0,0.0,0.0,0.0,0.0,0.0,0.0,0.0,0.0,-0.1617,-0.3832,-0.6498,-0.7949,-0.8682,-0.8618,-0.8499,-0.8421,-0.8387,-0.8279,-0.8221,-0.8272,-0.9432,-1.0534,-1.1556,-1.3151,-1.4459,-1.5391,-1.5683,-1.5784,-1.5784,-1.5784,-1.5784,-1.5784,-1.5784,-1.5784,-1.5784,-1.5784,-1.739,-1.9497,-1.9497,-2.1087,-2.3091,-2.3091,-2.3091,-2.3091,-2.3091,-2.3091,-2.3091,-2.3091,-2.3091,-2.3091,-2.3091,-2.3091,-2.3091,-2.3091,-2.38,-2.4585,-2.5041,-2.6532,-2.7896,-2.8386,-2.9197,-2.9792,-2.9792,-2.9792,-2.9792,-2.9792,-2.9792,-2.9792,-2.9792,-2.9792,-2.9792,-2.9792,-2.9792,-2.9792,-2.9792,-2.9792,-2.9792,-2.9792,-2.9792,-2.9792,-2.9792,-2.9792,-2.9792,-2.9792,-2.9792,-2.9792,-2.9792,-3.072,-3.1573,-3.2321,-3.3449,-3.4428,0.0,0.0,0.0,0.0,0.0,0.0,0.0,0.0,0.0,0.0,0.0,0.0,0.0,0.0,0.0,0.0,0.0,0.0,0.0,0.0,0.0,0.0,0.0,0.0,0.0,0.0,0.0,0.0,-0.248,-0.4747,-0.6436,-0.79,-0.8587,-0.8319,-0.8347,-0.8221,-0.8032,-0.8019,-0.8012,-0.8058,-0.9369,-1.0047,-1.0243,-1.2759,-1.3968,-1.4118,-1.5289,-1.5784,-1.5784,-1.5784,-1.5784,-1.5784,-1.5784,-1.5784,-1.5784,-1.5784,-1.739,-1.9497,-1.9497,-2.1087,-2.3091,-2.3091,-2.3091,-2.3091,-2.3091,-2.3091,-2.3091,-2.3091,-2.3091,-2.3091,-2.3091,-2.3091,-2.3091,-2.3091,-2.3178,-2.38,-2.5891,-2.6513,-2.7221,-2.9248,-2.9714,-2.9792,-2.9792,-2.9792,-2.9792,-2.9792,-2.9792,-2.9792,-2.9792,-2.9792,-2.9792,-2.9792,-2.9792,-2.9792,-2.9792,-2.9792,-2.9792,-2.9792,-2.9792,-2.9792,-2.9792,-2.9792,-2.9792,-2.9792,-2.9792,-2.9792,-2.9792,-3.072,-3.1254,-3.1352,-3.3171,-3.4061,0.0,0.0,0.0,0.0,0.0,0.0,0.0,0.0,0.0,0.0,0.0,0.0,0.0,0.0,0.0,0.0,0.0,0.0,0.0,0.0,0.0,0.0,0.0,0.0,0.0,0.0,0.0,0.0,-0.2586,-0.4427,-0.4958,-0.7174,-0.8391,-0.8327,-0.818,-0.8102,-0.7988,-0.7988,-0.7988,-0.7988,-0.8528,-0.9608,-1.117,-1.2237,-1.3542,-1.5045,-1.5588,-1.5784,-1.5784,-1.5784,-1.5784,-1.5784,-1.5784,-1.5784,-1.5784,-1.5784,-1.739,-1.9497,-1.9497,-2.1087,-2.3091,-2.3091,-2.3091,-2.3091,-2.3091,-2.3091,-2.3091,-2.3091,-2.3091,-2.3091,-2.3091,-2.3091,-2.3091,-2.3091,-2.3091,-2.3343,-2.4274,-2.5526,-2.6771,-2.7637,-2.8882,-2.9792,-2.9792,-2.9792,-2.9792,-2.9792,-2.9792,-2.9792,-2.9792,-2.9792,-2.9792,-2.9792,-2.9792,-2.9792,-2.9792,-2.9792,-2.9792,-2.9792,-2.9792,-2.9792,-2.9792,-2.9792,-2.9792,-2.9792,-2.9792,-3.0075,-3.0658,-3.1573,-3.2321,-3.2925,-3.4259,-3.4905,0.0,0.0,0.0,0.0,0.0,0.0,0.0,0.0,0.0,0.0,0.0,0.0,0.0,0.0,0.0,0.0,0.0,0.0,0.0,0.0,0.0,0.0,0.0,0.0,0.0,0.0,0.0,0.0,-0.2215,-0.3656,-0.3997,-0.6299,-0.7791,-0.8204,-0.8096,-0.7988,-0.7988,-0.7988,-0.7988,-0.7988,-0.7988,-0.9164,-1.1361,-1.1755,-1.3108,-1.5242,-1.5635,-1.5784,-1.5784,-1.5784,-1.5784,-1.5784,-1.5784,-1.5784,-1.5784,-1.5784,-1.7163,-1.8956,-1.8956,-2.0539,-2.2589,-2.2589,-2.2818,-2.3091,-2.3091,-2.3091,-2.3091,-2.3091,-2.3091,-2.3091,-2.3091,-2.3091,-2.3091,-2.3091,-2.3091,-2.3266,-2.3973,-2.5358,-2.6689,-2.7342,-2.8752,-2.9792,-2.9792,-2.9792,-2.9792,-2.9792,-2.9792,-2.9792,-2.9792,-2.9792,-2.9792,-2.9792,-2.9792,-2.9792,-2.9792,-2.9792,-2.9792,-2.9792,-2.9792,-2.9792,-2.9792,-2.9792,-2.9792,-2.9792,-2.9792,-3.0139,-3.0796,-3.1439,-3.2249,-3.3206,-3.4192,-3.4953,0.0,0.0,0.0,0.0,0.0,0.0,0.0,0.0,0.0,0.0,0.0,0.0,0.0,0.0,0.0,0.0,0.0,0.0,0.0,0.0,0.0,0.0,0.0,0.0,0.0,0.0,0.0,0.0,-0.1243,-0.2616,-0.392,-0.5275,-0.6634,-0.7942,-0.7988,-0.7988,-0.7988,-0.7988,-0.7988,-0.7988,-0.7988,-0.8726,-1.0047,-1.1312,-1.2624,-1.3974,-1.5242,-1.5784,-1.5784,-1.5784,-1.5784,-1.5784,-1.5784,-1.5784,-1.5784,-1.5784,-1.6622,-1.7738,-1.7738,-1.9314,-2.1337,-2.1337,-2.212,-2.3091,-2.3091,-2.3091,-2.3091,-2.3091,-2.3091,-2.3091,-2.3091,-2.3091,-2.3091,-2.3091,-2.3091,-2.3724,-2.5975,-2.6472,-2.7139,-2.9339,-2.9792,-2.9792,-2.9792,-2.9792,-2.9792,-2.9792,-2.9792,-2.9792,-2.9792,-2.9792,-2.9792,-2.9792,-2.9792,-2.9792,-2.9792,-2.9792,-2.9792,-2.9792,-2.9792,-2.9792,-2.9792,-2.9792,-2.9792,-2.9792,-2.9792,-2.9792,-2.983,-2.983,-3.0317,-3.1254,-3.2177,-3.365,0.0,0.0,0.0,0.0,0.0,0.0,0.0,0.0,0.0,0.0,0.0,0.0,0.0,0.0,0.0,0.0,0.0,0.0,0.0,0.0,0.0,0.0,0.0,0.0,0.0,0.0,0.0,0.0,-0.122,-0.258,-0.3917,-0.5272,-0.6631,-0.7939,-0.7988,-0.7988,-0.7988,-0.7988,-0.7988,-0.7988,-0.7988,-0.8726,-1.0047,-1.1312,-1.2619,-1.3974,-1.5242,-1.5784,-1.5784,-1.5784,-1.5784,-1.5784,-1.5784,-1.5784,-1.5784,-1.5784,-1.6622,-1.7824,-1.8634,-1.9988,-2.1436,-2.2262,-2.2775,-2.3091,-2.3091,-2.3091,-2.3091,-2.3091,-2.3091,-2.3091,-2.3091,-2.3091,-2.3091,-2.3091,-2.3714,-2.4467,-2.5168,-2.6532,-2.7815,-2.8518,-2.9275,-2.9792,-2.9792,-2.9792,-2.9792,-2.9792,-2.9792,-2.9792,-2.9792,-2.9792,-2.9792,-2.9792,-2.9792,-2.9792,-2.9792,-2.9792,-2.9792,-2.9792,-2.9792,-2.9792,-2.9792,-2.9792,-2.9792,-2.9792,-2.9792,-3.0432,-3.1719,-3.1719,-3.255,-3.4172,-3.4442,-3.492,0.0,0.0,0.0,0.0,0.0,0.0,0.0,0.0,0.0,0.0,0.0,0.0,0.0,0.0,0.0,0.0,0.0,0.0,0.0,0.0,0.0,0.0,0.0,0.0,0.0,0.0,0.0,0.0,-0.0756,-0.2063,-0.3915,-0.477,-0.6077,-0.7939,-0.7988,-0.7988,-0.7988,-0.7988,-0.7988,-0.7988,-0.7988,-0.8726,-1.0047,-1.0828,-1.2183,-1.3926,-1.4752,-1.5343,0.0,-1.5784,-1.5784,-1.5784,-1.5784,-1.5784,-1.5784,-1.5784,-1.6292,-1.7178,-1.8403,-1.9625,-2.08,-2.2031,-2.2721,-2.3091,-2.3091,-2.3091,-2.3091,-2.3091,-2.3091,-2.3091,-2.3091,-2.3091,-2.3091,-2.3091,-2.3963,-2.4914,-2.5336,-2.686,-2.8215,-2.8648,-2.9314,-2.9792,-2.9792,-2.9792,-2.9792,-2.9792,-2.9792,-2.9792,-2.9792,-2.9792,-2.9792,-2.9792,-2.9792,-2.9792,-2.9792,-2.9792,-2.9792,-2.9792,-2.9792,-2.9792,-2.9792,-2.9792,-2.9792,-2.9792,-2.9792,-3.0394,-3.1549,-3.2249,-3.322,-3.4409,-3.5148,-3.5504,0.0,0.0,0.0,0.0,0.0,0.0,0.0,0.0,0.0,0.0,0.0,0.0,0.0,0.0,0.0,0.0,0.0,0.0,0.0,0.0,0.0,0.0,0.0,0.0,0.0,0.0,0.0,0.0,-0.0101,-0.126,-0.3865,-0.4066,-0.532,-0.7939,-0.7988,-0.7988,-0.7988,-0.7988,-0.7988,-0.7988,-0.7988,-0.8627,-0.985,-0.9948,-1.1356,-1.3776,-1.3872,-1.4609,-1.5784,-1.5784,-1.5784,-1.5784,-1.5784,-1.5784,-1.5784,-1.5784,-1.5784,-1.5967,-1.7271,-1.8503,-1.9716,-2.1025,-2.2173,-2.3091,-2.3091,-2.3091,-2.3091,-2.3091,-2.3091,-2.3091,-2.3091,-2.3091,-2.3091,-2.3091,-2.3963,-2.5126,-2.6265,-2.7319,-2.8426,-2.9573,-2.9792,-2.9792,-2.9792,-2.9792,-2.9792,-2.9792,-2.9792,-2.9792,-2.9792,-2.9792,-2.9792,-2.9792,-2.9792,-2.9792,-2.9792,-2.9792,-2.9792,-2.9792,-2.9792,-2.9792,-2.9792,-2.9792,-2.9792,-2.9792,-2.9934,-2.9998,-2.9998,-3.1878,-3.282,-3.2855,-3.4673,-3.5504,0.0,0.0,0.0,0.0,0.0,0.0,0.0,0.0,0.0,0.0,0.0,0.0,0.0,0.0,0.0,0.0,0.0,0.0,0.0,0.0,0.0,0.0,0.0,0.0,0.0,0.0,0.0,0.0,-0.0958,-0.2264,-0.3915,-0.497,-0.6276,-0.7939,-0.7988,-0.7988,-0.7988,-0.7988,-0.7988,-0.7988,-0.7988,-0.8187,-0.8528,-0.9509,-1.0877,-1.2431,-1.344,-1.4609,-1.5784,-1.5784,-1.5784,-1.5784,-1.5784,-1.5784,-1.5784,-1.5784,-1.5784,-1.5967,-1.7271,-1.8503,-1.9852,-2.1996,-2.2862,-2.3091,-2.3091,-2.3091,-2.3091,-2.3091,-2.3091,-2.3091,-2.3091,-2.3091,-2.3091,-2.3091,-2.3963,-2.5126,-2.6265,-2.7319,-2.8426,-2.9573,-2.9792,-2.9792,-2.9792,-2.9792,-2.9792,-2.9792,-2.9792,-2.9792,-2.9792,-2.9792,-2.9792,-2.9792,-2.9792,-2.9792,-2.9792,-2.9792,-2.9792,-2.9792,-2.9792,-2.9792,-2.9792,-2.9792,-2.9792,-2.9792,-3.1206,-3.1938,-3.1938,-3.3871,-3.482,-3.482,-3.5294,-3.5504,-0.0132,0.0,0.0,0.0,0.0,0.0,0.0,0.0,0.0,0.0,0.0,0.0,0.0,0.0,0.0,0.0,0.0,0.0,0.0,0.0,0.0,0.0,0.0,0.0,0.0,0.0,0.0,0.0,-0.0656,-0.1913,-0.3915,-0.467,-0.5974,-0.7939,-0.7988,-0.7988,-0.7988,-0.7988,-0.7988,-0.7988,-0.7988,-0.7988,-0.8038,-0.8775,-0.9801,-1.1121,-1.2425,-1.3734,-1.4949,-1.5581,-1.5784,-1.5784,-1.5784,-1.5784,-1.5784,-1.5784,-1.5784,-1.5967,-1.7271,-1.8864,-2.0621,-2.2501,-2.3091,-2.3091,-2.3091,-2.3091,-2.3091,-2.3091,-2.3091,-2.3091,-2.3091,-2.3091,-2.3091,-2.3091,-2.3963,-2.4957,-2.5588,-2.6982,-2.8295,-2.8897,-2.9443,-2.9792,-2.9792,-2.9792,-2.9792,-2.9792,-2.9792,-2.9792,-2.9792,-2.9792,-2.9792,-2.9792,-2.9792,-2.9792,-2.9792,-2.9792,-2.9792,-2.9792,-2.9792,-2.9792,-2.9792,-2.9792,-2.9792,-2.9792,-3.0822,-3.1304,-3.1304,-3.3234,-3.4158,-3.4192,-3.5067,-3.5504,-0.0541,-0.0137,0.0,0.0,0.0,0.0,0.0,0.0,0.0,0.0,0.0,0.0,0.0,0.0,0.0,0.0,0.0,0.0,0.0,0.0,0.0,0.0,0.0,0.0,0.0,0.0,0.0,0.0,-0.0202,-0.131,-0.3565,-0.4066,-0.537,-0.7637,-0.7889,-0.7988,-0.7988,-0.7988,-0.7988,-0.7988,-0.7988,-0.7988,-0.7988,-0.7988,-0.8726,-1.0047,-1.1365,-1.2668,-1.4022,-1.5289,-1.5784,-1.5784,-1.5784,-1.5784,-1.5784,-1.5784,-1.5784,-1.6015,-1.7451,-1.9314,-2.1248,-2.2633,-2.3091,-2.3091,-2.3091,-2.3091,-2.3091,-2.3091,-2.3091,-2.3091,-2.3091,-2.3091,-2.3091,-2.3091,-2.3844,-2.4628,-2.4999,-2.6532,-2.7976,-2.8307,-2.9157,-2.9792,-2.9792,-2.9792,-2.9792,-2.9792,-2.9792,-2.9792,-2.9792,-2.9792,-2.9792,-2.9792,-2.9792,-2.9792,-2.9792,-2.9792,-2.9792,-2.9792,-2.9792,-2.9792,-2.9792,-2.9792,-2.9792,-2.9792,-3.0075,-3.0216,-3.0216,-3.2119,-3.3031,-3.3066,-3.4739,-3.5504,-0.1556,-0.0794,0.0,0.0,0.0,0.0,0.0,0.0,0.0,0.0,0.0,0.0,0.0,0.0,0.0,0.0,0.0,0.0,0.0,0.0,0.0,0.0,0.0,0.0,0.0,0.0,0.0,0.0,-0.1058,-0.1862,-0.2264,-0.4472,-0.5877,-0.6279,-0.7385,-0.7988,-0.7988,-0.7988,-0.7988,-0.7988,-0.7988,-0.7988,-0.7988,-0.7988,-0.8726,-1.0047,-1.1365,-1.2668,-1.4022,-1.5289,-1.5784,-1.5784,-1.5784,-1.5784,-1.5784,-1.5784,-1.5784,-1.615,-1.8442,-1.9451,-2.0124,-2.2359,-2.3091,-2.3091,-2.3091,-2.3091,-2.3091,-2.3091,-2.3091,-2.3091,-2.3091,-2.3091,-2.3091,-2.3091,-2.3222,-2.3887,-2.5808,-2.6513,-2.7302,-2.9157,-2.9663,-2.9792,-2.9792,-2.9792,-2.9792,-2.9792,-2.9792,-2.9792,-2.9792,-2.9792,-2.9792,-2.9792,-2.9792,-2.9792,-2.9792,-2.9792,-2.9792,-2.9792,-2.9792,-2.9792,-2.9792,-2.9792,-2.9792,-2.9792,-3.1378,-3.2177,-3.2177,-3.4124,-3.5067,-3.5067,-3.5359,-3.5504,-0.2053,-0.1326,-0.0797,-0.0141,0.0,0.0,0.0,0.0,0.0,0.0,0.0,0.0,0.0,0.0,0.0,0.0,0.0,0.0,0.0,0.0,0.0,0.0,0.0,0.0,0.0,0.0,0.0,0.0,-0.0555,-0.126,-0.1962,-0.3867,-0.5272,-0.5979,-0.7285,-0.7988,-0.7988,-0.7988,-0.7988,-0.7988,-0.7988,-0.7988,-0.7988,-0.7988,-0.8333,-0.9019,-1.1019,-1.2237,-1.2958,-1.5003,-1.5784,-1.5784,-1.5784,-1.5784,-1.5784,-1.5784,-1.5784,-1.6129,-1.836,-1.9286,-1.9839,-2.1806,-2.2617,-2.2754,-2.2529,-2.2617,-2.2711,-2.2519,-2.275,-2.3091,-2.3091,-2.3091,-2.3091,-2.3091,-2.3091,-2.3387,-2.4435,-2.5641,-2.6812,-2.7799,-2.8961,-2.9792,-2.9792,-2.9792,-2.9792,-2.9792,-2.9792,-2.9792,-2.9792,-2.9792,-2.9792,-2.9792,-2.9792,-2.9792,-2.9792,-2.9792,-2.9792,-2.9792,-2.9792,-2.9792,-2.9792,-2.9792,-2.9792,-2.9792,-3.0633,-3.1095,-3.1095,-3.301,-3.3939,-3.3939,-3.5001,-3.5504,-0.2579,-0.1878,-0.1476,-0.0284,0.0,0.0,0.0,0.0,0.0,0.0,0.0,0.0,0.0,0.0,0.0,0.0,0.0,0.0,0.0,0.0,0.0,0.0,0.0,0.0,0.0,0.0,0.0,0.0,0.0,-0.0454,-0.146,-0.3053,-0.4441,-0.544,-0.7057,-0.7887,-0.7887,-0.7887,-0.7921,-0.7988,-0.7988,-0.7971,-0.7938,-0.7975,-0.7971,-0.8086,-1.0756,-1.1866,-1.2009,-1.4617,-1.5691,-1.5625,-1.5625,-1.5625,-1.5631,-1.5705,-1.5732,-1.5967,-1.7794,-1.8864,-1.958,-2.102,-2.1881,-2.2305,-2.1982,-2.2109,-2.2295,-2.1982,-2.2344,-2.2799,-2.2799,-2.2799,-2.2799,-2.2799,-2.2799,-2.2991,-2.3586,-2.5102,-2.6501,-2.7157,-2.8633,-2.9792,-2.9792,-2.9792,-2.9741,-2.9616,-2.9591,-2.9591,-2.9591,-2.9591,-2.9641,-2.9779,-2.9792,-2.9792,-2.9792,-2.9666,-2.9591,-2.9591,-2.9716,-2.9792,-2.9792,-2.9792,-2.9792,-2.9792,-3.0216,-3.047,-3.047,-3.2371,-3.329,-3.3325,-3.482,-3.5504,-0.3488,-0.2415,-0.1359,-0.0283,0.0,0.0,0.0,0.0,0.0,0.0,0.0,0.0,0.0,0.0,0.0,0.0,0.0,0.0,0.0,0.0,0.0,0.0,0.0,0.0,0.0,0.0,0.0,0.0,0.0,-0.0051,-0.0151,-0.2474,-0.3868,-0.3967,-0.6351,-0.7631,-0.7631,-0.7631,-0.777,-0.7988,-0.7988,-0.7917,-0.7831,-0.7924,-0.7914,-0.798,-1.0692,-1.1776,-1.1716,-1.4325,-1.5271,-1.5068,-1.5068,-1.5068,-1.5102,-1.5331,-1.5431,-1.5602,-1.6859,-1.8032,-1.9112,-2.0,-2.1057,-2.1924,-2.1894,-2.1904,-2.1924,-2.1894,-2.1934,-2.1982,-2.1982,-2.1982,-2.1982,-2.1982,-2.1982,-2.2631,-2.5084,-2.5748,-2.6577,-2.9071,-2.9675,-2.9792,-2.9792,-2.9792,-2.9616,-2.9038,-2.895,-2.895,-2.895,-2.895,-2.9202,-2.9729,-2.9792,-2.9792,-2.9792,-2.9302,-2.895,-2.895,-2.9503,-2.9792,-2.9792,-2.9792,-2.9792,-2.9792,-3.1513,-3.2393,-3.2393,-3.4341,-3.5279,-3.5279,-3.5424,-3.5504,-0.4617,-0.4116,-0.3509,-0.1577,-0.1173,-0.1043,-0.0195,0.0,0.0,0.0,0.0,0.0,0.0,0.0,0.0,0.0,0.0,0.0,0.0,0.0,0.0,0.0,0.0,0.0,0.0,0.0,0.0,0.0,0.0,0.0,0.0,-0.2412,-0.3792,-0.3792,-0.6289,-0.76,-0.76,-0.76,-0.7655,-0.7767,-0.7767,-0.7736,-0.7682,-0.774,-0.7736,-0.7777,-0.9613,-1.0773,-1.1492,-1.3313,-1.4411,-1.5008,-1.5008,-1.5008,-1.5022,-1.5129,-1.5169,-1.5271,-1.6199,-1.7427,-1.8696,-1.9277,-2.0364,-2.1426,-2.1192,-2.126,-2.1426,-2.1143,-2.1269,-2.1543,-2.1816,-2.1885,-2.1885,-2.1885,-2.1885,-2.2241,-2.3463,-2.4854,-2.6211,-2.7492,-2.8882,-2.9792,-2.9792,-2.949,-2.9176,-2.8925,-2.8599,-2.8411,-2.8411,-2.8675,-2.8976,-2.9239,-2.9252,-2.9114,-2.8775,-2.8536,-2.8411,-2.8411,-2.8624,-2.875,-2.875,-2.875,-2.875,-2.875,-2.9761,-3.0285,-3.0285,-3.2604,-3.3685,-3.3719,-3.492,-3.5504,-0.5278,-0.5173,-0.4811,-0.2452,-0.1922,-0.1614,-0.0293,0.0,0.0,0.0,0.0,0.0,0.0,0.0,0.0,0.0,0.0,0.0,0.0,0.0,0.0,0.0,0.0,0.0,0.0,0.0,0.0,0.0,0.0,0.0,0.0,-0.2362,-0.3713,-0.3713,-0.6166,-0.7455,-0.7455,-0.7455,-0.7455,-0.7455,-0.7455,-0.7478,-0.7529,-0.7577,-0.7573,-0.7622,-0.895,-1.0131,-1.1222,-1.2541,-1.3716,-1.4733,-1.4733,-1.4733,-1.474,-1.479,-1.4823,-1.4923,-1.5425,-1.6503,-1.7752,-1.8275,-1.9387,-2.052,-2.0576,-2.0781,-2.0957,-2.0693,-2.0791,-2.1094,-2.1387,-2.1505,-2.1505,-2.1505,-2.1505,-2.1704,-2.2448,-2.3807,-2.5209,-2.6314,-2.775,-2.8883,-2.9226,-2.8938,-2.8612,-2.8436,-2.8084,-2.7846,-2.7846,-2.8172,-2.8473,-2.8612,-2.8662,-2.8511,-2.8134,-2.7946,-2.7846,-2.7846,-2.7682,-2.7745,-2.8097,-2.8109,-2.8109,-2.8109,-2.9239,-2.9826,-2.9826,-3.2317,-3.3512,-3.3547,-3.4887,-3.5385,-0.5414,-0.5269,-0.4871,-0.2589,-0.1922,-0.1494,-0.0292,0.0,0.0,0.0,0.0,0.0,0.0,0.0,0.0,0.0,0.0,0.0,0.0,0.0,0.0,0.0,0.0,0.0,0.0,0.0,0.0,0.0,0.0,0.0,0.0,-0.2283,-0.359,-0.359,-0.5863,-0.7095,-0.7095,-0.7095,-0.7095,-0.7095,-0.7095,-0.7221,-0.7419,-0.7526,-0.7512,-0.7468,-0.889,-0.9958,-1.09,-1.2225,-1.3318,-1.4088,-1.4088,-1.4088,-1.4122,-1.4409,-1.4516,-1.4516,-1.4516,-1.5225,-1.6249,-1.704,-1.8069,-1.9195,-2.0284,-2.0605,-2.0605,-2.0605,-2.0605,-2.0605,-2.0605,-2.0605,-2.0605,-2.0605,-2.0605,-2.1024,-2.2569,-2.2896,-2.3633,-2.6106,-2.6602,-2.6914,-2.7914,-2.8097,-2.7908,-2.7369,-2.7316,-2.7268,-2.7281,-2.7281,-2.7494,-2.8047,-2.8097,-2.8097,-2.8097,-2.7595,-2.7268,-2.7268,-2.6801,-2.6989,-2.8047,-2.8084,-2.8084,-2.8084,-3.0489,-3.1751,-3.1785,-3.427,-3.5457,-3.5457,-3.5489,-3.513,-0.6438,-0.6458,-0.6245,-0.4894,-0.3878,-0.2893,-0.166,-0.0686,0.0,0.0,0.0,0.0,0.0,0.0,0.0,0.0,0.0,0.0,0.0,0.0,0.0,0.0,0.0,0.0,0.0,0.0,0.0,0.0,0.0,0.0,0.0,-0.2309,-0.3604,-0.3604,-0.5861,-0.7095,-0.7095,-0.7095,-0.7095,-0.7095,-0.7095,-0.7122,-0.721,-0.721,-0.7206,-0.721,-0.7651,-0.8443,-0.9627,-1.1619,-1.3101,-1.4088,-1.4088,-1.4088,-1.4095,-1.4182,-1.4215,-1.4215,-1.4215,-1.5407,-1.6982,-1.7204,-1.859,-2.0167,-2.0489,-2.0605,-2.0605,-2.0605,-2.0605,-2.0605,-2.0605,-2.0605,-2.0605,-2.0605,-2.0605,-2.0801,-2.1551,-2.2331,-2.3412,-2.5124,-2.606,-2.6914,-2.7914,-2.7783,-2.7469,-2.7306,-2.6989,-2.6876,-2.7231,-2.7281,-2.7344,-2.7507,-2.7532,-2.7369,-2.7014,-2.6839,-2.6738,-2.6738,-2.6587,-2.6637,-2.6964,-2.6977,-2.6977,-2.6977,-2.8059,-2.8922,-2.9468,-3.1768,-3.2982,-3.3135,-3.4292,-3.4427,-0.718,-0.7253,-0.7119,-0.6031,-0.5168,-0.4159,-0.2419,-0.0941,0.0,0.0,0.0,0.0,0.0,0.0,0.0,0.0,0.0,0.0,0.0,0.0,0.0,0.0,0.0,0.0,0.0,0.0,0.0,0.0,0.0,0.0,0.0,-0.1835,-0.3126,-0.357,-0.5442,-0.665,-0.7095,-0.7095,-0.7095,-0.7095,-0.7095,-0.7095,-0.7095,-0.7095,-0.7095,-0.7139,-0.7621,-0.8492,-0.971,-1.1552,-1.3027,-1.4088,-1.4088,-1.4088,-1.4088,-1.4088,-1.4088,-1.4088,-1.4088,-1.5228,-1.6723,-1.7172,-1.851,-2.004,-2.0479,-2.0605,-2.0605,-2.0605,-2.0605,-2.0605,-2.0605,-2.0605,-2.0605,-2.0605,-2.0605,-2.0674,-2.0908,-2.1489,-2.2475,-2.4088,-2.4929,-2.5797,-2.7217,-2.7216,-2.6989,-2.6989,-2.6713,-2.6612,-2.6952,-2.6989,-2.6989,-2.6989,-2.6989,-2.6851,-2.6524,-2.6499,-2.6499,-2.6499,-2.6499,-2.6499,-2.6499,-2.6499,-2.6499,-2.6499,-2.7717,-2.8615,-2.9094,-3.1368,-3.2547,-3.2694,-3.3655,-3.3724,-0.7546,-0.7682,-0.7534,-0.6435,-0.5992,-0.5163,-0.2604,-0.1058,-0.0151,0.0,0.0,0.0,0.0,0.0,0.0,0.0,0.0,0.0,0.0,0.0,0.0,0.0,0.0,0.0,0.0,0.0,0.0,0.0,0.0,0.0,0.0,-0.1165,-0.237,-0.357,-0.4776,-0.5938,-0.7095,-0.7095,-0.7095,-0.7095,-0.7095,-0.7095,-0.7095,-0.7095,-0.7095,-0.7139,-0.8277,-0.9449,-1.0697,-1.1724,-1.2899,-1.4088,-1.4088,-1.4088,-1.4088,-1.4088,-1.4088,-1.4088,-1.4088,-1.4817,-1.5861,-1.6968,-1.8069,-1.9204,-2.0284,-2.0605,-2.0605,-2.0605,-2.0605,-2.0605,-2.0605,-2.0605,-2.0605,-2.0605,-2.0605,-2.0605,-2.0605,-2.0605,-2.1193,-2.311,-2.3514,-2.4145,-2.6164,-2.6499,-2.6499,-2.6499,-2.6499,-2.6499,-2.6499,-2.6499,-2.6499,-2.6499,-2.6499,-2.6499,-2.6499,-2.6499,-2.6499,-2.6499,-2.6499,-2.6499,-2.6499,-2.6499,-2.6499,-2.6499,-2.8605,-2.9719,-2.9785,-3.2082,-3.3212,-3.3213,-3.3349,-3.3051,-0.7444,-0.7533,-0.7583,-0.7434,-0.6686,-0.5248,-0.2612,-0.1762,-0.126,-0.0202,0.0,0.0,0.0,0.0,0.0,0.0,0.0,0.0,0.0,0.0,0.0,0.0,0.0,0.0,0.0,0.0,0.0,0.0,0.0,0.0,0.0,-0.1165,-0.237,-0.357,-0.4776,-0.5938,-0.7095,-0.7095,-0.7095,-0.7095,-0.7095,-0.7095,-0.7095,-0.7095,-0.7095,-0.7095,-0.736,-0.8663,-1.0611,-1.0864,-1.2211,-1.4088,-1.4088,-1.4088,-1.4088,-1.4088,-1.4088,-1.4088,-1.4088,-1.4817,-1.5861,-1.6968,-1.8069,-1.9204,-2.0284,-2.0605,-2.0605,-2.0605,-2.0605,-2.0605,-2.0605,-2.0605,-2.0605,-2.0605,-2.0605,-2.0605,-2.0605,-2.0605,-2.1193,-2.311,-2.3514,-2.4145,-2.6164,-2.6499,-2.6499,-2.6499,-2.6499,-2.6499,-2.6499,-2.6499,-2.6499,-2.6499,-2.6499,-2.6499,-2.6499,-2.6499,-2.6499,-2.6499,-2.6499,-2.6499,-2.6499,-2.6499,-2.6499,-2.6499,-2.6999,-2.7566,-2.8205,-2.9933,-3.0834,-3.1006,-3.2198,-3.2377,-0.7563,-0.7641,-0.7736,-0.7882,-0.693,-0.5627,-0.4221,-0.3344,-0.2482,-0.1243,-0.0441,0.0,0.0,0.0,0.0,0.0,0.0,0.0,0.0,0.0,0.0,0.0,0.0,0.0,0.0,0.0,0.0,0.0,0.0,0.0,0.0,-0.0583,-0.1471,-0.2684,-0.3827,-0.4944,-0.6147,-0.6668,-0.6929,-0.6889,-0.696,-0.7031,-0.7095,-0.7095,-0.7095,-0.7095,-0.7095,-0.8141,-0.9836,-1.0351,-1.1649,-1.3294,-1.3864,-1.4088,-1.4088,-1.4088,-1.4088,-1.4088,-1.4088,-1.4817,-1.5861,-1.6968,-1.8069,-1.9204,-2.0284,-2.0605,-2.0605,-2.0605,-2.0605,-2.0605,-2.0605,-2.0605,-2.0605,-2.0605,-2.0605,-2.0605,-2.0605,-2.0934,-2.1707,-2.322,-2.3891,-2.4696,-2.6245,-2.6499,-2.6499,-2.6499,-2.6499,-2.6499,-2.6499,-2.6499,-2.6499,-2.6499,-2.6499,-2.6499,-2.6499,-2.6499,-2.6499,-2.6499,-2.6499,-2.6499,-2.6499,-2.6499,-2.6499,-2.6499,-2.7284,-2.7887,-2.8344,-2.9921,-3.0783,-3.0881,-3.1663,-3.1824,-0.7668,-0.7773,-0.7848,-0.7951,-0.7182,-0.6274,-0.6004,-0.5038,-0.3804,-0.252,-0.1245,-0.0236,-0.0046,0.0,0.0,0.0,0.0,0.0,0.0,0.0,0.0,0.0,0.0,0.0,0.0,0.0,0.0,0.0,0.0,0.0,0.0,0.0,-0.0572,-0.1767,-0.2799,-0.3881,-0.5103,-0.6153,-0.6702,-0.6702,-0.6827,-0.6906,-0.7021,-0.7021,-0.7034,-0.7058,-0.7031,-0.773,-0.897,-1.0082,-1.1262,-1.2413,-1.3646,-1.4088,-1.4088,-1.4088,-1.4088,-1.4088,-1.4088,-1.4692,-1.5621,-1.6887,-1.7948,-1.8957,-2.0206,-2.0605,-2.0605,-2.0605,-2.0605,-2.0605,-2.0605,-2.0605,-2.0605,-2.0605,-2.0605,-2.0605,-2.0605,-2.1221,-2.2027,-2.3036,-2.4192,-2.5335,-2.6314,-2.6499,-2.6499,-2.6499,-2.6499,-2.6499,-2.6499,-2.6499,-2.6499,-2.6499,-2.6499,-2.6499,-2.6499,-2.6499,-2.6499,-2.6499,-2.6499,-2.6499,-2.6499,-2.6499,-2.6499,-2.6499,-2.7855,-2.8556,-2.8556,-3.0238,-3.1058,-3.1087,-3.138,-3.1511,-0.7463,-0.7617,-0.7848,-0.7951,-0.7889,-0.7403,-0.61,-0.5674,-0.5126,-0.3693,-0.2412,-0.1251,-0.0185,0.0,0.0,0.0,0.0,0.0,0.0,0.0,0.0,0.0,0.0,0.0,0.0,0.0,0.0,0.0,0.0,0.0,0.0,0.0,-0.0551,-0.1768,-0.282,-0.3946,-0.51,-0.6153,-0.6702,-0.6702,-0.6722,-0.6742,-0.6759,-0.6759,-0.6831,-0.6906,-0.6817,-0.7498,-0.8815,-0.9944,-1.1148,-1.2413,-1.3646,-1.4088,-1.4088,-1.4088,-1.4088,-1.4088,-1.4088,-1.4208,-1.4657,-1.665,-1.7415,-1.7908,-2.0001,-2.0605,-2.0605,-2.0605,-2.0605,-2.0605,-2.0605,-2.0605,-2.0605,-2.0605,-2.0605,-2.0605,-2.0605,-2.0712,-2.1088,-2.2038,-2.3708,-2.5335,-2.6314,-2.6499,-2.6499,-2.6499,-2.6499,-2.6499,-2.6499,-2.6499,-2.6499,-2.6499,-2.6499,-2.6499,-2.6499,-2.6499,-2.6499,-2.6499,-2.6499,-2.6499,-2.6499,-2.6499,-2.6499,-2.6499,-2.6714,-2.685,-2.685,-2.8524,-2.9317,-2.938,-3.0807,-3.1511,-0.7636,-0.7651,-0.7848,-0.7951,-0.7988,-0.7799,-0.711,-0.6876,-0.6389,-0.5005,-0.4245,-0.3442,-0.2219,-0.1962,-0.1892,-0.1892,-0.1795,-0.1755,-0.1755,-0.172,-0.1735,-0.1735,-0.1756,-0.1523,-0.0949,-0.0876,-0.0631,-0.0042,0.0,0.0,0.0,0.0,-0.0251,-0.0784,-0.1812,-0.2901,-0.3985,-0.5034,-0.5919,-0.6573,-0.6573,-0.6617,-0.6698,-0.661,-0.6658,-0.6797,-0.6729,-0.7024,-0.7708,-0.9431,-1.0549,-1.1391,-1.315,-1.3941,-1.4088,-1.4088,-1.4088,-1.4088,-1.4088,-1.4088,-1.4454,-1.6609,-1.7302,-1.7698,-1.9923,-2.0429,-2.0254,-2.0537,-2.0429,-2.0254,-2.0537,-2.0605,-2.0605,-2.0605,-2.0605,-2.0605,-2.0605,-2.1001,-2.1669,-2.2664,-2.4,-2.5158,-2.5581,-2.6129,-2.6499,-2.6499,-2.6499,-2.6499,-2.6499,-2.6499,-2.6499,-2.6499,-2.6499,-2.6499,-2.6499,-2.6499,-2.6499,-2.6499,-2.6499,-2.6499,-2.6499,-2.6499,-2.6499,-2.6499,-2.7417,-2.7887,-2.7887,-2.9566,-3.0389,-3.0419,-3.1161,-3.1511,-0.8124,-0.7977,-0.8014,-0.7927,-0.7877,-0.784,-0.7733,-0.7617,-0.7263,-0.6199,-0.5913,-0.5526,-0.4608,-0.3849,-0.3371,-0.3353,-0.3198,-0.3115,-0.3115,-0.3092,-0.3085,-0.3085,-0.3094,-0.2808,-0.205,-0.1999,-0.1525,-0.0496,-0.0414,-0.029,0.0,0.0,0.0,0.0,-0.1047,-0.1953,-0.2696,-0.4023,-0.528,-0.646,-0.646,-0.6518,-0.6583,-0.6511,-0.6521,-0.6586,-0.6586,-0.661,-0.6805,-0.8976,-1.0029,-1.0476,-1.2647,-1.3667,-1.3861,-1.3861,-1.3861,-1.3861,-1.3861,-1.3861,-1.4227,-1.634,-1.7013,-1.7411,-1.9601,-2.0019,-1.9844,-2.0273,-2.0166,-2.0019,-2.0488,-2.0605,-2.0605,-2.0605,-2.0605,-2.0605,-2.0605,-2.1155,-2.1924,-2.2925,-2.3927,-2.4707,-2.4969,-2.5838,-2.6499,-2.6499,-2.6499,-2.6499,-2.6499,-2.6499,-2.6499,-2.6499,-2.6499,-2.6499,-2.6499,-2.6499,-2.6499,-2.6499,-2.6499,-2.6499,-2.6499,-2.6499,-2.6499,-2.6499,-2.792,-2.8556,-2.8363,-3.0042,-3.0866,-3.0866,-3.1307,-3.1511,-0.881,-0.8656,-0.8484,-0.7776,-0.7624,-0.7584,-0.7431,-0.7436,-0.7339,-0.7094,-0.7013,-0.6967,-0.6747,-0.4894,-0.3354,-0.3157,-0.3125,-0.3115,-0.3115,-0.3092,-0.3085,-0.3085,-0.3088,-0.309,-0.3012,-0.3015,-0.2589,-0.1613,-0.1534,-0.1063,-0.0039,0.0,0.0,0.0,-0.1061,-0.1608,-0.1685,-0.3675,-0.524,-0.631,-0.631,-0.6317,-0.6323,-0.6313,-0.6317,-0.6323,-0.6323,-0.6399,-0.6682,-0.8813,-0.9806,-1.0161,-1.2366,-1.324,-1.3253,-1.3253,-1.3253,-1.3253,-1.3253,-1.3253,-1.3596,-1.5605,-1.6239,-1.6666,-1.8739,-1.9336,-1.9404,-1.9824,-1.9932,-2.0019,-2.0488,-2.0605,-2.0605,-2.0605,-2.0605,-2.0605,-2.0605,-2.0644,-2.0934,-2.1886,-2.2888,-2.3891,-2.4826,-2.5838,-2.6499,-2.6499,-2.6499,-2.6499,-2.6499,-2.6499,-2.6499,-2.6499,-2.6499,-2.6499,-2.6499,-2.6499,-2.6499,-2.6499,-2.6499,-2.6499,-2.6499,-2.6499,-2.6499,-2.6499,-2.7317,-2.7384,-2.6624,-2.8298,-2.9129,-2.916,-3.0777,-3.1511,-0.9775,-0.9516,-0.9527,-0.9525,-0.8988,-0.8432,-0.8503,-0.7909,-0.7326,-0.7129,-0.7024,-0.6916,-0.681,-0.6102,-0.5466,-0.5301,-0.5223,-0.5145,-0.5145,-0.5146,-0.5157,-0.5157,-0.5157,-0.4882,-0.4178,-0.4139,-0.3709,-0.2657,-0.1957,-0.145,-0.1058,-0.0392,0.0,0.0,-0.0353,-0.1214,-0.254,-0.3984,-0.5237,-0.63,-0.63,-0.63,-0.63,-0.63,-0.63,-0.63,-0.63,-0.6327,-0.6531,-0.861,-0.9578,-0.9974,-1.2117,-1.3033,-1.3213,-1.3213,-1.3213,-1.3213,-1.3213,-1.3213,-1.3437,-1.4833,-1.5702,-1.6493,-1.7952,-1.8611,-1.8919,-1.9394,-1.9512,-1.9609,-2.0039,-2.0352,-2.0605,-2.0605,-2.0605,-2.0605,-2.0605,-2.0605,-2.0712,-2.1049,-2.2414,-2.3624,-2.3963,-2.5394,-2.6499,-2.6499,-2.6499,-2.6499,-2.6499,-2.6499,-2.6499,-2.6499,-2.6499,-2.6499,-2.6499,-2.6499,-2.6499,-2.6499,-2.6499,-2.6499,-2.6499,-2.6499,-2.6499,-2.6499,-2.6782,-2.704,-2.7263,-2.9002,-2.9827,-2.9858,-3.097,-3.1511,-1.0613,-1.0351,-1.0378,-1.0433,-0.9795,-0.9113,-0.9002,-0.8316,-0.7552,-0.7057,-0.6876,-0.6807,-0.6651,-0.6624,-0.6576,-0.6467,-0.6361,-0.63,-0.63,-0.63,-0.63,-0.63,-0.63,-0.6025,-0.5315,-0.5237,-0.4805,-0.3709,-0.2698,-0.1957,-0.1607,-0.0588,0.0,0.0,0.0,-0.0823,-0.2579,-0.3632,-0.4688,-0.5786,-0.6141,-0.63,-0.63,-0.63,-0.63,-0.63,-0.63,-0.63,-0.6416,-0.8122,-0.9119,-0.9746,-1.1473,-1.2445,-1.2906,-1.2906,-1.2906,-1.2906,-1.2906,-1.2906,-1.3054,-1.4099,-1.5097,-1.605,-1.7142,-1.7879,-1.8481,-1.8945,-1.918,-1.9385,-1.9805,-2.0244,-2.0605,-2.0605,-2.0605,-2.0605,-2.0605,-2.0605,-2.0556,-2.0419,-2.1668,-2.286,-2.2972,-2.4518,-2.5878,-2.6163,-2.6373,-2.6499,-2.6499,-2.6499,-2.6499,-2.6499,-2.6499,-2.6499,-2.6499,-2.6499,-2.6499,-2.6499,-2.6499,-2.6499,-2.6499,-2.6499,-2.6499,-2.6499,-2.6499,-2.6748,-2.7284,-2.9034,-3.0011,-3.0329,-3.1117,-3.1511,0.0,0.0,0.0,-1.0398,-1.0018,-0.955,-0.8935,-0.85,-0.7922,-0.6943,-0.6736,-0.6647,-0.6579,-0.6508,-0.646,-0.6362,-0.6338,-0.6303,-0.6306,-0.6306,-0.6306,-0.6313,-0.631,-0.6306,-0.6306,-0.6303,-0.5867,-0.4844,-0.3748,-0.2735,-0.1762,-0.0628,-0.0039,0.0,0.0,-0.051,-0.1607,-0.2579,-0.3632,-0.4727,-0.5786,-0.63,-0.63,-0.63,-0.63,-0.63,-0.63,-0.63,-0.6377,-0.7403,-0.8428,-0.941,-1.0453,-1.1428,-1.2305,-1.2305,-1.2305,-1.2305,-1.2305,-1.2305,-1.2445,-1.3346,-1.4343,-1.5376,-1.628,-1.7217,-1.8096,-1.8471,-1.8936,-1.9365,-1.9805,-2.0244,-2.0605,-2.0605,-2.0595,-2.0586,-2.0586,-2.0576,-2.0449,-1.999,-2.074,-2.1549,-2.1941,-2.3293,-2.4604,-2.5461,-2.6084,-2.6449,-2.6461,-2.6461,-2.6474,-2.6499,-2.6499,-2.6499,-2.6499,-2.6474,-2.6474,-2.6499,-2.6474,-2.6474,-2.6499,-2.6499,-2.6499,-2.6499,-2.6521,-2.6555,-2.6589,-2.8182,-2.9411,-3.0269,-3.1117,-3.1511,-1.2019,0.0,0.0,0.0,0.0,0.0,-1.0719,-0.9423,-0.8127,-0.7843,-0.7134,-0.676,-0.7465,-0.6892,-0.6578,-0.7257,-0.6756,-0.6334,-0.6439,-0.6453,-0.6494,-0.6566,-0.6521,-0.6453,-0.6453,-0.6361,-0.618,-0.5867,-0.4882,-0.4139,-0.3867,-0.2152,-0.0784,-0.0039,0.0,-0.051,-0.1607,-0.2579,-0.3632,-0.4727,-0.5786,-0.63,-0.63,-0.63,-0.63,-0.63,-0.63,-0.63,-0.6451,-0.8161,-0.9036,-0.9485,-1.1211,-1.2077,-1.2305,-1.2305,-1.2305,-1.2305,-1.2305,-1.2305,-1.2335,-1.2592,-1.3846,-1.5234,-1.5517,-1.6724,-1.8037,-1.812,-1.8461,-1.8948,-1.9727,-2.0244,-2.0605,-2.0605,-2.0322,-2.0088,-2.0088,-1.9863,-1.9697,-1.9883,-2.0938,-2.1856,-2.1989,-2.3475,-2.476,-2.5001,-2.5172,-2.541,-2.5787,-2.5837,-2.6034,-2.6449,-2.6499,-2.6499,-2.6499,-2.6109,-2.6047,-2.6461,-2.6097,-2.6047,-2.6474,-2.6499,-2.6499,-2.6499,-2.7061,-2.767,-2.8298,-2.8149,-2.8524,-2.938,-3.0837,-3.1511,-1.2338,-1.2305,-1.2371,-1.271,0.0,0.0,-1.1368,-1.0215,-0.9013,-0.8713,-0.8129,-0.7857,-0.8437,-0.8005,-0.7744,-0.8313,-0.7931,-0.7308,-0.661,-0.6511,-0.6569,-0.6681,-0.662,-0.6566,-0.6566,-0.6491,-0.6457,-0.6395,-0.5393,-0.458,-0.4064,-0.2504,-0.1293,-0.0706,-0.0236,-0.0314,-0.0941,-0.2384,-0.3396,-0.4062,-0.5589,-0.63,-0.63,-0.63,-0.6265,-0.6166,-0.6166,-0.6166,-0.6315,-0.8374,-0.9248,-0.9448,-1.1056,-1.1922,-1.2305,-1.2305,-1.2305,-1.2305,-1.2305,-1.2305,-1.2305,-1.2305,-1.3629,-1.5199,-1.5199,-1.6515,-1.8008,-1.8008,-1.8276,-1.8754,-1.9473,-1.9844,-2.0067,-2.0067,-1.9834,-1.9648,-1.9648,-1.9316,-1.9092,-1.9299,-2.0311,-2.1191,-2.1364,-2.2829,-2.404,-2.4405,-2.4669,-2.4901,-2.5234,-2.5272,-2.5398,-2.5737,-2.5774,-2.5774,-2.5774,-2.5473,-2.5423,-2.5749,-2.546,-2.5423,-2.5762,-2.6021,-2.6135,-2.6135,-2.6811,-2.7604,-2.846,-2.8684,-2.9223,-3.0072,-3.1029,-3.1511,-1.2425,-1.2325,-1.2358,-1.263,-1.2321,0.0,-1.1312,-1.0799,-1.0206,-0.9521,-0.9295,-0.9231,-0.9406,-0.9336,-0.9304,-0.9442,-0.9372,-0.8722,-0.7081,-0.6842,-0.6913,-0.7075,-0.7092,-0.7051,-0.693,-0.6912,-0.6798,-0.6521,-0.5611,-0.4554,-0.3322,-0.2308,-0.1723,-0.1607,-0.0549,0.0,0.0,-0.2072,-0.3085,-0.3124,-0.5276,-0.6289,-0.6276,-0.6276,-0.6152,-0.5969,-0.5969,-0.5969,-0.6114,-0.8107,-0.9057,-0.941,-1.0527,-1.1502,-1.2305,-1.2305,-1.2305,-1.2305,-1.2305,-1.2305,-1.2335,-1.2409,-1.3694,-1.5234,-1.5305,-1.6585,-1.8008,-1.8008,-1.8276,-1.8695,-1.9111,-1.9248,-1.9287,-1.9287,-1.9248,-1.9219,-1.9219,-1.8877,-1.8529,-1.8529,-1.9231,-2.0007,-2.0508,-2.1704,-2.2898,-2.3767,-2.4318,-2.4625,-2.4687,-2.47,-2.4725,-2.4775,-2.4788,-2.4788,-2.4788,-2.4738,-2.4725,-2.4788,-2.4725,-2.4725,-2.4788,-2.5272,-2.5511,-2.5511,-2.6198,-2.6976,-2.7855,-2.9411,-3.0584,-3.138,-3.1467,-3.1511,-1.2717,-1.2522,-1.2258,-1.212,-1.2167,0.0,-1.1481,-1.0872,-1.0289,-0.9884,-0.9141,-0.8908,-0.9972,-0.9489,-0.9253,-1.0344,-0.982,-0.9219,-0.8959,-0.9084,-0.9313,-0.9484,-0.9628,-0.934,-0.8388,-0.8164,-0.7642,-0.6565,-0.6205,-0.5539,-0.4453,-0.3398,-0.2425,-0.1607,-0.0549,0.0,0.0,-0.2072,-0.3085,-0.3124,-0.5276,-0.6235,-0.6074,-0.6074,-0.5989,-0.5844,-0.5844,-0.5844,-0.5926,-0.7249,-0.8389,-0.9485,-1.1285,-1.2114,-1.2305,-1.2305,-1.2305,-1.2305,-1.2305,-1.2305,-1.2409,-1.3164,-1.4243,-1.534,-1.6105,-1.7104,-1.8008,-1.8008,-1.8276,-1.8617,-1.8705,-1.9023,-1.9287,-1.9287,-1.9023,-1.8724,-1.8724,-1.8403,-1.8135,-1.8135,-1.8819,-1.9669,-2.0441,-2.1414,-2.2313,-2.3149,-2.3358,-2.3609,-2.4104,-2.4167,-2.433,-2.4738,-2.4788,-2.4788,-2.4788,-2.4418,-2.4356,-2.4763,-2.4406,-2.4356,-2.4775,-2.4888,-2.4938,-2.4938,-2.6194,-2.7455,-2.8748,-2.9097,-2.969,-3.0554,-3.119,-3.1511,-1.2643,-1.2418,-1.2265,-1.2124,-1.2084,0.0,0.0,-1.1349,-1.0933,-1.107,-1.0448,-1.0131,-1.0974,-1.0586,-1.032,-1.0999,-1.0665,-1.0388,-1.0431,-1.0135,-0.9983,-1.0173,-1.0373,-1.0269,-0.9724,-0.9041,-0.8074,-0.6682,-0.6491,-0.6136,-0.5515,-0.4491,-0.3437,-0.2386,-0.1332,-0.0546,0.0,-0.206,-0.3048,-0.3015,-0.515,-0.6064,-0.5915,-0.5915,-0.5833,-0.5694,-0.5694,-0.5694,-0.5804,-0.7319,-0.8327,-0.9129,-1.088,-1.1795,-1.2104,-1.2245,-1.2305,-1.2305,-1.2305,-1.2305,-1.2378,-1.2842,-1.3665,-1.4629,-1.5614,-1.6897,-1.8008,-1.8008,-1.8164,-1.8286,-1.8286,-1.8486,-1.8652,-1.8652,-1.8486,-1.8286,-1.8286,-1.812,-1.8008,-1.8008,-1.8687,-1.9595,-2.0462,-2.1333,-2.2168,-2.2975,-2.3108,-2.3208,-2.3496,-2.3534,-2.3647,-2.3923,-2.3948,-2.3948,-2.3948,-2.3697,-2.369,-2.3935,-2.3697,-2.3659,-2.3935,-2.4255,-2.4544,-2.4775,-2.548,-2.6765,-2.8609,-2.8287,-2.887,-3.0299,-3.0703,-3.1117,-1.2518,-1.2345,-1.2278,-1.2164,-1.2004,-1.1919,0.0,0.0,0.0,-1.1877,-1.159,-1.1349,-1.1678,-1.1503,-1.1329,-1.1382,-1.1435,-1.151,-1.151,-1.0895,-1.0493,-1.0607,-1.0952,-1.1107,-1.0888,-0.9613,-0.8333,-0.7174,-0.6711,-0.6433,-0.6344,-0.5287,-0.4217,-0.3124,-0.2113,-0.1087,0.0,-0.2043,-0.3006,-0.2926,-0.4975,-0.5908,-0.5762,-0.5762,-0.5681,-0.5545,-0.5545,-0.5545,-0.5682,-0.7396,-0.8269,-0.8647,-1.0292,-1.1318,-1.1933,-1.2131,-1.2258,-1.2305,-1.2305,-1.2305,-1.2342,-1.2519,-1.3346,-1.4414,-1.5234,-1.6655,-1.8008,-1.8008,-1.8008,-1.8008,-1.8008,-1.8008,-1.8008,-1.8008,-1.8008,-1.8008,-1.8008,-1.8008,-1.8008,-1.8008,-1.8563,-1.9365,-2.043,-2.1333,-2.2168,-2.2975,-2.3108,-2.3108,-2.3108,-2.3108,-2.3108,-2.3108,-2.3108,-2.3108,-2.3108,-2.3108,-2.3108,-2.3108,-2.3108,-2.3108,-2.3108,-2.359,-2.4092,-2.4657,-2.4637,-2.5587,-2.7526,-2.7127,-2.8106,-3.0321,-3.0205,-3.0573,-1.2757,-1.2543,-1.2178,-1.1657,-1.1697,-1.1712,-1.0961,0.0,-1.0989,-1.0827,0.0,-1.078,-1.1035,0.0,0.0,-1.1349,-1.165,-1.1852,-1.1852,-1.2192,-1.2356,-1.2097,-1.2778,-1.2845,-1.1863,-0.9759,-0.8479,-0.848,-0.7152,-0.6371,-0.648,-0.5333,-0.4217,-0.3124,-0.2113,-0.1096,0.0,-0.1952,-0.2908,-0.293,-0.4891,-0.5752,-0.5613,-0.5613,-0.5566,-0.5423,-0.5423,-0.5423,-0.5496,-0.6603,-0.7453,-0.8275,-1.0495,-1.1558,-1.1906,-1.194,-1.2084,-1.2305,-1.2305,-1.2305,-1.2445,-1.3273,-1.4764,-1.628,-1.6428,-1.7182,-1.8008,-1.8008,-1.8008,-1.8008,-1.8008,-1.8008,-1.8008,-1.8008,-1.8008,-1.8008,-1.8008,-1.8008,-1.8008,-1.8008,-1.8076,-1.8654,-2.0333,-2.1333,-2.2168,-2.2975,-2.3108,-2.3108,-2.3108,-2.3108,-2.3108,-2.3108,-2.3108,-2.3108,-2.3108,-2.3108,-2.3108,-2.3108,-2.3108,-2.3108,-2.3108,-2.317,-2.3471,-2.4079,-2.4092,-2.445,-2.5185,-2.5785,-2.7557,-3.0456,-2.9933,-3.0005,-1.2569,-1.2398,-1.2204,-1.1784,-1.1812,-1.1759,-1.1182,-1.1022,-1.1009,-1.1056,0.0,0.0,0.0,0.0,0.0,0.0,-1.1283,-1.1397,-1.1397,-1.1611,-1.1973,-1.2529,-1.3053,-1.2932,-1.1769,-1.077,-0.9699,-0.8479,-0.7789,-0.7137,-0.6515,-0.6013,-0.5227,-0.4062,-0.3008,-0.2254,-0.1803,-0.2541,-0.3159,-0.3678,-0.503,-0.5599,-0.5491,-0.5491,-0.5457,-0.5395,-0.5395,-0.5395,-0.5465,-0.6414,-0.7254,-0.8144,-0.9601,-1.0662,-1.1417,-1.155,-1.1797,-1.2087,-1.2087,-1.2164,-1.2445,-1.3382,-1.4665,-1.5904,-1.6419,-1.7251,-1.8008,-1.8008,-1.8008,-1.8008,-1.8008,-1.8008,-1.8008,-1.8008,-1.8008,-1.8008,-1.8008,-1.8008,-1.8008,-1.8008,-1.8395,-1.8977,-1.9726,-2.0558,-2.1585,-2.2914,-2.3108,-2.3108,-2.3108,-2.3108,-2.3108,-2.3108,-2.3108,-2.3108,-2.3108,-2.3108,-2.3108,-2.3108,-2.3108,-2.3108,-2.3108,-2.3108,-2.3221,-2.3459,-2.3471,-2.3999,-2.5047,-2.4983,-2.607,-2.8125,-2.8635,-2.923,-1.2365,-1.2305,-1.2211,-1.1844,-1.175,-1.165,-1.1276,-1.1089,-1.1056,-1.1263,-1.1035,0.0,0.0,0.0,-1.1089,-1.1009,0.0,-1.1109,-1.1109,-1.1182,-1.1551,-1.2328,-1.2837,-1.2785,-1.2049,-1.1625,-1.0798,-0.9333,-0.8552,-0.7813,-0.7053,-0.6692,-0.5961,-0.473,-0.3919,-0.3337,-0.3057,-0.3163,-0.3515,-0.4151,-0.5092,-0.5501,-0.5395,-0.5395,-0.5395,-0.5395,-0.5395,-0.5395,-0.5458,-0.633,-0.7209,-0.8091,-0.8947,-0.9936,-1.0909,-1.1196,-1.1496,-1.175,-1.175,-1.1937,-1.236,-1.3287,-1.4308,-1.5376,-1.6315,-1.7251,-1.8008,-1.8008,-1.8008,-1.8008,-1.8008,-1.8008,-1.8008,-1.8008,-1.8008,-1.8008,-1.8008,-1.8008,-1.8008,-1.8008,-1.8496,-1.9011,-1.9276,-2.0009,-2.1101,-2.2567,-2.2763,-2.2854,-2.3078,-2.3108,-2.3108,-2.3108,-2.3108,-2.3108,-2.3108,-2.3108,-2.3108,-2.3108,-2.3108,-2.3108,-2.3108,-2.3108,-2.3108,-2.3108,-2.3108,-2.3615,-2.4605,-2.4402,-2.4924,-2.6146,-2.7286,-2.8229,-1.2305,-1.2305,-1.2164,-1.1549,-1.1409,-1.1289,-1.0754,-1.0827,-1.0995,-1.1002,-1.1216,-1.1369,-1.1375,-1.1375,-1.1289,-1.1042,-1.1229,0.0,0.0,-1.1657,-1.1785,-1.1462,-1.2231,-1.2918,-1.314,-1.1953,-1.1366,-1.1728,-0.9425,-0.8089,-0.8339,-0.7189,-0.5961,-0.473,-0.4541,-0.3955,-0.2905,-0.3623,-0.3983,-0.401,-0.4959,-0.5399,-0.5395,-0.5395,-0.5395,-0.5395,-0.5395,-0.5395,-0.5458,-0.633,-0.7209,-0.8091,-0.8947,-0.9824,-1.064,-1.0902,-1.1189,-1.1409,-1.1409,-1.1637,-1.2055,-1.3001,-1.419,-1.5376,-1.6315,-1.7251,-1.8008,-1.8008,-1.8008,-1.8008,-1.8008,-1.8008,-1.8008,-1.8008,-1.8008,-1.8008,-1.8008,-1.8008,-1.8008,-1.8008,-1.8008,-1.8303,-1.9144,-2.0009,-2.091,-2.1815,-2.1939,-2.223,-2.3017,-2.3108,-2.3108,-2.3108,-2.3108,-2.3108,-2.3108,-2.3108,-2.3108,-2.3108,-2.3108,-2.3108,-2.3108,-2.3108,-2.3108,-2.3108,-2.3108,-2.3108,-2.3163,-2.3927,-2.4694,-2.5453,-2.6206,-2.6926,-1.2053,-1.187,-1.1677,-1.1442,-1.1283,-1.1089,-1.0928,-1.0807,-1.0794,-1.0955,-1.1069,-1.1196,-1.1355,-1.159,-1.169,-1.1625,-1.1657,-1.1717,0.0,-1.1839,-1.1866,-1.173,-1.2187,-1.2492,-1.2599,-1.2205,-1.1839,-1.1658,-1.0079,-0.8959,-0.8622,-0.7357,-0.639,-0.5921,-0.5079,-0.4746,-0.4937,-0.4408,-0.4439,-0.5061,-0.5299,-0.5395,-0.5395,-0.5395,-0.5395,-0.5395,-0.5395,-0.5395,-0.5458,-0.633,-0.7209,-0.8091,-0.8947,-0.9817,-1.06,-1.0707,-1.0928,-1.1169,-1.1329,-1.1623,-1.2041,-1.298,-1.414,-1.5376,-1.6315,-1.7251,-1.8008,-1.8008,-1.8008,-1.8008,-1.8008,-1.8008,-1.8008,-1.8008,-1.8008,-1.8008,-1.8008,-1.8008,-1.8008,-1.8008,-1.8008,-1.8076,-1.8395,-1.9177,-2.0042,-2.091,-2.1522,-2.2013,-2.2261,-2.2763,-2.3108,-2.3108,-2.3108,-2.3108,-2.3108,-2.3108,-2.3108,-2.3108,-2.3108,-2.3108,-2.3108,-2.3108,-2.3108,-2.3108,-2.3108,-2.3108,-2.3108,-2.3365,-2.3914,-2.4681,-2.5425,-2.6424,-1.171,-1.157,-1.1369,-1.1296,-1.1129,-1.0995,-1.0995,-1.0929,-1.0922,-1.1109,-1.1309,-1.145,-1.1395,-1.175,-1.1957,-1.175,-1.1832,-1.1906,0.0,-1.1993,-1.2024,-1.2024,-1.2184,-1.2305,-1.2305,-1.2305,-1.2244,-1.2098,-1.06,-0.9599,-0.9307,-0.7647,-0.663,-0.6518,-0.5646,-0.5412,-0.5912,-0.5114,-0.4982,-0.5542,-0.5443,-0.5395,-0.5395,-0.5395,-0.5395,-0.5395,-0.5395,-0.5395,-0.5428,-0.6009,-0.692,-0.8059,-0.8613,-0.9556,-1.0593,-1.0593,-1.0713,-1.0914,-1.1169,-1.1463,-1.1899,-1.295,-1.414,-1.5376,-1.6315,-1.7251,-1.8008,-1.8008,-1.8008,-1.8008,-1.8008,-1.8008,-1.8008,-1.8008,-1.8008,-1.8008,-1.8008,-1.8008,-1.8008,-1.8008,-1.8008,-1.8008,-1.8008,-1.8462,-1.9233,-2.043,-2.1333,-2.2002,-2.2292,-2.2793,-2.3108,-2.3108,-2.3108,-2.3108,-2.3108,-2.3108,-2.3108,-2.3108,-2.3108,-2.3108,-2.3108,-2.3108,-2.3108,-2.3108,-2.3108,-2.3108,-2.3108,-2.3108,-2.3514,-2.4321,-2.4794,-2.581]}]]